Darstellungsparameter: Aktuell verwendete Einstellungen:
Skalierung der Graphiken ... ?
xyx+y,   Skalierungsfaktor:      Skalierung: Modus: x, Faktor: 1
Darstellungszeitraum ... ?
Vom - - bis: - -   Zeitraum: 07.01.2014 - 06.07.2014
Min/Max/Avg-Anzeige ... ?
Zeige MMA aktuell
Zeige MMA Monat
Zeige MMA alles
Zeige --A aktuell
Zeige --A Monat
Zeige --A alles
Keine MMA-Anzeige
MMA:
Keine MMA-Graphiken
MMA-Basis: 07.01.2014 - 06.07.2014
Quicknavigation für Darstellung... ?
Tage:      1T, 2T, 3T, 5T -1T -2T -3T -5T +1T +2T +3T +5T
Wochen: 1W, 2W, 3W -1W -2W -3W +1W +2W +3W
Monate: 1M, 3M, 6M -1M -3M -6M +1M +3M +6M
Jahre:    1J, 3J, 5J, 10J -1J -3J -5J -10J +1J +3J +5J +10J
Nutze für die Darstellung ... ?
Originaldaten oder ...
Mittelwerte Minima Maxima auf...
Stundenbasis Tagesbasis Wochenbasis
Monatsbasis Jahresbasis      Datenbasis: Mittelwerte auf Stundenbasis
Darstellen als:
Statistik (Auto) Statistik J:M      Darstellung:
Zur Graphik,    zurück zur Übersicht aller Sensoren.
 
Tabellarische Datenbersicht: ?
 
Sensor: Nr:Datum:Temp:Abs-Feuchte:Windchill:Wind:
Aussen-T/F 1 07-01-2014 00:00:00 10.76667 C 9.04 g/m*3 8.7 C 16.375 km/h
2 07-01-2014 01:00:00 10.70833 C 8.68 g/m*3 9.49 C 9.94167 km/h
3 07-01-2014 02:00:00 10.325 C 8.74 g/m*3 9.38 C 8.05833 km/h
4 07-01-2014 03:00:00 9.91667 C 8.47 g/m*3 9.45 C 5.74167 km/h
5 07-01-2014 04:00:00 9.28333 C 8.36 g/m*3 9.28 C 3.74167 km/h
6 07-01-2014 05:00:00 10.30833 C 8.25 g/m*3 9.44 C 7.64167 km/h
7 07-01-2014 06:00:00 10.31667 C 8.07 g/m*3 9.83 C 6.03333 km/h
8 07-01-2014 07:00:00 9.64167 C 7.91 g/m*3 9.64 C 4.8 km/h
9 07-01-2014 08:00:00 9.66667 C 7.87 g/m*3 9.27 C 5.35 km/h
10 07-01-2014 09:00:00 10.69167 C 7.91 g/m*3 9.65 C 8.86667 km/h
11 07-01-2014 10:00:00 11.35833 C 8.12 g/m*3 11.36 C 10.46667 km/h
12 07-01-2014 11:00:00 11.81667 C 8.24 g/m*3 11.82 C 8.59167 km/h
13 07-01-2014 12:00:00 11.84167 C 8.39 g/m*3 11.84 C 6.84167 km/h
14 07-01-2014 13:00:00 11.55 C 8.66 g/m*3 11.55 C 3.34167 km/h
15 07-01-2014 14:00:00 12.93333 C 8.39 g/m*3 12.93 C 6.975 km/h
16 07-01-2014 15:00:00 13.25 C 8.11 g/m*3 13.25 C 6.7 km/h
17 07-01-2014 16:00:00 11.85833 C 8.34 g/m*3 11.86 C 3.06667 km/h
18 07-01-2014 17:00:00 10.63333 C 8.39 g/m*3 10.63 C 2 km/h
19 07-01-2014 18:00:00 10.25 C 8.35 g/m*3 10.25 C 3.06667 km/h
20 07-01-2014 19:00:00 10.4 C 8.66 g/m*3 10.4 C 2.13333 km/h
21 07-01-2014 20:00:00 9.63333 C 8.6 g/m*3 9.63 C 1.86667 km/h
22 07-01-2014 21:00:00 9.79167 C 8.78 g/m*3 9.79 C 2.66667 km/h
23 07-01-2014 22:00:00 10.14167 C 8.8 g/m*3 10.14 C 2.26667 km/h
24 07-01-2014 23:00:00 10.40833 C 8.92 g/m*3 10.41 C 2.93333 km/h
25 08-01-2014 00:00:00 11.3 C 9.06 g/m*3 11.3 C 5.48333 km/h
Sensor: Nr:Datum:Temp:Abs-Feuchte:Windchill:Wind:
Aussen-T/F 26 08-01-2014 01:00:00 11.525 C 9.06 g/m*3 11.53 C 7.38333 km/h
27 08-01-2014 02:00:00 11.525 C 9.09 g/m*3 11.53 C 5.35 km/h
28 08-01-2014 03:00:00 11.08333 C 9.06 g/m*3 11.08 C 4.28333 km/h
29 08-01-2014 04:00:00 10.84167 C 9.09 g/m*3 10.84 C 3.34167 km/h
30 08-01-2014 05:00:00 11.51667 C 9.12 g/m*3 11.52 C 10.06667 km/h
31 08-01-2014 06:00:00 12.175 C 9.02 g/m*3 12.18 C 13.56667 km/h
32 08-01-2014 07:00:00 11.95833 C 8.82 g/m*3 11.96 C 10.9 km/h
33 08-01-2014 08:00:00 11.45 C 8.61 g/m*3 11.45 C 9.28333 km/h
34 08-01-2014 09:00:00 11.33333 C 8.48 g/m*3 11.33 C 8.06667 km/h
35 08-01-2014 10:00:00 11.52 C 8.46 g/m*3 11.52 C 9.68 km/h
36 08-01-2014 11:00:00 11.175 C 8.35 g/m*3 11.18 C 7.375 km/h
37 08-01-2014 12:00:00 11.25833 C 8.27 g/m*3 11.26 C 6.43333 km/h
38 08-01-2014 13:00:00 12.45833 C 8.34 g/m*3 12.46 C 10.06667 km/h
39 08-01-2014 14:00:00 12.03333 C 8.38 g/m*3 12.03 C 8.04167 km/h
40 08-01-2014 15:00:00 11.49167 C 8.25 g/m*3 11.49 C 8.45833 km/h
41 08-01-2014 16:00:00 10.38333 C 8.09 g/m*3 10.13 C 5.20833 km/h
42 08-01-2014 17:00:00 9.00833 C 7.92 g/m*3 9.01 C 2.66667 km/h
43 08-01-2014 18:00:00 8.2 C 7.7 g/m*3 8.2 C 1.33333 km/h
44 08-01-2014 19:00:00 7.325 C 7.47 g/m*3 7.33 C 0.26667 km/h
45 08-01-2014 20:00:00 6.98333 C 7.37 g/m*3 6.98 C 0.13333 km/h
46 08-01-2014 21:00:00 6.63333 C 7.26 g/m*3 6.63 C 0 km/h
47 08-01-2014 22:00:00 6.26667 C 7.09 g/m*3 6.27 C 0 km/h
48 09-01-2014 01:00:00 6.5 C 7.27 g/m*3 6.5 C 0.26667 km/h
49 09-01-2014 02:00:00 6.7 C 7.37 g/m*3 6.7 C 0.26667 km/h
50 09-01-2014 03:00:00 6.68333 C 7.36 g/m*3 6.68 C 0.4 km/h
Sensor: Nr:Datum:Temp:Abs-Feuchte:Windchill:Wind:
Aussen-T/F 51 09-01-2014 04:00:00 6.75833 C 7.4 g/m*3 6.76 C 0.8 km/h
52 09-01-2014 05:00:00 7 C 7.59 g/m*3 7 C 1.30909 km/h
53 09-01-2014 07:00:00 9.425 C 8.45 g/m*3 9.1 C 5 km/h
54 09-01-2014 08:00:00 9.53333 C 8.16 g/m*3 9.53 C 2.54167 km/h
55 09-01-2014 09:00:00 9.33333 C 8.2 g/m*3 9.33 C 2.53333 km/h
56 09-01-2014 10:00:00 10.01667 C 8.42 g/m*3 10.02 C 2.53333 km/h
57 09-01-2014 11:00:00 11.28333 C 8.54 g/m*3 11.28 C 8.19167 km/h
58 09-01-2014 12:00:00 12.46667 C 8.55 g/m*3 12.47 C 12.23333 km/h
59 09-01-2014 13:00:00 12.7 C 8.57 g/m*3 12.7 C 13.96667 km/h
60 09-01-2014 14:00:00 12.71667 C 8.6 g/m*3 12.72 C 18.64167 km/h
61 09-01-2014 15:00:00 11.45833 C 8.59 g/m*3 11.46 C 16.1 km/h
62 09-01-2014 16:00:00 10.44167 C 8.17 g/m*3 8.19 C 17.43333 km/h
63 09-01-2014 17:00:00 9.94167 C 8.04 g/m*3 7.79 C 15.43333 km/h
64 09-01-2014 18:00:00 9.91667 C 7.84 g/m*3 7.49 C 17.83333 km/h
65 09-01-2014 19:00:00 9.71667 C 7.78 g/m*3 7.27 C 17.575 km/h
66 09-01-2014 20:00:00 9.53333 C 7.25 g/m*3 7.35 C 14.9 km/h
67 09-01-2014 21:00:00 8.49167 C 6.36 g/m*3 6.14 C 14.35833 km/h
68 09-01-2014 22:00:00 6.95 C 5.84 g/m*3 5.48 C 7.79167 km/h
69 09-01-2014 23:00:00 6.425 C 5.86 g/m*3 6.43 C 4.275 km/h
70 10-01-2014 00:00:00 5.925 C 6.16 g/m*3 5.93 C 0 km/h
71 10-01-2014 01:00:00 5.7 C 6.3 g/m*3 5.7 C 1.33333 km/h
72 10-01-2014 02:00:00 6.2 C 6.35 g/m*3 6.2 C 3.86667 km/h
73 10-01-2014 03:00:00 5.88333 C 6.22 g/m*3 5.88 C 4.68333 km/h
74 10-01-2014 04:00:00 4.79167 C 5.95 g/m*3 4.79 C 4.80833 km/h
75 10-01-2014 05:00:00 5 C 5.95 g/m*3 3.02 C 8.45 km/h
Sensor: Nr:Datum:Temp:Abs-Feuchte:Windchill:Wind:
Aussen-T/F 76 10-01-2014 06:00:00 4.74167 C 5.91 g/m*3 3.76 C 5.075 km/h
77 10-01-2014 07:00:00 5.05833 C 6.02 g/m*3 3.05 C 8.61667 km/h
78 10-01-2014 08:00:00 5.41667 C 6.04 g/m*3 3 C 10.74167 km/h
79 10-01-2014 09:00:00 5.34167 C 6.1 g/m*3 3.7 C 7.38333 km/h
80 10-01-2014 10:00:00 5.69167 C 6.26 g/m*3 4.08 C 7.50833 km/h
81 10-01-2014 11:00:00 6.675 C 6.35 g/m*3 4.14 C 12.88333 km/h
82 10-01-2014 12:00:00 7.5 C 6.5 g/m*3 5.36 C 11.55 km/h
83 10-01-2014 13:00:00 7.71667 C 6.53 g/m*3 5.43 C 12.76667 km/h
84 10-01-2014 14:00:00 7.74167 C 6.59 g/m*3 5.89 C 10.20833 km/h
85 10-01-2014 15:00:00 7.85833 C 6.64 g/m*3 6.57 C 7.65 km/h
86 10-01-2014 16:00:00 6.5 C 6.37 g/m*3 6.5 C 4.26667 km/h
87 10-01-2014 17:00:00 5.1 C 6.12 g/m*3 5.1 C 3.6 km/h
88 10-01-2014 18:00:00 5.08333 C 6.06 g/m*3 4.15 C 5.06667 km/h
89 10-01-2014 19:00:00 5.36667 C 6.08 g/m*3 4.32 C 5.475 km/h
90 10-01-2014 20:00:00 4.7 C 5.91 g/m*3 4.7 C 4 km/h
91 10-01-2014 21:00:00 4.075 C 5.81 g/m*3 4.08 C 1.46667 km/h
92 10-01-2014 22:00:00 3.25 C 5.64 g/m*3 3.25 C 0.4 km/h
93 10-01-2014 23:00:00 3.05833 C 5.64 g/m*3 3.06 C 0 km/h
94 11-01-2014 00:00:00 2.525 C 5.47 g/m*3 2.53 C 0 km/h
95 11-01-2014 01:00:00 2.08333 C 5.31 g/m*3 2.08 C 0.13333 km/h
96 11-01-2014 02:00:00 1.78333 C 5.25 g/m*3 1.78 C 0.4 km/h
97 11-01-2014 03:00:00 1.54167 C 5.17 g/m*3 1.54 C 0.26667 km/h
98 11-01-2014 04:00:00 1.35 C 5.11 g/m*3 1.35 C 0.4 km/h
99 11-01-2014 05:00:00 0.89167 C 4.97 g/m*3 0.89 C 0 km/h
100 11-01-2014 06:00:00 1.10833 C 5.07 g/m*3 1.11 C 0.66667 km/h
Sensor: Nr:Datum:Temp:Abs-Feuchte:Windchill:Wind:
Aussen-T/F 101 11-01-2014 07:00:00 1.4 C 5.17 g/m*3 1.4 C 1.73333 km/h
102 11-01-2014 08:00:00 1.86667 C 5.34 g/m*3 1.87 C 1.2 km/h
103 11-01-2014 09:00:00 2.25833 C 5.49 g/m*3 2.26 C 0 km/h
104 11-01-2014 10:00:00 2.6 C 5.61 g/m*3 2.6 C 0.26667 km/h
105 11-01-2014 11:00:00 3.79167 C 6.12 g/m*3 3.79 C 2.81667 km/h
106 11-01-2014 12:00:00 5.975 C 6.68 g/m*3 3.92 C 9.55833 km/h
107 11-01-2014 13:00:00 6.85 C 6.71 g/m*3 5.14 C 8.73333 km/h
108 11-01-2014 14:00:00 7.66667 C 6.81 g/m*3 5.41 C 12.48333 km/h
109 11-01-2014 15:00:00 7.13333 C 6.79 g/m*3 5.5 C 8.59167 km/h
110 11-01-2014 16:00:00 7.36667 C 6.99 g/m*3 5.47 C 10.09167 km/h
111 11-01-2014 17:00:00 6.41667 C 7.01 g/m*3 5.56 C 5.36667 km/h
112 11-01-2014 18:00:00 6.24167 C 6.59 g/m*3 5.02 C 6.43333 km/h
113 11-01-2014 19:00:00 5.69167 C 6.31 g/m*3 5.69 C 4.43333 km/h
114 11-01-2014 20:00:00 4.46667 C 6.04 g/m*3 4.47 C 3.06667 km/h
115 11-01-2014 21:00:00 4.33333 C 5.92 g/m*3 4.33 C 4.66667 km/h
116 11-01-2014 22:00:00 3.45833 C 5.63 g/m*3 3.46 C 2.8 km/h
117 11-01-2014 23:00:00 2.49167 C 5.41 g/m*3 2.49 C 2 km/h
118 12-01-2014 00:00:00 2 C 5.28 g/m*3 2 C 3.06667 km/h
119 12-01-2014 01:00:00 1.575 C 5.13 g/m*3 1.58 C 3.74167 km/h
120 12-01-2014 02:00:00 1.1 C 4.97 g/m*3 -1.12 C 6.99167 km/h
121 12-01-2014 03:00:00 0.96667 C 4.97 g/m*3 -1.86 C 8.86667 km/h
122 12-01-2014 04:00:00 1.24167 C 5.07 g/m*3 -1.54 C 8.88333 km/h
123 12-01-2014 05:00:00 1.19167 C 5.05 g/m*3 -1.01 C 6.96667 km/h
124 12-01-2014 06:00:00 0.69167 C 4.88 g/m*3 0.69 C 2.4 km/h
125 12-01-2014 07:00:00 0.54167 C 4.87 g/m*3 0.54 C 3.86667 km/h
Sensor: Nr:Datum:Temp:Abs-Feuchte:Windchill:Wind:
Aussen-T/F 126 12-01-2014 08:00:00 0.11667 C 4.74 g/m*3 0.12 C 3.75 km/h
127 12-01-2014 09:00:00 -0.00833 C 4.7 g/m*3 -0.01 C 2 km/h
128 12-01-2014 10:00:00 0.15 C 4.75 g/m*3 0.15 C 4.95 km/h
129 12-01-2014 11:00:00 0.25833 C 4.81 g/m*3 -1.57 C 5.625 km/h
130 12-01-2014 12:00:00 0.46667 C 4.9 g/m*3 0.47 C 2.26667 km/h
131 12-01-2014 13:00:00 0.84167 C 5.03 g/m*3 0.84 C 2.26667 km/h
132 12-01-2014 14:00:00 1.35 C 5.21 g/m*3 1.35 C 2 km/h
133 12-01-2014 15:00:00 1.28571 C 5.19 g/m*3 1.29 C 2.74286 km/h
134 12-01-2014 16:00:00 1 C 5.09 g/m*3 1 C 1.2 km/h
135 12-01-2014 17:00:00 0.1875 C 4.81 g/m*3 0.19 C 0.6 km/h
136 12-01-2014 18:00:00 -0.26667 C 4.66 g/m*3 -0.27 C 0.8 km/h
137 12-01-2014 19:00:00 -0.55833 C 4.57 g/m*3 -0.56 C 0.4 km/h
138 12-01-2014 20:00:00 -0.80833 C 4.49 g/m*3 -0.81 C 1.2 km/h
139 12-01-2014 21:00:00 -1.225 C 4.36 g/m*3 -1.23 C 2.53333 km/h
140 12-01-2014 22:00:00 -1.55 C 4.26 g/m*3 -1.55 C 2.66667 km/h
141 12-01-2014 23:00:00 -1.7 C 4.22 g/m*3 -1.7 C 2 km/h
142 13-01-2014 00:00:00 -1.7 C 4.22 g/m*3 -1.7 C 0.26667 km/h
143 13-01-2014 01:00:00 -1.68333 C 4.22 g/m*3 -1.68 C 0.26667 km/h
144 13-01-2014 02:00:00 -1.08333 C 4.4 g/m*3 -1.08 C 0.66667 km/h
145 13-01-2014 03:00:00 -0.20833 C 4.68 g/m*3 -0.21 C 2.13333 km/h
146 13-01-2014 04:00:00 0.24167 C 4.83 g/m*3 0.24 C 2.13333 km/h
147 13-01-2014 05:00:00 1.05833 C 5.11 g/m*3 1.06 C 0.53333 km/h
148 13-01-2014 06:00:00 1.825 C 5.38 g/m*3 1.83 C 1.2 km/h
149 13-01-2014 07:00:00 2.33333 C 5.57 g/m*3 2.33 C 0.4 km/h
150 13-01-2014 08:00:00 2.65833 C 5.69 g/m*3 2.66 C 0.53333 km/h
Sensor: Nr:Datum:Temp:Abs-Feuchte:Windchill:Wind:
Aussen-T/F 151 13-01-2014 09:00:00 3.18333 C 5.9 g/m*3 3.18 C 0 km/h
152 13-01-2014 10:00:00 3.83333 C 6.19 g/m*3 3.83 C 0.53333 km/h
153 13-01-2014 11:00:00 5.125 C 6.77 g/m*3 5.13 C 2.26667 km/h
154 13-01-2014 12:00:00 6.38333 C 7.31 g/m*3 4.78 C 7.91667 km/h
155 13-01-2014 13:00:00 7.875 C 7.34 g/m*3 6.8 C 6.84167 km/h
156 13-01-2014 14:00:00 8.025 C 7.13 g/m*3 6.87 C 7.24167 km/h
157 13-01-2014 15:00:00 7.38333 C 7.12 g/m*3 7.38 C 1.2 km/h
158 13-01-2014 16:00:00 6.675 C 7.05 g/m*3 6.68 C 2 km/h
159 13-01-2014 17:00:00 6.20833 C 6.97 g/m*3 6.21 C 0.26667 km/h
160 13-01-2014 18:00:00 6.14167 C 6.99 g/m*3 6.14 C 0 km/h
161 13-01-2014 19:00:00 6.025 C 6.98 g/m*3 6.03 C 0 km/h
162 13-01-2014 20:00:00 5.73333 C 6.85 g/m*3 5.73 C 0.26667 km/h
163 13-01-2014 21:00:00 5.3 C 6.63 g/m*3 5.3 C 0 km/h
164 13-01-2014 22:00:00 4.29167 C 6.22 g/m*3 4.29 C 0.13333 km/h
165 13-01-2014 23:00:00 3.94167 C 6.12 g/m*3 3.94 C 1.2 km/h
166 14-01-2014 00:00:00 3.875 C 6.08 g/m*3 3.88 C 2.13333 km/h
167 14-01-2014 01:00:00 3.5 C 5.96 g/m*3 3.5 C 2 km/h
168 14-01-2014 02:00:00 3.3 C 5.88 g/m*3 3.3 C 1.46667 km/h
169 14-01-2014 03:00:00 4.01667 C 6.2 g/m*3 4.02 C 0.26667 km/h
170 14-01-2014 04:00:00 4.325 C 6.32 g/m*3 4.33 C 1.06667 km/h
171 14-01-2014 05:00:00 5.35 C 6.65 g/m*3 3.99 C 6.41667 km/h
172 14-01-2014 06:00:00 5.18333 C 6.47 g/m*3 5.18 C 4.54167 km/h
173 14-01-2014 07:00:00 4.65 C 6.31 g/m*3 4.65 C 2.54167 km/h
174 14-01-2014 08:00:00 4.275 C 6.22 g/m*3 4.28 C 2.54167 km/h
175 14-01-2014 09:00:00 4.975 C 6.56 g/m*3 4.97 C 2.53333 km/h
Sensor: Nr:Datum:Temp:Abs-Feuchte:Windchill:Wind:
Aussen-T/F 176 14-01-2014 10:00:00 5.8 C 6.71 g/m*3 5.8 C 2.93333 km/h
177 14-01-2014 11:00:00 5.88 C 6.77 g/m*3 5.88 C 2.88 km/h
178 14-01-2014 12:00:00 6.9 C 7 g/m*3 6.9 C 2.62727 km/h
179 14-01-2014 13:00:00 7.55833 C 7.16 g/m*3 7.56 C 3.33333 km/h
180 14-01-2014 14:00:00 7.975 C 7.18 g/m*3 7.98 C 2.93333 km/h
181 14-01-2014 15:00:00 7.38333 C 7.13 g/m*3 7.38 C 1.73333 km/h
182 14-01-2014 16:00:00 7.23333 C 6.93 g/m*3 7.23 C 3.2 km/h
183 14-01-2014 17:00:00 6.34167 C 6.82 g/m*3 6.34 C 2.26667 km/h
184 14-01-2014 18:00:00 5.20833 C 6.54 g/m*3 5.21 C 1.33333 km/h
185 14-01-2014 19:00:00 3.575 C 5.93 g/m*3 3.58 C 1.73333 km/h
186 14-01-2014 20:00:00 3.21667 C 5.84 g/m*3 3.22 C 0 km/h
187 14-01-2014 21:00:00 3.36667 C 5.91 g/m*3 3.37 C 0.53333 km/h
188 14-01-2014 22:00:00 3.81667 C 6.12 g/m*3 3.82 C 0.26667 km/h
189 14-01-2014 23:00:00 4.375 C 6.35 g/m*3 4.38 C 2.13333 km/h
190 15-01-2014 00:00:00 4.8 C 6.48 g/m*3 4.8 C 2.26667 km/h
191 15-01-2014 01:00:00 4.9 C 6.45 g/m*3 4.9 C 2.53333 km/h
192 15-01-2014 02:00:00 4.8 C 6.31 g/m*3 4.8 C 2.53333 km/h
193 15-01-2014 03:00:00 4.75833 C 6.1 g/m*3 3.62 C 5.49167 km/h
194 15-01-2014 04:00:00 4.04167 C 5.61 g/m*3 2.91 C 5.225 km/h
195 15-01-2014 05:00:00 3.16667 C 5.48 g/m*3 3.17 C 2.66667 km/h
196 15-01-2014 06:00:00 2.10833 C 5.22 g/m*3 2.11 C 1.46667 km/h
197 15-01-2014 07:00:00 1.56667 C 5.11 g/m*3 1.57 C 2.53333 km/h
198 15-01-2014 08:00:00 1.74167 C 5.2 g/m*3 1.74 C 0.4 km/h
199 15-01-2014 09:00:00 2.275 C 5.42 g/m*3 2.28 C 0 km/h
200 15-01-2014 10:00:00 3.45833 C 5.67 g/m*3 3.46 C 1.2 km/h
Sensor: Nr:Datum:Temp:Abs-Feuchte:Windchill:Wind:
Aussen-T/F 201 15-01-2014 11:00:00 4.61667 C 5.77 g/m*3 4.62 C 1.86667 km/h
202 15-01-2014 12:00:00 5.55 C 5.91 g/m*3 5.55 C 4.40833 km/h
203 15-01-2014 13:00:00 5.89167 C 5.94 g/m*3 4.1 C 8.31667 km/h
204 15-01-2014 14:00:00 5.35833 C 6.01 g/m*3 4.26 C 5.625 km/h
205 15-01-2014 15:00:00 4.81667 C 6.12 g/m*3 4.82 C 1.86667 km/h
206 15-01-2014 16:00:00 4.46667 C 6.08 g/m*3 4.47 C 1.06667 km/h
207 15-01-2014 17:00:00 4.44167 C 6.09 g/m*3 4.44 C 1.86667 km/h
208 15-01-2014 18:00:00 4.725 C 6.04 g/m*3 4.72 C 2 km/h
209 15-01-2014 19:00:00 4.81667 C 6.11 g/m*3 4.82 C 1.6 km/h
210 15-01-2014 20:00:00 4.775 C 6.21 g/m*3 4.78 C 0.53333 km/h
211 15-01-2014 21:00:00 4.65 C 6.29 g/m*3 4.65 C 0.66667 km/h
212 15-01-2014 22:00:00 4.45833 C 6.29 g/m*3 4.46 C 0 km/h
213 15-01-2014 23:00:00 4.45833 C 6.36 g/m*3 4.46 C 0 km/h
214 16-01-2014 00:00:00 4.5 C 6.38 g/m*3 4.5 C 0 km/h
215 16-01-2014 01:00:00 4.65 C 6.44 g/m*3 4.65 C 0 km/h
216 16-01-2014 02:00:00 4.9 C 6.55 g/m*3 4.9 C 0 km/h
217 16-01-2014 03:00:00 5.11667 C 6.71 g/m*3 5.12 C 0.13333 km/h
218 16-01-2014 04:00:00 5.275 C 6.78 g/m*3 5.28 C 0 km/h
219 16-01-2014 05:00:00 5.4 C 6.84 g/m*3 5.4 C 0.13333 km/h
220 16-01-2014 06:00:00 5.54167 C 6.9 g/m*3 5.54 C 0 km/h
221 16-01-2014 07:00:00 5.64167 C 6.95 g/m*3 5.64 C 0.13333 km/h
222 16-01-2014 08:00:00 5.44167 C 6.86 g/m*3 5.44 C 0.53333 km/h
223 16-01-2014 09:00:00 5.63333 C 6.94 g/m*3 5.63 C 0.53333 km/h
224 16-01-2014 10:00:00 6.10833 C 7.16 g/m*3 6.11 C 0.26667 km/h
225 16-01-2014 11:00:00 6.46667 C 7.13 g/m*3 6.47 C 2.8 km/h
Sensor: Nr:Datum:Temp:Abs-Feuchte:Windchill:Wind:
Aussen-T/F 226 16-01-2014 12:00:00 7.55 C 7.36 g/m*3 7.55 C 0.93333 km/h
227 16-01-2014 13:00:00 8.31667 C 7.28 g/m*3 8.32 C 2.26667 km/h
228 16-01-2014 14:00:00 8.075 C 7.41 g/m*3 8.07 C 1.2 km/h
229 16-01-2014 15:00:00 7.94167 C 7.25 g/m*3 7.94 C 3.2 km/h
230 16-01-2014 16:00:00 8.38333 C 7.23 g/m*3 8.38 C 4.825 km/h
231 16-01-2014 17:00:00 8.19167 C 7.28 g/m*3 8.19 C 3.06667 km/h
232 16-01-2014 18:00:00 8.10833 C 7.3 g/m*3 8.11 C 4.95 km/h
233 16-01-2014 19:00:00 8.7 C 7.35 g/m*3 7.97 C 6.01667 km/h
234 16-01-2014 20:00:00 7.54167 C 7.22 g/m*3 7.54 C 2.53333 km/h
235 16-01-2014 21:00:00 7.01667 C 7.19 g/m*3 7.02 C 2 km/h
236 16-01-2014 22:00:00 6.79167 C 7.11 g/m*3 6.79 C 1.33333 km/h
237 16-01-2014 23:00:00 5.60833 C 6.61 g/m*3 5.61 C 3.2 km/h
238 17-01-2014 00:00:00 5.76667 C 6.8 g/m*3 5.77 C 2.66667 km/h
239 17-01-2014 01:00:00 6.59167 C 7.05 g/m*3 6.59 C 1.46667 km/h
240 17-01-2014 02:00:00 6.875 C 7.1 g/m*3 6.88 C 0.8 km/h
241 17-01-2014 03:00:00 6.8 C 7.22 g/m*3 6.8 C 1.46667 km/h
242 17-01-2014 04:00:00 6.725 C 7.33 g/m*3 6.73 C 0.66667 km/h
243 17-01-2014 05:00:00 6.51667 C 7.28 g/m*3 6.52 C 1.06667 km/h
244 17-01-2014 06:00:00 6.41667 C 7.24 g/m*3 6.42 C 1.46667 km/h
245 17-01-2014 07:00:00 6.1 C 7.07 g/m*3 6.1 C 2.26667 km/h
246 17-01-2014 08:00:00 5.48333 C 6.81 g/m*3 5.48 C 2.8 km/h
247 17-01-2014 09:00:00 6.00833 C 7.04 g/m*3 6.01 C 1.86667 km/h
248 17-01-2014 10:00:00 6.625 C 7.29 g/m*3 6.63 C 2 km/h
249 17-01-2014 11:00:00 8.075 C 7.62 g/m*3 8.07 C 2.66667 km/h
250 17-01-2014 12:00:00 9.18333 C 7.63 g/m*3 9.18 C 4.41667 km/h
Sensor: Nr:Datum:Temp:Abs-Feuchte:Windchill:Wind:
Aussen-T/F 251 17-01-2014 13:00:00 9.93333 C 7.76 g/m*3 9.93 C 0.8 km/h
252 17-01-2014 14:00:00 10.025 C 7.94 g/m*3 10.03 C 1.2 km/h
253 17-01-2014 15:00:00 9.28333 C 8.02 g/m*3 9.28 C 2 km/h
254 17-01-2014 16:00:00 8.51667 C 7.54 g/m*3 8.52 C 3.2 km/h
255 17-01-2014 17:00:00 6.68333 C 6.89 g/m*3 6.68 C 3.46667 km/h
256 17-01-2014 18:00:00 6.01667 C 6.76 g/m*3 6.02 C 2.93333 km/h
257 17-01-2014 19:00:00 5.55833 C 6.6 g/m*3 5.56 C 3.06667 km/h
258 17-01-2014 20:00:00 5.21667 C 6.44 g/m*3 5.22 C 3.33333 km/h
259 17-01-2014 21:00:00 4.85833 C 6.28 g/m*3 4.86 C 3.6 km/h
260 17-01-2014 22:00:00 4.54167 C 6.2 g/m*3 4.54 C 3.33333 km/h
261 17-01-2014 23:00:00 4.2 C 6.08 g/m*3 4.2 C 2.66667 km/h
262 18-01-2014 00:00:00 3.775 C 5.93 g/m*3 3.78 C 2.53333 km/h
263 18-01-2014 01:00:00 3.525 C 5.85 g/m*3 3.53 C 1.73333 km/h
264 18-01-2014 02:00:00 3.00833 C 5.65 g/m*3 3.01 C 0.66667 km/h
265 18-01-2014 03:00:00 2.825 C 5.64 g/m*3 2.83 C 0.13333 km/h
266 18-01-2014 04:00:00 2.60833 C 5.56 g/m*3 2.61 C 0.53333 km/h
267 18-01-2014 05:00:00 1.90833 C 5.3 g/m*3 1.91 C 0.4 km/h
268 18-01-2014 06:00:00 1.93333 C 5.36 g/m*3 1.93 C 1.74167 km/h
269 18-01-2014 07:00:00 2.675 C 5.62 g/m*3 2.68 C 1.06667 km/h
270 18-01-2014 08:00:00 4.2 C 6 g/m*3 2.07 C 8.46667 km/h
271 18-01-2014 09:00:00 4.78333 C 5.96 g/m*3 3.46 C 6.03333 km/h
272 18-01-2014 10:00:00 4.98333 C 6.02 g/m*3 3.6 C 6.30833 km/h
273 18-01-2014 11:00:00 5.91667 C 6.79 g/m*3 4.72 C 6.16667 km/h
274 18-01-2014 12:00:00 6.9 C 6.54 g/m*3 6.9 C 2.4 km/h
275 18-01-2014 13:00:00 7.56667 C 6.59 g/m*3 7.57 C 3.33333 km/h
Sensor: Nr:Datum:Temp:Abs-Feuchte:Windchill:Wind:
Aussen-T/F 276 18-01-2014 14:00:00 7.95556 C 6.64 g/m*3 7.96 C 4.44444 km/h
277 18-01-2014 15:00:00 7.825 C 6.72 g/m*3 7.83 C 2.14167 km/h
278 18-01-2014 16:00:00 6.875 C 6.53 g/m*3 6.88 C 2 km/h
279 18-01-2014 17:00:00 5.79167 C 6.18 g/m*3 5.79 C 3.06667 km/h
280 18-01-2014 18:00:00 5.80833 C 6.04 g/m*3 5.81 C 3.46667 km/h
281 18-01-2014 19:00:00 6.04167 C 6.03 g/m*3 5.19 C 5.2 km/h
282 18-01-2014 20:00:00 5.04167 C 5.96 g/m*3 5.04 C 2.93333 km/h
283 18-01-2014 21:00:00 3.34167 C 5.58 g/m*3 3.34 C 1.2 km/h
284 18-01-2014 22:00:00 2.9 C 5.57 g/m*3 2.9 C 1.46667 km/h
285 18-01-2014 23:00:00 3.70833 C 5.88 g/m*3 3.71 C 0.13333 km/h
286 19-01-2014 00:00:00 4.18333 C 6.05 g/m*3 4.18 C 0.26667 km/h
287 19-01-2014 01:00:00 4.41667 C 6.13 g/m*3 4.42 C 0 km/h
288 19-01-2014 02:00:00 4.65833 C 6.13 g/m*3 4.66 C 1.2 km/h
289 19-01-2014 03:00:00 4.46667 C 5.99 g/m*3 4.47 C 1.86667 km/h
290 19-01-2014 04:00:00 4.2 C 5.94 g/m*3 4.2 C 0.13333 km/h
291 19-01-2014 05:00:00 4.15 C 5.97 g/m*3 4.15 C 0 km/h
292 19-01-2014 06:00:00 4.125 C 5.96 g/m*3 4.13 C 0.4 km/h
293 19-01-2014 07:00:00 3.99167 C 5.9 g/m*3 3.99 C 0.13333 km/h
294 19-01-2014 08:00:00 3.68333 C 5.82 g/m*3 3.68 C 0 km/h
295 19-01-2014 09:00:00 4.06667 C 6 g/m*3 4.07 C 0.53333 km/h
296 19-01-2014 10:00:00 5.025 C 6.18 g/m*3 3.61 C 6.43333 km/h
297 19-01-2014 11:00:00 5.625 C 6.31 g/m*3 4.39 C 6.16667 km/h
298 19-01-2014 12:00:00 6.2 C 6.4 g/m*3 6.2 C 3.46667 km/h
299 19-01-2014 13:00:00 6.775 C 6.59 g/m*3 6.78 C 0.93333 km/h
300 19-01-2014 14:00:00 7.1 C 6.65 g/m*3 5.93 C 6.7 km/h
Sensor: Nr:Datum:Temp:Abs-Feuchte:Windchill:Wind:
Aussen-T/F 301 19-01-2014 15:00:00 7.24167 C 6.64 g/m*3 7.24 C 4.40833 km/h
302 19-01-2014 16:00:00 5.74 C 6.92 g/m*3 5.74 C 0.32 km/h
303 19-01-2014 17:00:00 4.20833 C 6 g/m*3 4.21 C 0.8 km/h
304 19-01-2014 18:00:00 3.81667 C 5.93 g/m*3 3.82 C 0.13333 km/h
305 19-01-2014 19:00:00 3.68333 C 5.91 g/m*3 3.68 C 0.13333 km/h
306 19-01-2014 20:00:00 3.41667 C 5.81 g/m*3 3.42 C 1.06667 km/h
307 19-01-2014 21:00:00 3.38333 C 5.8 g/m*3 3.38 C 0 km/h
308 19-01-2014 22:00:00 3.60833 C 5.88 g/m*3 3.61 C 0 km/h
309 19-01-2014 23:00:00 3.79167 C 5.96 g/m*3 3.79 C 0 km/h
310 20-01-2014 00:00:00 4.06667 C 6.07 g/m*3 4.07 C 0 km/h
311 20-01-2014 01:00:00 4.2 C 6.12 g/m*3 4.2 C 0.26667 km/h
312 20-01-2014 02:00:00 4.2 C 6.06 g/m*3 4.2 C 0.4 km/h
313 20-01-2014 03:00:00 4.2 C 6.06 g/m*3 4.2 C 0 km/h
314 20-01-2014 04:00:00 4.275 C 6.14 g/m*3 4.28 C 0 km/h
315 20-01-2014 05:00:00 4.3 C 6.1 g/m*3 4.3 C 0 km/h
316 20-01-2014 06:00:00 4.3 C 6.1 g/m*3 4.3 C 0 km/h
317 20-01-2014 07:00:00 4.29167 C 6.15 g/m*3 4.29 C 0 km/h
318 20-01-2014 08:00:00 4.2 C 6.12 g/m*3 4.2 C 0 km/h
319 20-01-2014 09:00:00 4.2625 C 6.21 g/m*3 4.26 C 0 km/h
320 20-01-2014 10:00:00 4.36667 C 6.3 g/m*3 4.37 C 0 km/h
321 20-01-2014 11:00:00 4.61 C 6.42 g/m*3 4.61 C 0.48 km/h
322 20-01-2014 12:00:00 4.8 C 6.44 g/m*3 4.8 C 1.14286 km/h
323 20-01-2014 13:00:00 4.79167 C 6.43 g/m*3 4.79 C 1.33333 km/h
324 20-01-2014 14:00:00 4.7 C 6.32 g/m*3 4.7 C 2.93333 km/h
325 20-01-2014 15:00:00 4.61667 C 6.23 g/m*3 4.62 C 1.73333 km/h
Sensor: Nr:Datum:Temp:Abs-Feuchte:Windchill:Wind:
Aussen-T/F 326 20-01-2014 16:00:00 4.58333 C 6.21 g/m*3 4.58 C 0.66667 km/h
327 20-01-2014 17:00:00 4.55 C 6.16 g/m*3 4.55 C 1.86667 km/h
328 20-01-2014 18:00:00 4.61667 C 6.13 g/m*3 4.62 C 1.73333 km/h
329 20-01-2014 19:00:00 4.425 C 6.04 g/m*3 3.2 C 5.60833 km/h
330 20-01-2014 20:00:00 4.125 C 5.99 g/m*3 4.13 C 0.8 km/h
331 20-01-2014 21:00:00 3.95 C 5.99 g/m*3 3.95 C 0.13333 km/h
332 20-01-2014 22:00:00 3.80833 C 6.02 g/m*3 3.81 C 0.53333 km/h
333 20-01-2014 23:00:00 3.76667 C 6.01 g/m*3 3.77 C 3.06667 km/h
334 21-01-2014 00:00:00 3.61667 C 5.95 g/m*3 3.62 C 1.33333 km/h
335 21-01-2014 01:00:00 3.49167 C 5.88 g/m*3 3.49 C 2.93333 km/h
336 21-01-2014 02:00:00 3.4 C 5.67 g/m*3 1.06 C 8.74167 km/h
337 21-01-2014 03:00:00 3.16667 C 5.58 g/m*3 1.12 C 7.51667 km/h
338 21-01-2014 04:00:00 2.94167 C 5.51 g/m*3 1.2 C 6.43333 km/h
339 21-01-2014 05:00:00 2.88333 C 5.46 g/m*3 2.88 C 4.13333 km/h
340 21-01-2014 06:00:00 2.88333 C 5.4 g/m*3 2.88 C 3.875 km/h
341 21-01-2014 07:00:00 2.83333 C 5.39 g/m*3 2.83 C 4.55833 km/h
342 21-01-2014 08:00:00 2.7 C 5.42 g/m*3 2.7 C 3.88333 km/h
343 21-01-2014 09:00:00 2.80833 C 5.52 g/m*3 2.81 C 1.86667 km/h
344 21-01-2014 10:00:00 3.11667 C 5.55 g/m*3 3.12 C 2.66667 km/h
345 21-01-2014 11:00:00 3.3 C 5.63 g/m*3 3.3 C 2.80833 km/h
346 21-01-2014 12:00:00 3.38333 C 5.68 g/m*3 3.38 C 0.4 km/h
347 21-01-2014 13:00:00 3.875 C 5.76 g/m*3 3.88 C 0.93333 km/h
348 21-01-2014 14:00:00 4.175 C 5.85 g/m*3 4.18 C 0.93333 km/h
349 21-01-2014 15:00:00 4.23333 C 5.87 g/m*3 4.23 C 0.53333 km/h
350 21-01-2014 16:00:00 4.01667 C 5.9 g/m*3 4.02 C 0 km/h
Sensor: Nr:Datum:Temp:Abs-Feuchte:Windchill:Wind:
Aussen-T/F 351 21-01-2014 17:00:00 3.83333 C 5.94 g/m*3 3.83 C 0 km/h
352 21-01-2014 18:00:00 3.8 C 6.01 g/m*3 3.8 C 0 km/h
353 21-01-2014 19:00:00 3.9 C 6.06 g/m*3 3.9 C 0 km/h
354 21-01-2014 20:00:00 3.975 C 6.09 g/m*3 3.98 C 0 km/h
355 21-01-2014 21:00:00 3.9 C 6.06 g/m*3 3.9 C 0 km/h
356 21-01-2014 22:00:00 3.9 C 6.06 g/m*3 3.9 C 0 km/h
357 21-01-2014 23:00:00 3.81667 C 6.03 g/m*3 3.82 C 0 km/h
358 22-01-2014 00:00:00 3.825 C 6.04 g/m*3 3.83 C 0 km/h
359 22-01-2014 01:00:00 3.91667 C 6.07 g/m*3 3.92 C 0 km/h
360 22-01-2014 02:00:00 4 C 6.17 g/m*3 4 C 0 km/h
361 22-01-2014 03:00:00 4.025 C 6.18 g/m*3 4.03 C 0 km/h
362 22-01-2014 04:00:00 4.05833 C 6.18 g/m*3 4.06 C 0.66667 km/h
363 22-01-2014 05:00:00 3.825 C 6.02 g/m*3 3.83 C 1.33333 km/h
364 22-01-2014 06:00:00 3.58333 C 5.77 g/m*3 2.34 C 5.35 km/h
365 22-01-2014 07:00:00 3.41667 C 5.64 g/m*3 3.42 C 4.28333 km/h
366 22-01-2014 08:00:00 3.35 C 5.64 g/m*3 3.35 C 2 km/h
367 22-01-2014 12:00:00 4.8 C 5.9 g/m*3 3.73 C 5.33333 km/h
368 22-01-2014 16:00:00 3.4 C 5.8 g/m*3 3.4 C 0.8 km/h
369 22-01-2014 17:00:00 2.975 C 5.63 g/m*3 2.98 C 2.26667 km/h
370 22-01-2014 18:00:00 2.66667 C 5.52 g/m*3 2.67 C 2.4 km/h
371 22-01-2014 19:00:00 2.25 C 5.41 g/m*3 2.25 C 1.33333 km/h
372 22-01-2014 20:00:00 1.73333 C 5.24 g/m*3 1.73 C 0 km/h
373 22-01-2014 21:00:00 1.55833 C 5.21 g/m*3 1.56 C 0.26667 km/h
374 22-01-2014 22:00:00 1.82222 C 5.33 g/m*3 1.82 C 0 km/h
375 23-01-2014 09:00:00 3.48 C 5.71 g/m*3 2.31 C 5.12 km/h
Sensor: Nr:Datum:Temp:Abs-Feuchte:Windchill:Wind:
Aussen-T/F 376 23-01-2014 10:00:00 3.65714 C 5.72 g/m*3 1.54 C 8.05714 km/h
377 23-01-2014 11:00:00 3.8 C 5.65 g/m*3 0.78 C 12.1 km/h
378 23-01-2014 12:00:00 4.26667 C 5.65 g/m*3 1.32 C 12.23333 km/h
379 23-01-2014 13:00:00 4.38333 C 5.62 g/m*3 2.33 C 8.31667 km/h
380 23-01-2014 14:00:00 4.325 C 5.55 g/m*3 2.63 C 6.975 km/h
381 23-01-2014 15:00:00 4.59167 C 5.69 g/m*3 3.39 C 5.61667 km/h
382 23-01-2014 16:00:00 4.24167 C 5.85 g/m*3 4.24 C 3.06667 km/h
383 23-01-2014 17:00:00 3.28333 C 5.68 g/m*3 3.28 C 0.4 km/h
384 23-01-2014 18:00:00 2.83333 C 5.61 g/m*3 2.83 C 0.26667 km/h
385 23-01-2014 19:00:00 3.14167 C 5.79 g/m*3 3.14 C 0.66667 km/h
386 23-01-2014 20:00:00 3.3 C 5.88 g/m*3 3.3 C 1.06667 km/h
387 23-01-2014 21:00:00 3.35 C 5.9 g/m*3 3.35 C 0 km/h
388 23-01-2014 22:00:00 3.54167 C 5.98 g/m*3 3.54 C 0.26667 km/h
389 23-01-2014 23:00:00 3.59167 C 6 g/m*3 3.59 C 0.53333 km/h
390 24-01-2014 00:00:00 3.05833 C 5.75 g/m*3 1.63 C 5.625 km/h
391 24-01-2014 01:00:00 3.025 C 5.72 g/m*3 3.03 C 3.33333 km/h
392 24-01-2014 02:00:00 3.85 C 5.95 g/m*3 1.27 C 10.05833 km/h
393 24-01-2014 03:00:00 4.25 C 5.99 g/m*3 2.46 C 7.25833 km/h
394 24-01-2014 04:00:00 4.3 C 5.96 g/m*3 3.11 C 5.475 km/h
395 24-01-2014 05:00:00 4.29167 C 5.92 g/m*3 3 C 5.75 km/h
396 24-01-2014 06:00:00 4.275 C 5.9 g/m*3 2.75 C 6.43333 km/h
397 24-01-2014 07:00:00 3.825 C 5.8 g/m*3 3.83 C 4.4 km/h
398 24-01-2014 08:00:00 3.83333 C 5.76 g/m*3 3.83 C 4.275 km/h
399 24-01-2014 09:00:00 3.95 C 5.84 g/m*3 3.95 C 0.93333 km/h
400 24-01-2014 10:00:00 4.23636 C 5.96 g/m*3 4.24 C 1.01818 km/h
Sensor: Nr:Datum:Temp:Abs-Feuchte:Windchill:Wind:
Aussen-T/F 401 24-01-2014 12:00:00 4.8 C 5.98 g/m*3 4.8 C 1.6 km/h
402 24-01-2014 13:00:00 4.8 C 6.04 g/m*3 4.8 C 1.6 km/h
403 24-01-2014 14:00:00 4.7 C 6 g/m*3 4.7 C 1.2 km/h
404 24-01-2014 15:00:00 4.7 C 6 g/m*3 4.7 C 1.92 km/h
405 24-01-2014 17:00:00 4.1 C 6.08 g/m*3 4.1 C 0.32 km/h
406 24-01-2014 18:00:00 4.1 C 6.08 g/m*3 4.1 C 0 km/h
407 24-01-2014 19:00:00 3.94167 C 6.02 g/m*3 3.94 C 0 km/h
408 24-01-2014 20:00:00 3.85833 C 6 g/m*3 3.86 C 0 km/h
409 24-01-2014 21:00:00 3.66667 C 5.95 g/m*3 3.67 C 0 km/h
410 24-01-2014 22:00:00 3.5 C 5.9 g/m*3 3.5 C 0 km/h
411 24-01-2014 23:00:00 3.20833 C 5.79 g/m*3 3.21 C 0 km/h
412 25-01-2014 00:00:00 3.14167 C 5.76 g/m*3 3.14 C 0 km/h
413 25-01-2014 01:00:00 3.1 C 5.75 g/m*3 3.1 C 0.13333 km/h
414 25-01-2014 02:00:00 3.18333 C 5.78 g/m*3 3.18 C 0 km/h
415 25-01-2014 03:00:00 2.575 C 5.54 g/m*3 2.58 C 0.66667 km/h
416 25-01-2014 04:00:00 1.5 C 5.16 g/m*3 1.5 C 0.8 km/h
417 25-01-2014 05:00:00 1.80833 C 5.32 g/m*3 1.81 C 1.2 km/h
418 25-01-2014 06:00:00 2.325 C 5.51 g/m*3 2.33 C 0.13333 km/h
419 25-01-2014 07:00:00 2.29167 C 5.5 g/m*3 2.29 C 0.13333 km/h
420 25-01-2014 08:00:00 1.93333 C 5.36 g/m*3 1.93 C 0 km/h
421 25-01-2014 09:00:00 2.175 C 5.44 g/m*3 2.17 C 3.6 km/h
422 25-01-2014 10:00:00 2.525 C 5.5 g/m*3 2.53 C 1.2 km/h
423 25-01-2014 11:00:00 3.18333 C 5.66 g/m*3 3.18 C 2.26667 km/h
424 25-01-2014 12:00:00 3.775 C 5.78 g/m*3 3.78 C 3.33333 km/h
425 25-01-2014 13:00:00 4.41667 C 5.88 g/m*3 4.42 C 4.66667 km/h
Sensor: Nr:Datum:Temp:Abs-Feuchte:Windchill:Wind:
Aussen-T/F 426 25-01-2014 14:00:00 4.8 C 5.97 g/m*3 4.8 C 4.4 km/h
427 25-01-2014 17:00:00 3.22 C 5.62 g/m*3 3.22 C 2.88 km/h
428 25-01-2014 18:00:00 3.2375 C 5.6 g/m*3 3.24 C 0.8 km/h
429 25-01-2014 22:00:00 3.6 C 5.36 g/m*3 1.06 C 9.66667 km/h
430 25-01-2014 23:00:00 3.00833 C 5.44 g/m*3 -0.38 C 13.15 km/h
431 26-01-2014 00:00:00 3.01667 C 5.52 g/m*3 -0.54 C 14.1 km/h
432 26-01-2014 01:00:00 3.4 C 5.71 g/m*3 0.82 C 9.675 km/h
433 26-01-2014 02:00:00 4.28333 C 5.9 g/m*3 1.91 C 9.54167 km/h
434 26-01-2014 03:00:00 5.04167 C 5.9 g/m*3 1.5 C 17.03333 km/h
435 26-01-2014 04:00:00 5.35833 C 5.89 g/m*3 1.84 C 17.44167 km/h
436 26-01-2014 05:00:00 5.9 C 5.76 g/m*3 2.07 C 21.16667 km/h
437 26-01-2014 06:00:00 6.01667 C 5.77 g/m*3 2.1 C 22.25833 km/h
438 26-01-2014 07:00:00 6.025 C 5.76 g/m*3 2.95 C 15.43333 km/h
439 26-01-2014 08:00:00 5.8 C 5.74 g/m*3 3.68 C 9.68333 km/h
440 26-01-2014 09:00:00 5.65 C 5.71 g/m*3 2.77 C 13.56667 km/h
441 26-01-2014 10:00:00 5.65833 C 5.72 g/m*3 2.66 C 14.36667 km/h
442 26-01-2014 11:00:00 5.83333 C 5.68 g/m*3 3 C 13.56667 km/h
443 26-01-2014 12:00:00 6.06 C 5.58 g/m*3 3.55 C 11.94 km/h
444 26-01-2014 13:00:00 6.15 C 5.56 g/m*3 3.63 C 12.09167 km/h
445 26-01-2014 14:00:00 6.2 C 5.47 g/m*3 3.99 C 10.48333 km/h
446 26-01-2014 15:00:00 6.16667 C 5.45 g/m*3 4.52 C 7.93333 km/h
447 26-01-2014 16:00:00 5.78333 C 5.34 g/m*3 5.78 C 4.14167 km/h
448 26-01-2014 17:00:00 5.5 C 5.38 g/m*3 4.42 C 5.625 km/h
449 26-01-2014 18:00:00 5.2 C 5.51 g/m*3 5.2 C 1.86667 km/h
450 26-01-2014 19:00:00 4.84167 C 5.68 g/m*3 4.84 C 3.06667 km/h
Sensor: Nr:Datum:Temp:Abs-Feuchte:Windchill:Wind:
Aussen-T/F 451 26-01-2014 20:00:00 4.3 C 5.9 g/m*3 4.3 C 4.13333 km/h
452 26-01-2014 21:00:00 3.75833 C 5.85 g/m*3 3.76 C 2.66667 km/h
453 26-01-2014 22:00:00 3.66667 C 5.84 g/m*3 3.67 C 3.2 km/h
454 26-01-2014 23:00:00 3.78333 C 5.9 g/m*3 3.78 C 4.41667 km/h
455 27-01-2014 00:00:00 4.1 C 5.97 g/m*3 4.1 C 4.83333 km/h
456 27-01-2014 01:00:00 4.24167 C 6.13 g/m*3 4.24 C 3.2 km/h
457 27-01-2014 02:00:00 4.31667 C 6.16 g/m*3 3.03 C 5.75 km/h
458 27-01-2014 03:00:00 5 C 6.25 g/m*3 2.73 C 9.68333 km/h
459 27-01-2014 04:00:00 4.19167 C 5.94 g/m*3 4.19 C 4.55833 km/h
460 27-01-2014 05:00:00 4.28333 C 5.93 g/m*3 2.8 C 6.3 km/h
461 27-01-2014 06:00:00 4.11667 C 5.77 g/m*3 4.12 C 4 km/h
462 27-01-2014 07:00:00 3.14167 C 5.54 g/m*3 3.14 C 3.2 km/h
463 27-01-2014 08:00:00 3.94167 C 5.5 g/m*3 1.73 C 8.59167 km/h
464 27-01-2014 09:00:00 4.1 C 5.5 g/m*3 4.1 C 4.8 km/h
465 27-01-2014 12:00:00 5.12727 C 5.43 g/m*3 2.41 C 12.00909 km/h
466 27-01-2014 13:00:00 4.45833 C 5.64 g/m*3 2.52 C 7.91667 km/h
467 27-01-2014 14:00:00 5.08333 C 5.36 g/m*3 2.63 C 10.60833 km/h
468 27-01-2014 15:00:00 5.30833 C 5.31 g/m*3 3.7 C 7.25 km/h
469 27-01-2014 16:00:00 5.04167 C 5.33 g/m*3 5.04 C 4.55833 km/h
470 27-01-2014 17:00:00 4.25833 C 5.39 g/m*3 4.26 C 2.94167 km/h
471 27-01-2014 18:00:00 4.06364 C 5.33 g/m*3 4.06 C 2.47273 km/h
472 27-01-2014 21:00:00 4.4 C 6.53 g/m*3 2.53 C 7.65 km/h
473 28-01-2014 08:00:00 1.4 C 4.96 g/m*3 1.4 C 2.13333 km/h
474 28-01-2014 10:00:00 3.63333 C 5.25 g/m*3 3.63 C 4.3 km/h
475 28-01-2014 11:00:00 3.85833 C 5.3 g/m*3 2.5 C 5.75833 km/h
Sensor: Nr:Datum:Temp:Abs-Feuchte:Windchill:Wind:
Aussen-T/F 476 28-01-2014 12:00:00 5.125 C 5.28 g/m*3 3.02 C 9.0625 km/h
477 28-01-2014 16:00:00 6.6 C 5.66 g/m*3 5.78 C 5.33333 km/h
478 28-01-2014 17:00:00 3.7 C 5.42 g/m*3 3.7 C 3.2 km/h
479 28-01-2014 18:00:00 2.69167 C 5.21 g/m*3 2.69 C 3.46667 km/h
480 28-01-2014 19:00:00 1.925 C 5.02 g/m*3 1.93 C 3.33333 km/h
481 28-01-2014 20:00:00 1.46667 C 4.93 g/m*3 1.47 C 2.93333 km/h
482 28-01-2014 21:00:00 1.04167 C 4.84 g/m*3 1.04 C 2.66667 km/h
483 28-01-2014 22:00:00 0.80833 C 4.77 g/m*3 0.81 C 3.06667 km/h
484 28-01-2014 23:00:00 0.38333 C 4.72 g/m*3 0.38 C 3.2 km/h
485 29-01-2014 00:00:00 0.11667 C 4.62 g/m*3 0.12 C 2.8 km/h
486 29-01-2014 01:00:00 -0.20833 C 4.53 g/m*3 -0.21 C 3.06667 km/h
487 29-01-2014 02:00:00 0.20833 C 4.69 g/m*3 0.21 C 2.53333 km/h
488 29-01-2014 03:00:00 0.2 C 4.67 g/m*3 0.2 C 3.2 km/h
489 29-01-2014 04:00:00 1.2 C 4.87 g/m*3 1.2 C 2.66667 km/h
490 29-01-2014 05:00:00 1.36667 C 4.84 g/m*3 1.37 C 2.66667 km/h
491 29-01-2014 07:00:00 1.62222 C 4.73 g/m*3 1.62 C 2.66667 km/h
492 29-01-2014 08:00:00 1.76667 C 4.74 g/m*3 1.77 C 2.53333 km/h
493 29-01-2014 09:00:00 2.05 C 4.74 g/m*3 0.17 C 6.43333 km/h
494 29-01-2014 13:00:00 4.06667 C 4.81 g/m*3 1.75 C 9.13333 km/h
495 29-01-2014 14:00:00 3.86667 C 4.64 g/m*3 2.65 C 5.36667 km/h
496 29-01-2014 15:00:00 3.8 C 4.64 g/m*3 3.8 C 3.2 km/h
497 29-01-2014 16:00:00 2.9 C 4.49 g/m*3 -0.46 C 12.9 km/h
498 29-01-2014 17:00:00 2.625 C 4.48 g/m*3 2.63 C 3.6 km/h
499 29-01-2014 18:00:00 2.01667 C 4.54 g/m*3 2.02 C 1.06667 km/h
500 29-01-2014 19:00:00 1.78333 C 4.54 g/m*3 1.78 C 3.33333 km/h
Sensor: Nr:Datum:Temp:Abs-Feuchte:Windchill:Wind:
Aussen-T/F 501 29-01-2014 20:00:00 2.23333 C 4.5 g/m*3 2.23 C 4.025 km/h
502 29-01-2014 21:00:00 1.925 C 4.48 g/m*3 1.93 C 2.53333 km/h
503 29-01-2014 22:00:00 1.86667 C 4.52 g/m*3 1.87 C 1.86667 km/h
504 29-01-2014 23:00:00 1.475 C 4.55 g/m*3 1.48 C 1.6 km/h
505 30-01-2014 00:00:00 2.03333 C 4.57 g/m*3 2.03 C 1.86667 km/h
506 30-01-2014 01:00:00 1.79167 C 4.6 g/m*3 1.79 C 0.26667 km/h
507 30-01-2014 02:00:00 1.875 C 4.61 g/m*3 1.88 C 0.8 km/h
508 30-01-2014 03:00:00 1.9 C 4.56 g/m*3 1.9 C 0.8 km/h
509 30-01-2014 04:00:00 1.89167 C 4.53 g/m*3 1.89 C 1.86667 km/h
510 30-01-2014 05:00:00 1.89167 C 4.56 g/m*3 1.89 C 0.13333 km/h
511 30-01-2014 06:00:00 1.35833 C 4.51 g/m*3 1.36 C 0.66667 km/h
512 30-01-2014 07:00:00 0.18333 C 4.31 g/m*3 0.18 C 1.46667 km/h
513 30-01-2014 08:00:00 0.56667 C 4.45 g/m*3 0.57 C 0.26667 km/h
514 30-01-2014 09:00:00 1.225 C 4.48 g/m*3 1.23 C 0.93333 km/h
515 30-01-2014 10:00:00 2.10833 C 4.54 g/m*3 2.11 C 2.93333 km/h
516 30-01-2014 11:00:00 3.06667 C 4.63 g/m*3 3.07 C 4 km/h
517 30-01-2014 12:00:00 3.35 C 4.74 g/m*3 3.35 C 3.46667 km/h
518 30-01-2014 13:00:00 4.10833 C 4.95 g/m*3 4.11 C 4.41667 km/h
519 30-01-2014 14:00:00 5.35833 C 5.1 g/m*3 5.36 C 3.6 km/h
520 30-01-2014 15:00:00 4.78333 C 5.36 g/m*3 4.78 C 1.06667 km/h
521 30-01-2014 16:00:00 4.33333 C 5.37 g/m*3 4.33 C 1.2 km/h
522 30-01-2014 17:00:00 2.51667 C 4.97 g/m*3 2.52 C 2.4 km/h
523 30-01-2014 18:00:00 1.54167 C 4.78 g/m*3 1.54 C 2.93333 km/h
524 30-01-2014 19:00:00 0.91667 C 4.64 g/m*3 0.92 C 2.93333 km/h
525 30-01-2014 20:00:00 0.58333 C 4.54 g/m*3 0.58 C 2.53333 km/h
Sensor: Nr:Datum:Temp:Abs-Feuchte:Windchill:Wind:
Aussen-T/F 526 30-01-2014 21:00:00 0.225 C 4.43 g/m*3 0.23 C 1.46667 km/h
527 30-01-2014 22:00:00 0 C 4.41 g/m*3 0 C 1.06667 km/h
528 30-01-2014 23:00:00 0.05833 C 4.48 g/m*3 0.06 C 0 km/h
529 31-01-2014 00:00:00 0.23333 C 4.53 g/m*3 0.23 C 0 km/h
530 31-01-2014 01:00:00 0.33333 C 4.53 g/m*3 0.33 C 0 km/h
531 31-01-2014 02:00:00 0.225 C 4.49 g/m*3 0.23 C 0 km/h
532 31-01-2014 03:00:00 -0.01667 C 4.42 g/m*3 -0.02 C 0 km/h
533 31-01-2014 04:00:00 0.275 C 4.49 g/m*3 0.28 C 0 km/h
534 31-01-2014 05:00:00 0.13333 C 4.45 g/m*3 0.13 C 0.26667 km/h
535 31-01-2014 06:00:00 -0.28333 C 4.36 g/m*3 -0.28 C 0.26667 km/h
536 31-01-2014 07:00:00 -0.95 C 4.23 g/m*3 -0.95 C 0.13333 km/h
537 31-01-2014 08:00:00 -1.15 C 4.18 g/m*3 -1.15 C 0 km/h
538 31-01-2014 09:00:00 -1.06667 C 4.23 g/m*3 -1.07 C 0 km/h
539 31-01-2014 10:00:00 -0.5 C 4.41 g/m*3 -0.5 C 0 km/h
540 31-01-2014 11:00:00 0.35 C 4.65 g/m*3 0.35 C 1.2 km/h
541 31-01-2014 12:00:00 1.35833 C 4.88 g/m*3 1.36 C 1.6 km/h
542 31-01-2014 13:00:00 2.15833 C 5.06 g/m*3 2.16 C 1.86667 km/h
543 31-01-2014 14:00:00 2.91667 C 5.29 g/m*3 2.92 C 2.53333 km/h
544 31-01-2014 15:00:00 3.65833 C 5.45 g/m*3 3.66 C 2.8 km/h
545 31-01-2014 16:00:00 3.95833 C 5.43 g/m*3 3.96 C 4.275 km/h
546 31-01-2014 17:00:00 3.3 C 5.21 g/m*3 3.3 C 4.95833 km/h
547 31-01-2014 18:00:00 1.95833 C 4.99 g/m*3 1.96 C 3.33333 km/h
548 31-01-2014 19:00:00 1.39167 C 4.9 g/m*3 1.39 C 2.93333 km/h
549 31-01-2014 20:00:00 1.64167 C 5 g/m*3 1.64 C 4.28333 km/h
550 31-01-2014 21:00:00 2.63333 C 5.12 g/m*3 0.75 C 6.71667 km/h
Sensor: Nr:Datum:Temp:Abs-Feuchte:Windchill:Wind:
Aussen-T/F 551 31-01-2014 22:00:00 1.425 C 4.89 g/m*3 1.43 C 2.66667 km/h
552 31-01-2014 23:00:00 0.93333 C 4.82 g/m*3 0.93 C 1.6 km/h
553 01-02-2014 00:00:00 1.06667 C 4.89 g/m*3 1.07 C 0.93333 km/h
554 01-02-2014 01:00:00 1.29167 C 4.97 g/m*3 1.29 C 1.46667 km/h
555 01-02-2014 02:00:00 1.9 C 5.09 g/m*3 1.9 C 3.60833 km/h
556 01-02-2014 03:00:00 2.20833 C 5.14 g/m*3 2.21 C 2.53333 km/h
557 01-02-2014 04:00:00 2.98333 C 5.32 g/m*3 2.98 C 4.53333 km/h
558 01-02-2014 05:00:00 3.48333 C 5.4 g/m*3 3.48 C 4.14167 km/h
559 01-02-2014 06:00:00 3.68333 C 5.49 g/m*3 3.68 C 3.6 km/h
560 01-02-2014 07:00:00 4.29167 C 5.54 g/m*3 4.29 C 4.275 km/h
561 01-02-2014 08:00:00 4.90833 C 5.56 g/m*3 3.84 C 5.35833 km/h
562 01-02-2014 09:00:00 5.66667 C 5.75 g/m*3 4.31 C 6.56667 km/h
563 01-02-2014 10:00:00 4.95833 C 6.18 g/m*3 4.96 C 2.8 km/h
564 01-02-2014 11:00:00 4.49167 C 6.14 g/m*3 4.49 C 2.26667 km/h
565 01-02-2014 12:00:00 5.28333 C 6.65 g/m*3 5.28 C 1.6 km/h
566 01-02-2014 13:00:00 6.35 C 6.75 g/m*3 4.04 C 11.15833 km/h
567 01-02-2014 14:00:00 6.58333 C 6.65 g/m*3 4.28 C 11.41667 km/h
568 01-02-2014 15:00:00 7 C 6.69 g/m*3 5 C 10.21667 km/h
569 01-02-2014 16:00:00 6.90833 C 6.7 g/m*3 6.22 C 5.08333 km/h
570 01-02-2014 17:00:00 6.45833 C 6.66 g/m*3 5.71 C 5.08333 km/h
571 01-02-2014 18:00:00 6.25 C 6.59 g/m*3 5.47 C 5.09167 km/h
572 01-02-2014 19:00:00 5.88333 C 6.55 g/m*3 5.88 C 1.73333 km/h
573 01-02-2014 20:00:00 5.65833 C 6.51 g/m*3 5.66 C 1.33333 km/h
574 01-02-2014 21:00:00 5.125 C 6.31 g/m*3 5.13 C 1.2 km/h
575 01-02-2014 22:00:00 4.70833 C 6.12 g/m*3 4.71 C 2.26667 km/h
Sensor: Nr:Datum:Temp:Abs-Feuchte:Windchill:Wind:
Aussen-T/F 576 01-02-2014 23:00:00 4.175 C 6 g/m*3 4.18 C 1.86667 km/h
577 02-02-2014 00:00:00 3.80833 C 5.9 g/m*3 3.81 C 0.13333 km/h
578 02-02-2014 01:00:00 3.79167 C 5.96 g/m*3 3.79 C 0.13333 km/h
579 02-02-2014 02:00:00 3.70833 C 5.92 g/m*3 3.71 C 0 km/h
580 02-02-2014 03:00:00 3.70833 C 5.94 g/m*3 3.71 C 0.4 km/h
581 02-02-2014 04:00:00 3.86667 C 5.99 g/m*3 3.87 C 0.93333 km/h
582 02-02-2014 05:00:00 4.70833 C 6.23 g/m*3 4.71 C 3.75 km/h
583 02-02-2014 06:00:00 5.2 C 6.26 g/m*3 5.2 C 1.73333 km/h
584 02-02-2014 07:00:00 4.44167 C 6.07 g/m*3 4.44 C 1.33333 km/h
585 02-02-2014 08:00:00 3.3 C 5.73 g/m*3 3.3 C 1.6 km/h
586 02-02-2014 09:00:00 3.96667 C 6.05 g/m*3 3.97 C 0.66667 km/h
587 02-02-2014 10:00:00 4.41667 C 6.13 g/m*3 4.42 C 0.93333 km/h
588 02-02-2014 11:00:00 5.53333 C 6.14 g/m*3 4.24 C 6.31667 km/h
589 02-02-2014 12:00:00 5.84167 C 6.09 g/m*3 5.84 C 4.40833 km/h
590 02-02-2014 13:00:00 6.18333 C 6.13 g/m*3 5.03 C 6.15833 km/h
591 02-02-2014 14:00:00 7.48333 C 6.14 g/m*3 5.61 C 10.08333 km/h
592 02-02-2014 15:00:00 7.84167 C 6.08 g/m*3 6.11 C 9.7 km/h
593 02-02-2014 16:00:00 6.43333 C 5.92 g/m*3 5.44 C 5.775 km/h
594 02-02-2014 17:00:00 4.48333 C 5.6 g/m*3 4.48 C 3.6 km/h
595 02-02-2014 18:00:00 3.20833 C 5.37 g/m*3 3.21 C 3.73333 km/h
596 02-02-2014 19:00:00 2.53333 C 5.27 g/m*3 2.53 C 1.86667 km/h
597 02-02-2014 20:00:00 1.975 C 5.15 g/m*3 1.98 C 0.53333 km/h
598 02-02-2014 21:00:00 1.69167 C 5.09 g/m*3 1.69 C 0.8 km/h
599 02-02-2014 22:00:00 1.00833 C 4.88 g/m*3 1.01 C 0 km/h
600 02-02-2014 23:00:00 0.3 C 4.68 g/m*3 0.3 C 0.4 km/h
Sensor: Nr:Datum:Temp:Abs-Feuchte:Windchill:Wind:
Aussen-T/F 601 03-02-2014 00:00:00 -0.03333 C 4.59 g/m*3 -0.03 C 0.4 km/h
602 03-02-2014 01:00:00 -0.49167 C 4.47 g/m*3 -0.49 C 0.26667 km/h
603 03-02-2014 02:00:00 -0.99167 C 4.34 g/m*3 -0.99 C 0 km/h
604 03-02-2014 03:00:00 -1.24167 C 4.27 g/m*3 -1.24 C 0 km/h
605 03-02-2014 04:00:00 -1.40833 C 4.22 g/m*3 -1.41 C 0.13333 km/h
606 03-02-2014 05:00:00 -1.70833 C 4.14 g/m*3 -1.71 C 0.4 km/h
607 03-02-2014 06:00:00 -1.8 C 4.15 g/m*3 -1.8 C 0.13333 km/h
608 03-02-2014 07:00:00 -1.80833 C 4.14 g/m*3 -1.81 C 0.8 km/h
609 03-02-2014 08:00:00 -1.86667 C 4.13 g/m*3 -1.87 C 0.13333 km/h
610 03-02-2014 09:00:00 -0.84167 C 4.46 g/m*3 -0.84 C 0.13333 km/h
611 03-02-2014 10:00:00 0.3 C 4.84 g/m*3 0.3 C 1.46667 km/h
612 03-02-2014 11:00:00 0.9 C 5.05 g/m*3 0.9 C 0.4 km/h
613 03-02-2014 12:00:00 1.80833 C 5.38 g/m*3 1.81 C 1.86667 km/h
614 03-02-2014 13:00:00 2.525 C 5.62 g/m*3 2.53 C 0.4 km/h
615 03-02-2014 14:00:00 2.91667 C 5.68 g/m*3 2.92 C 0 km/h
616 03-02-2014 15:00:00 3.23333 C 5.7 g/m*3 3.23 C 0.13333 km/h
617 03-02-2014 16:00:00 3.34167 C 5.72 g/m*3 3.34 C 0.13333 km/h
618 03-02-2014 17:00:00 3.25 C 5.72 g/m*3 3.25 C 0.13333 km/h
619 03-02-2014 18:00:00 3.25 C 5.74 g/m*3 3.25 C 0 km/h
620 03-02-2014 19:00:00 3.35833 C 5.77 g/m*3 3.36 C 0.4 km/h
621 03-02-2014 20:00:00 2.74167 C 5.47 g/m*3 2.74 C 2.53333 km/h
622 03-02-2014 21:00:00 2.41667 C 5.37 g/m*3 2.42 C 2.13333 km/h
623 03-02-2014 22:00:00 3.43333 C 5.58 g/m*3 1.96 C 5.9 km/h
624 03-02-2014 23:00:00 2.94167 C 5.39 g/m*3 2.94 C 3.34167 km/h
625 04-02-2014 00:00:00 2.73333 C 5.4 g/m*3 2.73 C 3.34167 km/h
Sensor: Nr:Datum:Temp:Abs-Feuchte:Windchill:Wind:
Aussen-T/F 626 04-02-2014 01:00:00 2.575 C 5.34 g/m*3 2.58 C 4.01667 km/h
627 04-02-2014 02:00:00 2.4 C 5.34 g/m*3 2.4 C 2 km/h
628 04-02-2014 03:00:00 2.44167 C 5.34 g/m*3 2.44 C 2.66667 km/h
629 04-02-2014 04:00:00 1.96667 C 5.22 g/m*3 1.97 C 2.8 km/h
630 04-02-2014 05:00:00 1.675 C 5.17 g/m*3 1.68 C 2.53333 km/h
631 04-02-2014 06:00:00 2.36667 C 5.43 g/m*3 2.37 C 2.53333 km/h
632 04-02-2014 07:00:00 2.825 C 5.58 g/m*3 2.83 C 2.80833 km/h
633 04-02-2014 08:00:00 3.3 C 5.7 g/m*3 3.3 C 1.86667 km/h
634 04-02-2014 09:00:00 4.95 C 5.87 g/m*3 4.95 C 4.80833 km/h
635 04-02-2014 10:00:00 5.95833 C 6.01 g/m*3 4.95 C 5.61667 km/h
636 04-02-2014 11:00:00 6.24167 C 6.08 g/m*3 5.02 C 6.43333 km/h
637 04-02-2014 12:00:00 6.84167 C 6.22 g/m*3 6.84 C 4.26667 km/h
638 04-02-2014 13:00:00 7.5 C 6.36 g/m*3 7.5 C 3.73333 km/h
639 04-02-2014 14:00:00 8.14167 C 6.56 g/m*3 8.14 C 2.8 km/h
640 04-02-2014 15:00:00 7.26667 C 6.73 g/m*3 7.27 C 1.6 km/h
641 04-02-2014 16:00:00 7.175 C 6.63 g/m*3 7.18 C 2 km/h
642 04-02-2014 17:00:00 5.8 C 6.28 g/m*3 5.8 C 3.33333 km/h
643 04-02-2014 18:00:00 5.26667 C 6.21 g/m*3 5.27 C 1.33333 km/h
644 04-02-2014 19:00:00 4.28333 C 5.88 g/m*3 4.28 C 2.40833 km/h
645 04-02-2014 20:00:00 3.48333 C 5.73 g/m*3 3.48 C 1.86667 km/h
646 04-02-2014 21:00:00 2.925 C 5.57 g/m*3 2.93 C 2.8 km/h
647 04-02-2014 22:00:00 2.51667 C 5.47 g/m*3 2.52 C 3.2 km/h
648 04-02-2014 23:00:00 2.275 C 5.42 g/m*3 2.28 C 2.66667 km/h
649 05-02-2014 00:00:00 2.25 C 5.43 g/m*3 2.25 C 2.8 km/h
650 05-02-2014 01:00:00 2.13333 C 5.38 g/m*3 2.13 C 2.66667 km/h
Sensor: Nr:Datum:Temp:Abs-Feuchte:Windchill:Wind:
Aussen-T/F 651 05-02-2014 02:00:00 2.1 C 5.37 g/m*3 2.1 C 3.33333 km/h
652 05-02-2014 03:00:00 2.66667 C 5.51 g/m*3 2.67 C 4.28333 km/h
653 05-02-2014 04:00:00 2.8 C 5.47 g/m*3 2.8 C 3.875 km/h
654 05-02-2014 05:00:00 3.05833 C 5.52 g/m*3 0.99 C 7.51667 km/h
655 05-02-2014 06:00:00 3.56667 C 5.5 g/m*3 1.18 C 9.00833 km/h
656 05-02-2014 07:00:00 3.44167 C 5.4 g/m*3 1.92 C 6.03333 km/h
657 05-02-2014 08:00:00 3.325 C 5.38 g/m*3 3.33 C 3.06667 km/h
658 05-02-2014 09:00:00 3.20833 C 5.61 g/m*3 3.21 C 1.46667 km/h
659 05-02-2014 10:00:00 3.89167 C 5.94 g/m*3 3.89 C 2 km/h
660 05-02-2014 11:00:00 4.93333 C 6.3 g/m*3 4.93 C 2.66667 km/h
661 05-02-2014 12:00:00 5.58333 C 6.36 g/m*3 5.58 C 3.6 km/h
662 05-02-2014 13:00:00 6.69167 C 6.46 g/m*3 5.71 C 5.875 km/h
663 05-02-2014 14:00:00 6.95 C 6.55 g/m*3 5.95 C 6.03333 km/h
664 05-02-2014 15:00:00 6.25 C 6.46 g/m*3 6.25 C 4.53333 km/h
665 05-02-2014 16:00:00 6.025 C 6.28 g/m*3 5.16 C 5.225 km/h
666 05-02-2014 17:00:00 5.80833 C 6.32 g/m*3 5.81 C 4.14167 km/h
667 05-02-2014 18:00:00 5.95 C 6.51 g/m*3 5.95 C 1.86667 km/h
668 05-02-2014 19:00:00 5.64167 C 6.42 g/m*3 5.64 C 1.86667 km/h
669 05-02-2014 20:00:00 5.43333 C 6.39 g/m*3 5.43 C 1.73333 km/h
670 05-02-2014 21:00:00 6.44167 C 6.49 g/m*3 5.63 C 5.23333 km/h
671 05-02-2014 22:00:00 7.8 C 6.43 g/m*3 6.12 C 9.39167 km/h
672 05-02-2014 23:00:00 7.86667 C 6.48 g/m*3 5.51 C 13.43333 km/h
673 06-02-2014 00:00:00 7.725 C 6.62 g/m*3 5.44 C 12.75833 km/h
674 06-02-2014 01:00:00 7.79167 C 6.77 g/m*3 5.42 C 13.41667 km/h
675 06-02-2014 02:00:00 8.125 C 6.86 g/m*3 6.01 C 12.21667 km/h
Sensor: Nr:Datum:Temp:Abs-Feuchte:Windchill:Wind:
Aussen-T/F 676 06-02-2014 03:00:00 8.29167 C 6.84 g/m*3 6.08 C 13.03333 km/h
677 06-02-2014 04:00:00 8.26667 C 6.84 g/m*3 6.04 C 13.15833 km/h
678 06-02-2014 05:00:00 8.05833 C 6.73 g/m*3 5.82 C 12.89167 km/h
679 06-02-2014 06:00:00 7.66667 C 6.45 g/m*3 5.16 C 14.09167 km/h
680 06-02-2014 07:00:00 7.05 C 6.28 g/m*3 5.09 C 10.08333 km/h
681 06-02-2014 08:00:00 6.73333 C 6.18 g/m*3 5.36 C 7.23333 km/h
682 06-02-2014 09:00:00 7.79167 C 6.38 g/m*3 6.53 C 7.51667 km/h
683 06-02-2014 10:00:00 8.44167 C 6.51 g/m*3 6.68 C 10.475 km/h
684 06-02-2014 11:00:00 8.85 C 6.51 g/m*3 6.17 C 17.7 km/h
685 06-02-2014 12:00:00 9.24167 C 6.48 g/m*3 6.81 C 16.36667 km/h
686 06-02-2014 13:00:00 9.93333 C 6.4 g/m*3 8.18 C 12.36667 km/h
687 06-02-2014 14:00:00 10.41667 C 6.46 g/m*3 9.38 C 8.59167 km/h
688 06-02-2014 15:00:00 10.20833 C 6.32 g/m*3 9.38 C 7.39167 km/h
689 06-02-2014 16:00:00 9.06667 C 6.51 g/m*3 9.07 C 2.53333 km/h
690 06-02-2014 17:00:00 8.66667 C 6.47 g/m*3 8.67 C 4.00833 km/h
691 06-02-2014 18:00:00 8.40833 C 6.54 g/m*3 8.41 C 4.15 km/h
692 06-02-2014 19:00:00 8.75 C 6.46 g/m*3 8.75 C 3.46667 km/h
693 06-02-2014 20:00:00 8.05 C 6.57 g/m*3 8.05 C 2.8 km/h
694 06-02-2014 21:00:00 8.45 C 6.19 g/m*3 7.57 C 6.43333 km/h
695 06-02-2014 22:00:00 8.04167 C 6.13 g/m*3 8.04 C 3.74167 km/h
696 06-02-2014 23:00:00 8.15833 C 6.45 g/m*3 8.16 C 4.40833 km/h
697 07-02-2014 00:00:00 7.64167 C 6.9 g/m*3 7.64 C 4.4 km/h
698 07-02-2014 01:00:00 7.76667 C 6.91 g/m*3 7.77 C 3.6 km/h
699 07-02-2014 02:00:00 8.025 C 6.82 g/m*3 8.03 C 4.14167 km/h
700 07-02-2014 03:00:00 8.2 C 6.84 g/m*3 8.2 C 4.55 km/h
Sensor: Nr:Datum:Temp:Abs-Feuchte:Windchill:Wind:
Aussen-T/F 701 07-02-2014 04:00:00 7.83333 C 6.96 g/m*3 7.83 C 3.6 km/h
702 07-02-2014 05:00:00 7.71667 C 6.97 g/m*3 7.72 C 3.60833 km/h
703 07-02-2014 06:00:00 9.13333 C 7.36 g/m*3 8.13 C 7.38333 km/h
704 07-02-2014 07:00:00 10.63333 C 7.43 g/m*3 9.56 C 9.00833 km/h
705 07-02-2014 08:00:00 11.35833 C 7.46 g/m*3 11.36 C 9.40833 km/h
706 07-02-2014 09:00:00 12.48333 C 7.51 g/m*3 12.48 C 15.03333 km/h
707 07-02-2014 10:00:00 13.06667 C 7.54 g/m*3 13.07 C 21.575 km/h
708 07-02-2014 11:00:00 11.65833 C 7.64 g/m*3 11.66 C 28.83333 km/h
709 07-02-2014 12:00:00 10.76667 C 6.89 g/m*3 7.49 C 31.25833 km/h
710 07-02-2014 13:00:00 10.35833 C 6.86 g/m*3 7.25 C 27.08333 km/h
711 07-02-2014 14:00:00 10.54167 C 6.6 g/m*3 7.08 C 33.25 km/h
712 07-02-2014 15:00:00 9.85833 C 6.65 g/m*3 6.29 C 31.51667 km/h
713 07-02-2014 16:00:00 9.25833 C 6.53 g/m*3 6.02 C 24.66667 km/h
714 07-02-2014 17:00:00 8.64167 C 6.61 g/m*3 6.1 C 16.1 km/h
715 07-02-2014 18:00:00 7.60833 C 6.6 g/m*3 4.3 C 20.51667 km/h
716 07-02-2014 19:00:00 6.99167 C 6.36 g/m*3 4.42 C 13.56667 km/h
717 07-02-2014 20:00:00 6.64167 C 6.22 g/m*3 4.21 C 12.23333 km/h
718 07-02-2014 21:00:00 5.99167 C 6.14 g/m*3 4.09 C 8.86667 km/h
719 07-02-2014 22:00:00 5.075 C 5.94 g/m*3 4.08 C 5.225 km/h
720 07-02-2014 23:00:00 3.74167 C 5.64 g/m*3 3.74 C 2.4 km/h
721 08-02-2014 00:00:00 2.86667 C 5.46 g/m*3 2.87 C 2.66667 km/h
722 08-02-2014 01:00:00 2.275 C 5.27 g/m*3 2.28 C 1.33333 km/h
723 08-02-2014 02:00:00 2.45833 C 5.3 g/m*3 2.46 C 1.6 km/h
724 08-02-2014 03:00:00 3.55 C 5.53 g/m*3 3.55 C 3.73333 km/h
725 08-02-2014 04:00:00 5.33333 C 5.86 g/m*3 4 C 6.31667 km/h
Sensor: Nr:Datum:Temp:Abs-Feuchte:Windchill:Wind:
Aussen-T/F 726 08-02-2014 05:00:00 5.925 C 5.98 g/m*3 5.93 C 4.40833 km/h
727 08-02-2014 06:00:00 6.025 C 6.07 g/m*3 4.94 C 5.88333 km/h
728 08-02-2014 07:00:00 6.53333 C 6.09 g/m*3 5.02 C 7.64167 km/h
729 08-02-2014 08:00:00 7.2 C 6.06 g/m*3 5.74 C 7.91667 km/h
730 08-02-2014 09:00:00 7.78333 C 6.05 g/m*3 6.24 C 8.725 km/h
731 08-02-2014 10:00:00 8.275 C 6.14 g/m*3 7.03 C 7.79167 km/h
732 08-02-2014 11:00:00 9.25 C 6.25 g/m*3 8.12 C 8.05 km/h
733 08-02-2014 12:00:00 9.59167 C 6.55 g/m*3 8.15 C 9.95833 km/h
734 08-02-2014 13:00:00 8.79167 C 6.91 g/m*3 7.7 C 7.50833 km/h
735 08-02-2014 14:00:00 8.46667 C 6.95 g/m*3 7.38 C 7.25 km/h
736 08-02-2014 15:00:00 7.71667 C 7.05 g/m*3 6.84 C 6.025 km/h
737 08-02-2014 16:00:00 7.16667 C 7.1 g/m*3 7.17 C 3.34167 km/h
738 08-02-2014 17:00:00 6.475 C 6.91 g/m*3 6.48 C 2.93333 km/h
739 08-02-2014 18:00:00 6.05 C 6.79 g/m*3 6.05 C 4.28333 km/h
740 08-02-2014 19:00:00 6.78333 C 6.83 g/m*3 5.81 C 5.89167 km/h
741 08-02-2014 20:00:00 7.1 C 6.82 g/m*3 5.72 C 7.525 km/h
742 08-02-2014 21:00:00 7.125 C 6.52 g/m*3 5.65 C 7.93333 km/h
743 08-02-2014 22:00:00 7.01667 C 6.33 g/m*3 5.28 C 8.98333 km/h
744 08-02-2014 23:00:00 6.98333 C 6.06 g/m*3 4.76 C 11.425 km/h
745 09-02-2014 00:00:00 6.35833 C 6.01 g/m*3 3.16 C 16.90833 km/h
746 09-02-2014 01:00:00 4.44167 C 5.82 g/m*3 2.1 C 9.525 km/h
747 09-02-2014 02:00:00 4.44167 C 5.75 g/m*3 2.81 C 6.83333 km/h
748 09-02-2014 03:00:00 5.75 C 5.8 g/m*3 4.22 C 7.23333 km/h
749 09-02-2014 04:00:00 5.79167 C 5.84 g/m*3 4.54 C 6.29167 km/h
750 09-02-2014 05:00:00 5.91667 C 5.88 g/m*3 3.71 C 10.19167 km/h
Sensor: Nr:Datum:Temp:Abs-Feuchte:Windchill:Wind:
Aussen-T/F 751 09-02-2014 06:00:00 5.68333 C 5.86 g/m*3 3.09 C 11.95833 km/h
752 09-02-2014 07:00:00 5.65 C 5.8 g/m*3 2.73 C 13.825 km/h
753 09-02-2014 08:00:00 5.725 C 5.78 g/m*3 3.48 C 10.225 km/h
754 09-02-2014 09:00:00 5.9 C 5.78 g/m*3 3.15 C 13.15 km/h
755 09-02-2014 10:00:00 6.30833 C 5.79 g/m*3 3.3 C 15.43333 km/h
756 09-02-2014 11:00:00 6.575 C 5.83 g/m*3 3.36 C 17.43333 km/h
757 09-02-2014 12:00:00 7.15833 C 5.7 g/m*3 3.66 C 21.175 km/h
758 09-02-2014 13:00:00 7.725 C 5.55 g/m*3 4.67 C 18.50833 km/h
759 09-02-2014 14:00:00 6.875 C 5.8 g/m*3 3.82 C 16.775 km/h
760 09-02-2014 15:00:00 7.31667 C 5.55 g/m*3 4.74 C 14.09167 km/h
761 09-02-2014 16:00:00 6.80833 C 5.43 g/m*3 4.55 C 11.425 km/h
762 09-02-2014 17:00:00 6.25833 C 5.33 g/m*3 4.29 C 9.4 km/h
763 09-02-2014 18:00:00 4.16667 C 5.26 g/m*3 4.17 C 2.26667 km/h
764 09-02-2014 19:00:00 3.84167 C 5.35 g/m*3 3.84 C 3.34167 km/h
765 09-02-2014 20:00:00 2.775 C 5.18 g/m*3 2.78 C 3.06667 km/h
766 09-02-2014 21:00:00 2.7 C 5.24 g/m*3 2.7 C 2.8 km/h
767 09-02-2014 22:00:00 2.325 C 5.2 g/m*3 2.33 C 1.33333 km/h
768 09-02-2014 23:00:00 1.75833 C 5.07 g/m*3 1.76 C 0.4 km/h
769 10-02-2014 00:00:00 1.425 C 5 g/m*3 1.43 C 0.8 km/h
770 10-02-2014 01:00:00 1.175 C 4.93 g/m*3 1.18 C 0.93333 km/h
771 10-02-2014 02:00:00 1.15 C 4.94 g/m*3 1.15 C 2.94167 km/h
772 10-02-2014 03:00:00 2.84167 C 5.23 g/m*3 0.74 C 7.51667 km/h
773 10-02-2014 04:00:00 1.50833 C 4.91 g/m*3 1.51 C 2.13333 km/h
774 10-02-2014 05:00:00 1.775 C 5.05 g/m*3 1.78 C 4.95 km/h
775 10-02-2014 06:00:00 3.05833 C 5.13 g/m*3 3.06 C 4.96667 km/h
Sensor: Nr:Datum:Temp:Abs-Feuchte:Windchill:Wind:
Aussen-T/F 776 10-02-2014 07:00:00 2.24167 C 5.06 g/m*3 2.24 C 0.93333 km/h
777 10-02-2014 08:00:00 1.91667 C 5.04 g/m*3 1.92 C 0.26667 km/h
778 10-02-2014 09:00:00 2.31667 C 5.18 g/m*3 2.32 C 0.13333 km/h
779 10-02-2014 10:00:00 3.80833 C 5.32 g/m*3 1.95 C 7.25 km/h
780 10-02-2014 11:00:00 5.95833 C 5.3 g/m*3 3.9 C 9.55 km/h
781 10-02-2014 12:00:00 6.5 C 4.92 g/m*3 5.44 C 6.025 km/h
782 10-02-2014 13:00:00 6.66667 C 4.85 g/m*3 5.94 C 5.08333 km/h
783 10-02-2014 14:00:00 6.78333 C 4.9 g/m*3 6.78 C 4.93333 km/h
784 10-02-2014 15:00:00 6.01667 C 5.44 g/m*3 6.02 C 4.15833 km/h
785 10-02-2014 16:00:00 4.5 C 5.92 g/m*3 4.5 C 0.26667 km/h
786 10-02-2014 17:00:00 3.775 C 5.87 g/m*3 3.78 C 0 km/h
787 10-02-2014 18:00:00 3.48333 C 5.83 g/m*3 3.48 C 0 km/h
788 10-02-2014 19:00:00 3.3 C 5.79 g/m*3 3.3 C 0 km/h
789 10-02-2014 20:00:00 3.14167 C 5.75 g/m*3 3.14 C 0.8 km/h
790 10-02-2014 21:00:00 2.63333 C 5.51 g/m*3 2.63 C 1.86667 km/h
791 10-02-2014 22:00:00 2.63333 C 5.52 g/m*3 2.63 C 2.8 km/h
792 10-02-2014 23:00:00 2.70833 C 5.53 g/m*3 2.71 C 4.40833 km/h
793 11-02-2014 00:00:00 2.95 C 5.63 g/m*3 2.95 C 4.275 km/h
794 11-02-2014 01:00:00 3.64167 C 5.7 g/m*3 0.95 C 10.36667 km/h
795 11-02-2014 02:00:00 4.10833 C 5.77 g/m*3 1.4 C 10.88333 km/h
796 11-02-2014 03:00:00 3.875 C 5.75 g/m*3 1.52 C 9.13333 km/h
797 11-02-2014 04:00:00 3.99167 C 5.78 g/m*3 2.38 C 6.55833 km/h
798 11-02-2014 05:00:00 3.86667 C 5.76 g/m*3 2.32 C 6.29167 km/h
799 11-02-2014 06:00:00 4.78333 C 5.94 g/m*3 3.05 C 7.375 km/h
800 11-02-2014 07:00:00 5.325 C 5.92 g/m*3 2.71 C 11.69167 km/h
Sensor: Nr:Datum:Temp:Abs-Feuchte:Windchill:Wind:
Aussen-T/F 801 11-02-2014 08:00:00 5.425 C 5.81 g/m*3 3.01 C 10.75833 km/h
802 11-02-2014 09:00:00 5.69167 C 5.64 g/m*3 3.61 C 9.4 km/h
803 11-02-2014 10:00:00 5.94167 C 5.84 g/m*3 3.88 C 9.54167 km/h
804 11-02-2014 11:00:00 6.43333 C 6.05 g/m*3 3.67 C 13.96667 km/h
805 11-02-2014 12:00:00 6.61667 C 5.88 g/m*3 4.07 C 12.89167 km/h
806 11-02-2014 13:00:00 7.31667 C 5.83 g/m*3 5.6 C 9.14167 km/h
807 11-02-2014 14:00:00 7.98333 C 5.68 g/m*3 6.66 C 7.9 km/h
808 11-02-2014 15:00:00 8.38333 C 5.5 g/m*3 6.98 C 8.59167 km/h
809 11-02-2014 16:00:00 7.3 C 5.54 g/m*3 6.66 C 5.08333 km/h
810 11-02-2014 17:00:00 5.775 C 5.61 g/m*3 5.78 C 3.2 km/h
811 11-02-2014 18:00:00 4.575 C 5.61 g/m*3 4.58 C 3.06667 km/h
812 11-02-2014 19:00:00 4.65 C 5.64 g/m*3 4.65 C 3.075 km/h
813 11-02-2014 20:00:00 4.68333 C 5.64 g/m*3 4.68 C 2.26667 km/h
814 11-02-2014 21:00:00 5.225 C 5.57 g/m*3 5.23 C 3.2 km/h
815 11-02-2014 22:00:00 5.625 C 5.61 g/m*3 5.63 C 2.53333 km/h
816 11-02-2014 23:00:00 5.75833 C 5.71 g/m*3 5.76 C 2.66667 km/h
817 12-02-2014 00:00:00 5.45 C 5.93 g/m*3 5.45 C 2.94167 km/h
818 12-02-2014 01:00:00 5.31667 C 5.99 g/m*3 3.99 C 6.31667 km/h
819 12-02-2014 02:00:00 5.15 C 6.02 g/m*3 2.68 C 10.74167 km/h
820 12-02-2014 03:00:00 5.00833 C 5.98 g/m*3 2.2 C 12.36667 km/h
821 12-02-2014 04:00:00 4.225 C 5.77 g/m*3 2.6 C 6.71667 km/h
822 12-02-2014 05:00:00 3.73333 C 5.66 g/m*3 2.07 C 6.58333 km/h
823 12-02-2014 06:00:00 3.61667 C 5.55 g/m*3 1.85 C 6.84167 km/h
824 12-02-2014 07:00:00 3.88333 C 5.64 g/m*3 1.81 C 8.05 km/h
825 12-02-2014 08:00:00 3.55 C 5.55 g/m*3 3.55 C 3.61667 km/h
Sensor: Nr:Datum:Temp:Abs-Feuchte:Windchill:Wind:
Aussen-T/F 826 12-02-2014 09:00:00 3.69167 C 5.62 g/m*3 3.69 C 4.68333 km/h
827 12-02-2014 10:00:00 5.475 C 5.69 g/m*3 3.1 C 10.61667 km/h
828 12-02-2014 11:00:00 6.29167 C 5.59 g/m*3 3.46 C 14.225 km/h
829 12-02-2014 12:00:00 6.75833 C 5.63 g/m*3 4.22 C 13.03333 km/h
830 12-02-2014 13:00:00 7.95833 C 5.54 g/m*3 5.8 C 12.225 km/h
831 12-02-2014 14:00:00 8.14167 C 5.5 g/m*3 6.18 C 11.3 km/h
832 12-02-2014 15:00:00 8.34167 C 5.35 g/m*3 6.56 C 10.48333 km/h
833 12-02-2014 16:00:00 7.31667 C 5.42 g/m*3 7.32 C 4.275 km/h
834 12-02-2014 17:00:00 5.75833 C 5.38 g/m*3 4.91 C 5.08333 km/h
835 12-02-2014 18:00:00 4.54167 C 5.37 g/m*3 4.54 C 2.8 km/h
836 12-02-2014 19:00:00 4.33333 C 5.48 g/m*3 4.33 C 1.86667 km/h
837 12-02-2014 20:00:00 4.58333 C 5.58 g/m*3 4.58 C 3.2 km/h
838 12-02-2014 21:00:00 4.89167 C 5.64 g/m*3 4.89 C 2.93333 km/h
839 12-02-2014 22:00:00 6.475 C 5.58 g/m*3 4.76 C 8.45 km/h
840 12-02-2014 23:00:00 6.075 C 6.02 g/m*3 4.91 C 6.15833 km/h
841 13-02-2014 00:00:00 5.625 C 6.03 g/m*3 3.63 C 8.99167 km/h
842 13-02-2014 01:00:00 5.98333 C 6.14 g/m*3 3.63 C 11.025 km/h
843 13-02-2014 02:00:00 5.925 C 6.32 g/m*3 5.93 C 3.075 km/h
844 13-02-2014 03:00:00 5.80833 C 6.56 g/m*3 5.81 C 3.08333 km/h
845 13-02-2014 04:00:00 6.2 C 6.66 g/m*3 4.74 C 7.24167 km/h
846 13-02-2014 05:00:00 6.16667 C 6.43 g/m*3 4.24 C 9.125 km/h
847 13-02-2014 06:00:00 5.43333 C 6.23 g/m*3 5.43 C 4.93333 km/h
848 13-02-2014 07:00:00 5.425 C 6.21 g/m*3 5.43 C 4.81667 km/h
849 13-02-2014 08:00:00 5.88333 C 6.37 g/m*3 5.88 C 2.8 km/h
850 13-02-2014 09:00:00 6.30833 C 6.48 g/m*3 6.31 C 2.675 km/h
Sensor: Nr:Datum:Temp:Abs-Feuchte:Windchill:Wind:
Aussen-T/F 851 13-02-2014 10:00:00 7.5 C 6.58 g/m*3 7.5 C 4.14167 km/h
852 13-02-2014 11:00:00 7.90833 C 6.78 g/m*3 7.91 C 2.13333 km/h
853 13-02-2014 12:00:00 7.28333 C 7 g/m*3 7.28 C 2.41667 km/h
854 13-02-2014 13:00:00 5.91667 C 6.6 g/m*3 5.09 C 5.1 km/h
855 13-02-2014 14:00:00 4.95833 C 6.25 g/m*3 3.85 C 5.49167 km/h
856 13-02-2014 15:00:00 4.61667 C 6.19 g/m*3 4.62 C 0.4 km/h
857 13-02-2014 16:00:00 4.55 C 6.19 g/m*3 4.55 C 4.69167 km/h
858 13-02-2014 17:00:00 4.59167 C 6.18 g/m*3 2.9 C 7.10833 km/h
859 13-02-2014 18:00:00 5.1 C 6.27 g/m*3 3.24 C 8.05833 km/h
860 13-02-2014 19:00:00 5.59167 C 6.38 g/m*3 3.29 C 10.34167 km/h
861 13-02-2014 20:00:00 5.64167 C 6.29 g/m*3 3.22 C 11.025 km/h
862 13-02-2014 21:00:00 5.41667 C 5.94 g/m*3 2.49 C 13.56667 km/h
863 13-02-2014 22:00:00 4.96667 C 5.63 g/m*3 2.75 C 9.40833 km/h
864 13-02-2014 23:00:00 4.425 C 5.55 g/m*3 2.63 C 7.375 km/h
865 14-02-2014 00:00:00 4.45833 C 5.6 g/m*3 3 C 6.3 km/h
866 14-02-2014 01:00:00 4.36667 C 5.58 g/m*3 2.01 C 9.54167 km/h
867 14-02-2014 02:00:00 4.91667 C 5.62 g/m*3 2.54 C 10.08333 km/h
868 14-02-2014 03:00:00 4.98333 C 5.59 g/m*3 2.77 C 9.425 km/h
869 14-02-2014 04:00:00 4.69167 C 5.48 g/m*3 2.83 C 7.8 km/h
870 14-02-2014 05:00:00 4.19167 C 5.4 g/m*3 2.17 C 8.05 km/h
871 14-02-2014 06:00:00 3.925 C 5.35 g/m*3 1.89 C 7.91667 km/h
872 14-02-2014 07:00:00 2.825 C 5.28 g/m*3 2.83 C 2.8 km/h
873 14-02-2014 08:00:00 3.64167 C 5.6 g/m*3 3.64 C 2.13333 km/h
874 14-02-2014 09:00:00 5.19167 C 5.8 g/m*3 5.19 C 4.13333 km/h
875 14-02-2014 10:00:00 5.89167 C 5.89 g/m*3 5.89 C 4.28333 km/h
Sensor: Nr:Datum:Temp:Abs-Feuchte:Windchill:Wind:
Aussen-T/F 876 14-02-2014 11:00:00 6.64167 C 6.05 g/m*3 6.64 C 4.81667 km/h
877 14-02-2014 12:00:00 7.78333 C 6.27 g/m*3 6.87 C 6.16667 km/h
878 14-02-2014 13:00:00 8.16667 C 6.34 g/m*3 6.48 C 9.81667 km/h
879 14-02-2014 14:00:00 8.19167 C 6.41 g/m*3 7.27 C 6.45 km/h
880 14-02-2014 15:00:00 8.3 C 6.54 g/m*3 8.3 C 4.94167 km/h
881 14-02-2014 16:00:00 7.83333 C 6.77 g/m*3 7.83 C 3.60833 km/h
882 14-02-2014 17:00:00 6.25833 C 6.77 g/m*3 6.26 C 2.8 km/h
883 14-02-2014 18:00:00 5.89167 C 6.5 g/m*3 4.38 C 7.25 km/h
884 14-02-2014 19:00:00 5.56667 C 6.54 g/m*3 5.57 C 2.53333 km/h
885 14-02-2014 20:00:00 5.09167 C 6.45 g/m*3 5.09 C 3.86667 km/h
886 14-02-2014 21:00:00 5.09167 C 6.51 g/m*3 5.09 C 4.4 km/h
887 14-02-2014 22:00:00 5.88333 C 6.84 g/m*3 5.88 C 4 km/h
888 14-02-2014 23:00:00 5.75 C 6.74 g/m*3 5.75 C 3.46667 km/h
889 15-02-2014 00:00:00 5.76667 C 6.72 g/m*3 5.77 C 4.54167 km/h
890 15-02-2014 01:00:00 6.44167 C 6.95 g/m*3 6.44 C 4.94167 km/h
891 15-02-2014 02:00:00 7.75 C 7.38 g/m*3 7.09 C 5.35 km/h
892 15-02-2014 03:00:00 7.78333 C 7.26 g/m*3 7.78 C 4.54167 km/h
893 15-02-2014 04:00:00 7.5 C 7.26 g/m*3 7.5 C 4.8 km/h
894 15-02-2014 05:00:00 8.41667 C 7.65 g/m*3 8.42 C 4.4 km/h
895 15-02-2014 06:00:00 9.55833 C 7.91 g/m*3 8.48 C 8.05 km/h
896 15-02-2014 07:00:00 10.88333 C 7.81 g/m*3 9.2 C 13.41667 km/h
897 15-02-2014 08:00:00 11.34167 C 7.47 g/m*3 11.34 C 13.83333 km/h
898 15-02-2014 09:00:00 11.79167 C 7.35 g/m*3 11.79 C 22.10833 km/h
899 15-02-2014 10:00:00 12 C 7.31 g/m*3 12 C 23.76667 km/h
900 15-02-2014 11:00:00 12.23 C 7.18 g/m*3 12.23 C 23.16 km/h
Sensor: Nr:Datum:Temp:Abs-Feuchte:Windchill:Wind:
Aussen-T/F 901 15-02-2014 12:00:00 12.16667 C 7.03 g/m*3 12.17 C 19.96667 km/h
902 15-02-2014 13:00:00 12.13333 C 7.19 g/m*3 12.13 C 17.16667 km/h
903 15-02-2014 14:00:00 12.30833 C 7.45 g/m*3 12.31 C 16.23333 km/h
904 15-02-2014 15:00:00 11.94167 C 7.26 g/m*3 11.94 C 16.1 km/h
905 15-02-2014 16:00:00 11.35333 C 7.11 g/m*3 11.35 C 14.28667 km/h
906 15-02-2014 17:00:00 10.59167 C 7.02 g/m*3 9.07 C 11.7 km/h
907 15-02-2014 18:00:00 9.96667 C 6.97 g/m*3 8.42 C 11.01667 km/h
908 15-02-2014 19:00:00 9.16667 C 7.34 g/m*3 7.55 C 10.475 km/h
909 15-02-2014 20:00:00 7.5 C 7.42 g/m*3 7.5 C 4.275 km/h
910 15-02-2014 21:00:00 7.81667 C 7.26 g/m*3 6.09 C 9.66667 km/h
911 15-02-2014 22:00:00 8.64167 C 7.07 g/m*3 6.47 C 13.29167 km/h
912 15-02-2014 23:00:00 8.80833 C 6.84 g/m*3 6.24 C 16.63333 km/h
913 16-02-2014 00:00:00 8.40833 C 6.76 g/m*3 6.09 C 13.975 km/h
914 16-02-2014 01:00:00 8.45 C 6.63 g/m*3 5.76 C 16.90833 km/h
915 16-02-2014 02:00:00 8.275 C 6.57 g/m*3 5.82 C 14.76667 km/h
916 16-02-2014 03:00:00 7.95833 C 6.41 g/m*3 5.78 C 12.36667 km/h
917 16-02-2014 04:00:00 8.125 C 6.3 g/m*3 5.86 C 13.15833 km/h
918 16-02-2014 05:00:00 7.775 C 6.31 g/m*3 5.5 C 12.75833 km/h
919 16-02-2014 06:00:00 7.69167 C 6.37 g/m*3 5.19 C 14.1 km/h
920 16-02-2014 07:00:00 7.575 C 6.42 g/m*3 5.23 C 12.9 km/h
921 16-02-2014 08:00:00 7.35833 C 6.37 g/m*3 5.08 C 12.23333 km/h
922 16-02-2014 09:00:00 7.49167 C 6.53 g/m*3 5.17 C 12.625 km/h
923 16-02-2014 10:00:00 8.00833 C 6.57 g/m*3 5.6 C 13.96667 km/h
924 16-02-2014 11:00:00 8.56667 C 6.6 g/m*3 6.14 C 15.04167 km/h
925 16-02-2014 12:00:00 8.45833 C 6.84 g/m*3 6.33 C 12.75833 km/h
Sensor: Nr:Datum:Temp:Abs-Feuchte:Windchill:Wind:
Aussen-T/F 926 16-02-2014 13:00:00 8.68333 C 6.88 g/m*3 6.32 C 14.76667 km/h
927 16-02-2014 14:00:00 9.21667 C 6.74 g/m*3 6.84 C 15.83333 km/h
928 16-02-2014 15:00:00 9.325 C 6.58 g/m*3 7.18 C 14.23333 km/h
929 16-02-2014 16:00:00 9.625 C 6.6 g/m*3 7.66 C 13.425 km/h
930 16-02-2014 17:00:00 8.8 C 6.38 g/m*3 7.59 C 8.05 km/h
931 16-02-2014 18:00:00 6.19167 C 6.26 g/m*3 6.19 C 3.86667 km/h
932 16-02-2014 19:00:00 5.24167 C 6.1 g/m*3 5.24 C 3.86667 km/h
933 16-02-2014 20:00:00 4.5 C 5.92 g/m*3 4.5 C 3.06667 km/h
934 16-02-2014 21:00:00 3.86667 C 5.79 g/m*3 3.87 C 2.8 km/h
935 16-02-2014 22:00:00 3.81667 C 5.68 g/m*3 3.82 C 3.46667 km/h
936 16-02-2014 23:00:00 3.35 C 5.53 g/m*3 3.35 C 2.26667 km/h
937 17-02-2014 00:00:00 2.775 C 5.39 g/m*3 2.78 C 1.86667 km/h
938 17-02-2014 01:00:00 1.69167 C 5.11 g/m*3 1.69 C 0.13333 km/h
939 17-02-2014 02:00:00 1.24167 C 5.01 g/m*3 1.24 C 0.66667 km/h
940 17-02-2014 03:00:00 0.55833 C 4.79 g/m*3 0.56 C 0 km/h
941 17-02-2014 04:00:00 0.16667 C 4.71 g/m*3 0.17 C 0 km/h
942 17-02-2014 05:00:00 -0.04167 C 4.64 g/m*3 -0.04 C 0 km/h
943 17-02-2014 06:00:00 0.13333 C 4.72 g/m*3 0.13 C 0.26667 km/h
944 17-02-2014 07:00:00 0.49167 C 4.86 g/m*3 0.49 C 0.13333 km/h
945 17-02-2014 08:00:00 1.25 C 5.12 g/m*3 1.25 C 2 km/h
946 17-02-2014 09:00:00 2.24167 C 5.48 g/m*3 2.24 C 1.2 km/h
947 17-02-2014 10:00:00 3.51667 C 5.95 g/m*3 3.52 C 4.44167 km/h
948 17-02-2014 11:00:00 4.99167 C 6.36 g/m*3 3.98 C 5.23333 km/h
949 17-02-2014 12:00:00 6.93333 C 6.79 g/m*3 4.67 C 11.56667 km/h
950 17-02-2014 13:00:00 7.65833 C 6.75 g/m*3 5.25 C 13.43333 km/h
Sensor: Nr:Datum:Temp:Abs-Feuchte:Windchill:Wind:
Aussen-T/F 951 17-02-2014 14:00:00 8.71667 C 6.81 g/m*3 6.68 C 12.5 km/h
952 17-02-2014 15:00:00 9.35833 C 6.76 g/m*3 7.6 C 11.56667 km/h
953 17-02-2014 16:00:00 8.59167 C 6.75 g/m*3 8 C 5.5 km/h
954 17-02-2014 17:00:00 6.51667 C 6.54 g/m*3 6.52 C 4 km/h
955 17-02-2014 18:00:00 5.03333 C 6.23 g/m*3 5.03 C 4.13333 km/h
956 17-02-2014 19:00:00 4.21667 C 6 g/m*3 4.22 C 1.6 km/h
957 17-02-2014 20:00:00 3.65833 C 5.85 g/m*3 3.66 C 0.26667 km/h
958 17-02-2014 21:00:00 2.95 C 5.6 g/m*3 2.95 C 0 km/h
959 17-02-2014 22:00:00 2.09167 C 5.33 g/m*3 2.09 C 0 km/h
960 17-02-2014 23:00:00 1.625 C 5.2 g/m*3 1.63 C 0 km/h
961 18-02-2014 00:00:00 1.3 C 5.09 g/m*3 1.3 C 0.13333 km/h
962 18-02-2014 01:00:00 0.9 C 4.95 g/m*3 0.9 C 0 km/h
963 18-02-2014 02:00:00 0.675 C 4.92 g/m*3 0.68 C 0 km/h
964 18-02-2014 03:00:00 0.51667 C 4.87 g/m*3 0.52 C 0 km/h
965 18-02-2014 04:00:00 0.425 C 4.84 g/m*3 0.43 C 1.06667 km/h
966 18-02-2014 05:00:00 0.31667 C 4.8 g/m*3 0.32 C 1.6 km/h
967 18-02-2014 06:00:00 0.21667 C 4.77 g/m*3 0.22 C 1.2 km/h
968 18-02-2014 07:00:00 0.1 C 4.73 g/m*3 0.1 C 0 km/h
969 18-02-2014 08:00:00 0.13333 C 4.76 g/m*3 0.13 C 0.8 km/h
970 18-02-2014 09:00:00 0.28333 C 4.82 g/m*3 0.28 C 0.13333 km/h
971 18-02-2014 10:00:00 0.925 C 5.06 g/m*3 0.93 C 1.33333 km/h
972 18-02-2014 11:00:00 2.46667 C 5.62 g/m*3 2.47 C 1.6 km/h
973 18-02-2014 12:00:00 3.35 C 5.96 g/m*3 3.35 C 1.46667 km/h
974 18-02-2014 13:00:00 4.79167 C 6.34 g/m*3 4.79 C 0.93333 km/h
975 18-02-2014 14:00:00 6.64167 C 6.67 g/m*3 6.64 C 0.66667 km/h
Sensor: Nr:Datum:Temp:Abs-Feuchte:Windchill:Wind:
Aussen-T/F 976 18-02-2014 15:00:00 7.79167 C 6.85 g/m*3 7.79 C 0.8 km/h
977 18-02-2014 16:00:00 7.85833 C 7.11 g/m*3 7.86 C 0 km/h
978 18-02-2014 17:00:00 6.95833 C 6.99 g/m*3 6.96 C 0 km/h
979 18-02-2014 18:00:00 6.54167 C 6.82 g/m*3 6.54 C 1.2 km/h
980 18-02-2014 19:00:00 6.075 C 6.65 g/m*3 6.08 C 0 km/h
981 18-02-2014 20:00:00 5.76667 C 6.58 g/m*3 5.77 C 0.66667 km/h
982 18-02-2014 21:00:00 5.65 C 6.58 g/m*3 5.65 C 0.13333 km/h
983 18-02-2014 22:00:00 5.75833 C 6.6 g/m*3 5.76 C 0.26667 km/h
984 18-02-2014 23:00:00 5.85 C 6.56 g/m*3 5.85 C 0.13333 km/h
985 19-02-2014 00:00:00 5.50833 C 6.51 g/m*3 5.51 C 0 km/h
986 19-02-2014 01:00:00 5.3 C 6.44 g/m*3 5.3 C 0.13333 km/h
987 19-02-2014 02:00:00 5.075 C 6.35 g/m*3 5.08 C 0.4 km/h
988 19-02-2014 03:00:00 5.06667 C 6.35 g/m*3 5.07 C 1.06667 km/h
989 19-02-2014 04:00:00 5.45833 C 6.5 g/m*3 5.46 C 0.66667 km/h
990 19-02-2014 05:00:00 6.9 C 6.78 g/m*3 6.9 C 3.75833 km/h
991 19-02-2014 06:00:00 6.99167 C 6.91 g/m*3 5.96 C 6.175 km/h
992 19-02-2014 07:00:00 7.175 C 6.91 g/m*3 6.17 C 6.16667 km/h
993 19-02-2014 08:00:00 7 C 6.97 g/m*3 6.28 C 5.21667 km/h
994 19-02-2014 09:00:00 7.83333 C 7.16 g/m*3 7.83 C 4.81667 km/h
995 19-02-2014 10:00:00 8.63333 C 7.21 g/m*3 6.48 C 13.15833 km/h
996 19-02-2014 11:00:00 9.175 C 7.15 g/m*3 6.91 C 14.9 km/h
997 19-02-2014 12:00:00 10.31667 C 7.12 g/m*3 8.4 C 14.23333 km/h
998 19-02-2014 13:00:00 11.53333 C 7.04 g/m*3 11.53 C 13.16667 km/h
999 19-02-2014 14:00:00 11.525 C 6.98 g/m*3 11.53 C 13.425 km/h
1000 19-02-2014 15:00:00 10.83333 C 7.06 g/m*3 9.31 C 12.08333 km/h
Sensor: Nr:Datum:Temp:Abs-Feuchte:Windchill:Wind:
Aussen-T/F 1001 19-02-2014 16:00:00 9.59167 C 7.44 g/m*3 9.15 C 5.48333 km/h
1002 19-02-2014 17:00:00 9.25833 C 7.29 g/m*3 8.4 C 6.85 km/h
1003 19-02-2014 18:00:00 8.85833 C 7.24 g/m*3 8.15 C 6.025 km/h
1004 19-02-2014 19:00:00 8.19167 C 7.09 g/m*3 8.19 C 4.14167 km/h
1005 19-02-2014 20:00:00 7.76667 C 7.08 g/m*3 7.77 C 3.73333 km/h
1006 19-02-2014 21:00:00 6.825 C 6.83 g/m*3 6.83 C 3.73333 km/h
1007 19-02-2014 22:00:00 6.2 C 6.72 g/m*3 6.2 C 3.6 km/h
1008 19-02-2014 23:00:00 6.78333 C 6.83 g/m*3 6.78 C 3.6 km/h
1009 20-02-2014 00:00:00 6.96667 C 6.81 g/m*3 6.19 C 5.35 km/h
1010 20-02-2014 01:00:00 6.55 C 6.73 g/m*3 5.81 C 5.08333 km/h
1011 20-02-2014 02:00:00 6.48333 C 6.8 g/m*3 6.48 C 4.01667 km/h
1012 20-02-2014 03:00:00 6.38333 C 6.77 g/m*3 6.38 C 3.61667 km/h
1013 20-02-2014 04:00:00 6.425 C 6.71 g/m*3 6.43 C 3.61667 km/h
1014 20-02-2014 05:00:00 5.86667 C 6.67 g/m*3 5.87 C 1.06667 km/h
1015 20-02-2014 06:00:00 5.96667 C 6.74 g/m*3 5.97 C 0.4 km/h
1016 20-02-2014 07:00:00 6.09167 C 6.79 g/m*3 6.09 C 1.33333 km/h
1017 20-02-2014 08:00:00 6.75 C 6.94 g/m*3 6.75 C 1.73333 km/h
1018 20-02-2014 09:00:00 7.98333 C 7.05 g/m*3 7.98 C 3.60833 km/h
1019 20-02-2014 10:00:00 8.88333 C 7.14 g/m*3 8.88 C 4.275 km/h
1020 20-02-2014 11:00:00 9.73333 C 7.07 g/m*3 8.68 C 8.05 km/h
1021 20-02-2014 12:00:00 10.76667 C 6.9 g/m*3 9.4 C 10.9 km/h
1022 20-02-2014 13:00:00 11.35 C 6.88 g/m*3 11.35 C 10.89167 km/h
1023 20-02-2014 14:00:00 11.225 C 7.08 g/m*3 11.23 C 8.74167 km/h
1024 20-02-2014 15:00:00 11.15 C 7.35 g/m*3 11.15 C 6.30833 km/h
1025 20-02-2014 16:00:00 11.25833 C 7.42 g/m*3 11.26 C 3.075 km/h
Sensor: Nr:Datum:Temp:Abs-Feuchte:Windchill:Wind:
Aussen-T/F 1026 20-02-2014 17:00:00 10.875 C 7.51 g/m*3 10.88 C 2.8 km/h
1027 20-02-2014 18:00:00 9.95 C 7.47 g/m*3 9.95 C 1.73333 km/h
1028 20-02-2014 19:00:00 9.75 C 7.35 g/m*3 9.75 C 2.66667 km/h
1029 20-02-2014 20:00:00 9.475 C 7.4 g/m*3 9.48 C 2.53333 km/h
1030 20-02-2014 21:00:00 9.6 C 7.53 g/m*3 9.6 C 2.53333 km/h
1031 20-02-2014 22:00:00 9.65 C 7.67 g/m*3 9.65 C 1.46667 km/h
1032 20-02-2014 23:00:00 9.41667 C 7.81 g/m*3 9.42 C 2.93333 km/h
1033 21-02-2014 00:00:00 9.38333 C 7.94 g/m*3 9.38 C 4.15 km/h
1034 21-02-2014 01:00:00 9.65 C 8.08 g/m*3 9.65 C 2.26667 km/h
1035 21-02-2014 02:00:00 9.73333 C 8.15 g/m*3 9.73 C 4.425 km/h
1036 21-02-2014 03:00:00 9.45 C 8.05 g/m*3 9.02 C 5.35833 km/h
1037 21-02-2014 04:00:00 9.525 C 7.89 g/m*3 8.52 C 7.65833 km/h
1038 21-02-2014 05:00:00 9.38333 C 7.52 g/m*3 7.98 C 9.53333 km/h
1039 21-02-2014 06:00:00 8.21667 C 7.41 g/m*3 8.22 C 2.94167 km/h
1040 21-02-2014 07:00:00 7.95833 C 7.24 g/m*3 7.41 C 5.075 km/h
1041 21-02-2014 08:00:00 8.25833 C 7.09 g/m*3 6.86 C 8.46667 km/h
1042 21-02-2014 09:00:00 8.9 C 7 g/m*3 6.57 C 14.9 km/h
1043 21-02-2014 10:00:00 9.28333 C 6.98 g/m*3 7.2 C 13.7 km/h
1044 21-02-2014 11:00:00 8.90833 C 6.95 g/m*3 6.55 C 15.175 km/h
1045 21-02-2014 12:00:00 7.91667 C 7.06 g/m*3 5.41 C 14.5 km/h
1046 21-02-2014 13:00:00 8.575 C 6.68 g/m*3 5.71 C 18.775 km/h
1047 21-02-2014 14:00:00 9.03333 C 6.69 g/m*3 6.65 C 15.56667 km/h
1048 21-02-2014 15:00:00 9.21667 C 6.35 g/m*3 6.56 C 18.36667 km/h
1049 21-02-2014 16:00:00 7.69167 C 6.31 g/m*3 5.16 C 14.36667 km/h
1050 21-02-2014 17:00:00 7.125 C 6.2 g/m*3 5.1 C 10.5 km/h
Sensor: Nr:Datum:Temp:Abs-Feuchte:Windchill:Wind:
Aussen-T/F 1051 21-02-2014 18:00:00 5.64167 C 6.05 g/m*3 5.64 C 4.4 km/h
1052 21-02-2014 19:00:00 5.1 C 5.95 g/m*3 5.1 C 4.80833 km/h
1053 21-02-2014 20:00:00 4.11667 C 5.82 g/m*3 4.12 C 3.2 km/h
1054 21-02-2014 21:00:00 3.55 C 5.69 g/m*3 3.55 C 2.93333 km/h
1055 21-02-2014 22:00:00 3.225 C 5.63 g/m*3 3.23 C 1.46667 km/h
1056 21-02-2014 23:00:00 3.53333 C 5.73 g/m*3 3.53 C 1.46667 km/h
1057 22-02-2014 00:00:00 2.86667 C 5.5 g/m*3 2.87 C 3.46667 km/h
1058 22-02-2014 01:00:00 2.35 C 5.37 g/m*3 2.35 C 2.4 km/h
1059 22-02-2014 02:00:00 1.96667 C 5.27 g/m*3 1.97 C 1.73333 km/h
1060 22-02-2014 03:00:00 1.675 C 5.16 g/m*3 1.68 C 1.6 km/h
1061 22-02-2014 04:00:00 1.33333 C 5.04 g/m*3 1.33 C 1.46667 km/h
1062 22-02-2014 05:00:00 1.19167 C 5.02 g/m*3 1.19 C 1.2 km/h
1063 22-02-2014 06:00:00 2.05 C 5.34 g/m*3 2.05 C 2.95 km/h
1064 22-02-2014 07:00:00 3.3 C 5.64 g/m*3 3.3 C 2.66667 km/h
1065 22-02-2014 08:00:00 3.93333 C 5.77 g/m*3 3.93 C 0.8 km/h
1066 22-02-2014 09:00:00 5.05 C 5.96 g/m*3 5.05 C 4.41667 km/h
1067 22-02-2014 10:00:00 6.24167 C 6.11 g/m*3 4.83 C 7.10833 km/h
1068 22-02-2014 11:00:00 7.00833 C 6.16 g/m*3 5.01 C 10.21667 km/h
1069 22-02-2014 12:00:00 7.48333 C 6.35 g/m*3 5.39 C 11.29167 km/h
1070 22-02-2014 13:00:00 7.28333 C 6.36 g/m*3 5.01 C 12.1 km/h
1071 22-02-2014 14:00:00 7.56667 C 6.41 g/m*3 5.35 C 12.08333 km/h
1072 22-02-2014 15:00:00 7.76667 C 6.43 g/m*3 5.85 C 10.625 km/h
1073 22-02-2014 16:00:00 7.775 C 6.45 g/m*3 6.41 C 7.925 km/h
1074 22-02-2014 17:00:00 7.36667 C 6.41 g/m*3 6.21 C 6.84167 km/h
1075 22-02-2014 18:00:00 6.74167 C 6.32 g/m*3 6.74 C 4.00833 km/h
Sensor: Nr:Datum:Temp:Abs-Feuchte:Windchill:Wind:
Aussen-T/F 1076 22-02-2014 19:00:00 6.34167 C 6.19 g/m*3 4.94 C 7.11667 km/h
1077 22-02-2014 20:00:00 6.10833 C 6.21 g/m*3 6.11 C 2.53333 km/h
1078 22-02-2014 21:00:00 5.75 C 6.24 g/m*3 5.75 C 1.2 km/h
1079 22-02-2014 22:00:00 5.53333 C 6.21 g/m*3 5.53 C 0.26667 km/h
1080 22-02-2014 23:00:00 5.28333 C 6.13 g/m*3 5.28 C 0.53333 km/h
1081 23-02-2014 00:00:00 5.55 C 6.07 g/m*3 5.55 C 1.86667 km/h
1082 23-02-2014 01:00:00 4.35 C 5.71 g/m*3 4.35 C 2.66667 km/h
1083 23-02-2014 02:00:00 3.04167 C 5.43 g/m*3 3.04 C 3.33333 km/h
1084 23-02-2014 03:00:00 2.88333 C 5.35 g/m*3 2.88 C 4 km/h
1085 23-02-2014 04:00:00 2.19167 C 5.17 g/m*3 2.19 C 0.66667 km/h
1086 23-02-2014 05:00:00 2.06667 C 5.2 g/m*3 2.07 C 0.8 km/h
1087 23-02-2014 06:00:00 2.91667 C 5.47 g/m*3 2.92 C 2.53333 km/h
1088 23-02-2014 07:00:00 3.725 C 5.63 g/m*3 3.73 C 2.8 km/h
1089 23-02-2014 08:00:00 4.51 C 5.96 g/m*3 4.51 C 0.64 km/h
1090 23-02-2014 09:00:00 6 C 6.1 g/m*3 6 C 1.06667 km/h
1091 23-02-2014 12:00:00 10.125 C 7.13 g/m*3 9.32 C 7.225 km/h
1092 23-02-2014 13:00:00 10.40833 C 6.48 g/m*3 9.04 C 10.49167 km/h
1093 23-02-2014 14:00:00 10.35 C 6.72 g/m*3 8.71 C 12.225 km/h
1094 23-02-2014 15:00:00 9.74167 C 6.78 g/m*3 8.66 C 8.20833 km/h
1095 23-02-2014 16:00:00 9.98333 C 6.61 g/m*3 9.98 C 4.81667 km/h
1096 23-02-2014 17:00:00 9.40833 C 6.71 g/m*3 9.41 C 0.66667 km/h
1097 23-02-2014 18:00:00 8.38333 C 6.5 g/m*3 8.38 C 2 km/h
1098 23-02-2014 19:00:00 7.50833 C 6.55 g/m*3 7.51 C 3.86667 km/h
1099 23-02-2014 20:00:00 6.3 C 6.25 g/m*3 6.3 C 4.53333 km/h
1100 23-02-2014 21:00:00 5.4 C 6.04 g/m*3 5.4 C 4.66667 km/h
Sensor: Nr:Datum:Temp:Abs-Feuchte:Windchill:Wind:
Aussen-T/F 1101 23-02-2014 22:00:00 4.675 C 5.87 g/m*3 4.68 C 4.26667 km/h
1102 23-02-2014 23:00:00 3.8 C 5.68 g/m*3 3.8 C 3.2 km/h
1103 24-02-2014 00:00:00 3.28333 C 5.58 g/m*3 3.28 C 3.33333 km/h
1104 24-02-2014 01:00:00 2.84167 C 5.47 g/m*3 2.84 C 4.13333 km/h
1105 24-02-2014 02:00:00 2.05833 C 5.21 g/m*3 2.06 C 0.26667 km/h
1106 24-02-2014 03:00:00 1.29167 C 4.99 g/m*3 1.29 C 0 km/h
1107 24-02-2014 04:00:00 0.61667 C 4.8 g/m*3 0.62 C 0 km/h
1108 24-02-2014 05:00:00 0.15833 C 4.69 g/m*3 0.16 C 0 km/h
1109 24-02-2014 06:00:00 -0.29167 C 4.56 g/m*3 -0.29 C 0.8 km/h
1110 24-02-2014 07:00:00 -0.55833 C 4.47 g/m*3 -0.56 C 0.4 km/h
1111 24-02-2014 08:00:00 0.64167 C 4.91 g/m*3 0.64 C 4.00833 km/h
1112 24-02-2014 09:00:00 4.45833 C 5.66 g/m*3 2.55 C 7.79167 km/h
1113 24-02-2014 10:00:00 6.31667 C 5.82 g/m*3 4.87 C 7.25833 km/h
1114 24-02-2014 11:00:00 7.65 C 6.17 g/m*3 6.84 C 5.75833 km/h
1115 24-02-2014 12:00:00 10.65833 C 6.33 g/m*3 10.22 C 6.03333 km/h
1116 24-02-2014 13:00:00 12.98333 C 6.4 g/m*3 12.98 C 7.78333 km/h
1117 24-02-2014 14:00:00 13.59167 C 6.36 g/m*3 13.59 C 7.38333 km/h
1118 24-02-2014 15:00:00 13.99167 C 6.4 g/m*3 13.99 C 9.11667 km/h
1119 24-02-2014 16:00:00 13.34167 C 6.38 g/m*3 13.34 C 5.46667 km/h
1120 24-02-2014 17:00:00 11.69167 C 6.39 g/m*3 11.69 C 4.81667 km/h
1121 24-02-2014 18:00:00 7.9 C 6.39 g/m*3 7.9 C 4.66667 km/h
1122 24-02-2014 19:00:00 6.80833 C 6.27 g/m*3 5.76 C 6.15 km/h
1123 24-02-2014 20:00:00 6.30833 C 6.21 g/m*3 5.49 C 5.2 km/h
1124 24-02-2014 21:00:00 5.775 C 6.06 g/m*3 5.78 C 3.46667 km/h
1125 24-02-2014 22:00:00 4.89167 C 5.93 g/m*3 4.89 C 0.53333 km/h
Sensor: Nr:Datum:Temp:Abs-Feuchte:Windchill:Wind:
Aussen-T/F 1126 24-02-2014 23:00:00 4.325 C 5.75 g/m*3 4.33 C 0.53333 km/h
1127 25-02-2014 00:00:00 3.79167 C 5.64 g/m*3 3.79 C 1.06667 km/h
1128 25-02-2014 01:00:00 3.24167 C 5.52 g/m*3 3.24 C 0 km/h
1129 25-02-2014 02:00:00 2.725 C 5.4 g/m*3 2.73 C 0.4 km/h
1130 25-02-2014 03:00:00 2.175 C 5.26 g/m*3 2.17 C 0.13333 km/h
1131 25-02-2014 04:00:00 1.75 C 5.16 g/m*3 1.75 C 0 km/h
1132 25-02-2014 05:00:00 1.55833 C 5.12 g/m*3 1.56 C 0 km/h
1133 25-02-2014 06:00:00 1.26667 C 5.03 g/m*3 1.27 C 0 km/h
1134 25-02-2014 07:00:00 1.5 C 5.16 g/m*3 1.5 C 0.4 km/h
1135 25-02-2014 08:00:00 1.96667 C 5.32 g/m*3 1.97 C 0.4 km/h
1136 25-02-2014 09:00:00 3.30833 C 5.85 g/m*3 3.31 C 0.93333 km/h
1137 25-02-2014 10:00:00 7.58333 C 6.79 g/m*3 7.58 C 3.34167 km/h
1138 25-02-2014 11:00:00 10.35 C 6.55 g/m*3 9.83 C 6.15833 km/h
1139 25-02-2014 12:00:00 11.55833 C 6.71 g/m*3 11.56 C 7.49167 km/h
1140 25-02-2014 13:00:00 10.98333 C 6.78 g/m*3 10.98 C 4 km/h
1141 25-02-2014 14:00:00 11.525 C 6.85 g/m*3 11.53 C 5.75833 km/h
1142 25-02-2014 15:00:00 11.575 C 6.89 g/m*3 11.58 C 7.38333 km/h
1143 25-02-2014 16:00:00 12 C 6.96 g/m*3 12 C 7.79167 km/h
1144 25-02-2014 17:00:00 11.475 C 6.94 g/m*3 11.48 C 6.025 km/h
1145 25-02-2014 18:00:00 9.71667 C 6.78 g/m*3 9.72 C 3.46667 km/h
1146 25-02-2014 19:00:00 8.45833 C 6.69 g/m*3 8.46 C 2.93333 km/h
1147 25-02-2014 20:00:00 8.25833 C 6.81 g/m*3 8.26 C 1.73333 km/h
1148 25-02-2014 21:00:00 7.98333 C 6.76 g/m*3 7.98 C 3.06667 km/h
1149 25-02-2014 22:00:00 7.86667 C 6.77 g/m*3 7.87 C 3.2 km/h
1150 25-02-2014 23:00:00 7.86667 C 6.91 g/m*3 7.87 C 3.46667 km/h
Sensor: Nr:Datum:Temp:Abs-Feuchte:Windchill:Wind:
Aussen-T/F 1151 26-02-2014 00:00:00 7.35 C 6.79 g/m*3 7.35 C 4 km/h
1152 26-02-2014 01:00:00 7.55833 C 6.91 g/m*3 7.56 C 2.66667 km/h
1153 26-02-2014 02:00:00 8.13333 C 7.07 g/m*3 8.13 C 2.4 km/h
1154 26-02-2014 03:00:00 7.71667 C 6.97 g/m*3 7.72 C 3.6 km/h
1155 26-02-2014 04:00:00 7.9 C 7.03 g/m*3 7.9 C 2.8 km/h
1156 26-02-2014 05:00:00 8.50833 C 7.03 g/m*3 7.9 C 5.5 km/h
1157 26-02-2014 06:00:00 8.125 C 7.02 g/m*3 8.13 C 4.14167 km/h
1158 26-02-2014 07:00:00 6.85 C 6.72 g/m*3 6.85 C 1.33333 km/h
1159 26-02-2014 08:00:00 7.39167 C 6.95 g/m*3 7.39 C 2.54167 km/h
1160 26-02-2014 09:00:00 7.41667 C 6.93 g/m*3 7.42 C 1.2 km/h
1161 26-02-2014 10:00:00 8.55 C 7.2 g/m*3 7.35 C 7.8 km/h
1162 26-02-2014 11:00:00 9.675 C 7.06 g/m*3 8.4 C 9.14167 km/h
1163 26-02-2014 12:00:00 10.25833 C 7.12 g/m*3 9.38 C 7.64167 km/h
1164 26-02-2014 13:00:00 10.83333 C 7.03 g/m*3 10.2 C 6.975 km/h
1165 26-02-2014 14:00:00 11.28333 C 7.01 g/m*3 11.28 C 7.79167 km/h
1166 26-02-2014 15:00:00 10.71667 C 6.92 g/m*3 10.29 C 6.03333 km/h
1167 26-02-2014 16:00:00 10.40833 C 7 g/m*3 10.41 C 2.8 km/h
1168 26-02-2014 17:00:00 9.825 C 7.17 g/m*3 9.82 C 0.66667 km/h
1169 26-02-2014 18:00:00 8.73333 C 7.1 g/m*3 8.73 C 3.33333 km/h
1170 26-02-2014 19:00:00 8.09167 C 6.98 g/m*3 8.09 C 3.33333 km/h
1171 26-02-2014 20:00:00 7.50909 C 6.89 g/m*3 7.51 C 1.30909 km/h
1172 26-02-2014 22:00:00 7.49167 C 6.84 g/m*3 7.49 C 1.86667 km/h
1173 26-02-2014 23:00:00 6.96667 C 6.7 g/m*3 6.97 C 2 km/h
1174 27-02-2014 00:00:00 5.95 C 6.46 g/m*3 5.95 C 2.4 km/h
1175 27-02-2014 01:00:00 5 C 6.19 g/m*3 5 C 1.33333 km/h
Sensor: Nr:Datum:Temp:Abs-Feuchte:Windchill:Wind:
Aussen-T/F 1176 27-02-2014 02:00:00 4.03333 C 5.92 g/m*3 4.03 C 0.8 km/h
1177 27-02-2014 03:00:00 3.25833 C 5.68 g/m*3 3.26 C 0.13333 km/h
1178 27-02-2014 04:00:00 2.65833 C 5.51 g/m*3 2.66 C 1.2 km/h
1179 27-02-2014 05:00:00 1.91667 C 5.25 g/m*3 1.92 C 0.93333 km/h
1180 27-02-2014 06:00:00 1.575 C 5.18 g/m*3 1.58 C 0.93333 km/h
1181 27-02-2014 07:00:00 1.31667 C 5.09 g/m*3 1.32 C 1.20833 km/h
1182 27-02-2014 08:00:00 1.1 C 5.02 g/m*3 1.1 C 0 km/h
1183 27-02-2014 09:00:00 1.6 C 5.25 g/m*3 1.6 C 1.06667 km/h
1184 27-02-2014 11:00:00 7.525 C 6.85 g/m*3 6.23 C 7.45 km/h
1185 27-02-2014 12:00:00 9.85 C 6.43 g/m*3 8.29 C 11.00833 km/h
1186 27-02-2014 13:00:00 9.825 C 6.24 g/m*3 8.15 C 11.69167 km/h
1187 27-02-2014 14:00:00 10.04167 C 6.26 g/m*3 8.94 C 8.6 km/h
1188 27-02-2014 15:00:00 10.6 C 6.09 g/m*3 9.43 C 9.54167 km/h
1189 27-02-2014 16:00:00 9.875 C 5.69 g/m*3 9.18 C 6.575 km/h
1190 27-02-2014 17:00:00 9.3 C 5.84 g/m*3 9.3 C 4.54167 km/h
1191 27-02-2014 18:00:00 7.76667 C 6.24 g/m*3 6.31 C 8.325 km/h
1192 27-02-2014 19:00:00 6.35833 C 6.35 g/m*3 6.36 C 4.29167 km/h
1193 27-02-2014 20:00:00 5.475 C 6.4 g/m*3 5.48 C 1.46667 km/h
1194 27-02-2014 21:00:00 4.96667 C 6.41 g/m*3 4.97 C 0.8 km/h
1195 27-02-2014 22:00:00 4.625 C 6.28 g/m*3 4.63 C 1.6 km/h
1196 27-02-2014 23:00:00 4.40833 C 6.08 g/m*3 4.41 C 3.86667 km/h
1197 28-02-2014 00:00:00 4.48333 C 6.1 g/m*3 2.99 C 6.43333 km/h
1198 28-02-2014 01:00:00 4.775 C 6.2 g/m*3 3.5 C 5.88333 km/h
1199 28-02-2014 02:00:00 4.85 C 6.09 g/m*3 2.71 C 9.00833 km/h
1200 28-02-2014 03:00:00 4.1 C 5.88 g/m*3 2.42 C 6.825 km/h
Sensor: Nr:Datum:Temp:Abs-Feuchte:Windchill:Wind:
Aussen-T/F 1201 28-02-2014 04:00:00 3.91667 C 5.93 g/m*3 3.92 C 3.73333 km/h
1202 28-02-2014 05:00:00 3.58333 C 5.88 g/m*3 3.58 C 1.6 km/h
1203 28-02-2014 06:00:00 3.86667 C 6.03 g/m*3 3.87 C 1.06667 km/h
1204 28-02-2014 07:00:00 4.125 C 6.14 g/m*3 4.13 C 0.66667 km/h
1205 28-02-2014 08:00:00 4.69167 C 6.28 g/m*3 4.69 C 1.2 km/h
1206 28-02-2014 09:00:00 5.68333 C 6.42 g/m*3 5.68 C 3.06667 km/h
1207 28-02-2014 10:00:00 6.75833 C 6.61 g/m*3 6.76 C 3.73333 km/h
1208 28-02-2014 11:00:00 7.78333 C 6.73 g/m*3 6.55 C 7.38333 km/h
1209 28-02-2014 12:00:00 7.99167 C 6.78 g/m*3 7.15 C 6.03333 km/h
1210 28-02-2014 13:00:00 8.48333 C 6.86 g/m*3 7.43 C 7.10833 km/h
1211 28-02-2014 14:00:00 9.43333 C 6.71 g/m*3 8.51 C 7.23333 km/h
1212 28-02-2014 15:00:00 9.225 C 6.55 g/m*3 9.23 C 4 km/h
1213 28-02-2014 16:00:00 9.3 C 6.53 g/m*3 8.86 C 5.33333 km/h
1214 28-02-2014 17:00:00 9.07273 C 6.65 g/m*3 9.07 C 4.66364 km/h
1215 28-02-2014 18:00:00 8.1 C 6.74 g/m*3 8.1 C 1.86667 km/h
1216 28-02-2014 19:00:00 7.00833 C 6.61 g/m*3 7.01 C 3.33333 km/h
1217 28-02-2014 20:00:00 6.63333 C 6.66 g/m*3 6.63 C 3.6 km/h
1218 28-02-2014 21:00:00 6.89167 C 6.84 g/m*3 6.89 C 0.8 km/h
1219 28-02-2014 22:00:00 6.3 C 6.88 g/m*3 6.3 C 3.08333 km/h
1220 28-02-2014 23:00:00 5.65 C 6.7 g/m*3 5.65 C 1.86667 km/h
1221 01-03-2014 00:00:00 5.29167 C 6.63 g/m*3 5.29 C 1.06667 km/h
1222 01-03-2014 01:00:00 4.825 C 6.45 g/m*3 4.83 C 0.4 km/h
1223 01-03-2014 02:00:00 4.85 C 6.49 g/m*3 4.85 C 0.66667 km/h
1224 01-03-2014 03:00:00 4.19167 C 6.18 g/m*3 4.19 C 1.6 km/h
1225 01-03-2014 04:00:00 3.675 C 5.97 g/m*3 3.68 C 2.66667 km/h
Sensor: Nr:Datum:Temp:Abs-Feuchte:Windchill:Wind:
Aussen-T/F 1226 01-03-2014 05:00:00 2.64167 C 5.57 g/m*3 2.64 C 0.66667 km/h
1227 01-03-2014 06:00:00 2.56667 C 5.58 g/m*3 2.57 C 0 km/h
1228 01-03-2014 07:00:00 2.75 C 5.67 g/m*3 2.75 C 0.26667 km/h
1229 01-03-2014 08:00:00 3.13333 C 5.82 g/m*3 3.13 C 0.13333 km/h
1230 01-03-2014 09:00:00 3.8 C 6.09 g/m*3 3.8 C 0.26667 km/h
1231 01-03-2014 10:00:00 5.41667 C 6.63 g/m*3 5.42 C 1.86667 km/h
1232 01-03-2014 11:00:00 7.21667 C 6.65 g/m*3 7.22 C 2.93333 km/h
1233 01-03-2014 12:00:00 8.25 C 6.78 g/m*3 7.58 C 5.60833 km/h
1234 01-03-2014 13:00:00 8.975 C 6.65 g/m*3 8.01 C 7.10833 km/h
1235 01-03-2014 14:00:00 9.29167 C 6.27 g/m*3 8.76 C 5.625 km/h
1236 01-03-2014 15:00:00 9.40833 C 6.17 g/m*3 9.02 C 5.21667 km/h
1237 01-03-2014 16:00:00 9.05833 C 6.1 g/m*3 9.06 C 4.01667 km/h
1238 01-03-2014 17:00:00 7.95833 C 6.28 g/m*3 6.69 C 7.66667 km/h
1239 01-03-2014 18:00:00 6.96667 C 6.46 g/m*3 6.97 C 0.66667 km/h
1240 01-03-2014 19:00:00 6.15833 C 6.47 g/m*3 6.16 C 0.53333 km/h
1241 01-03-2014 20:00:00 5.2 C 6.16 g/m*3 5.2 C 1.86667 km/h
1242 01-03-2014 21:00:00 3.575 C 5.66 g/m*3 3.58 C 1.46667 km/h
1243 01-03-2014 22:00:00 2.85833 C 5.51 g/m*3 2.86 C 1.86667 km/h
1244 01-03-2014 23:00:00 2.59167 C 5.42 g/m*3 2.59 C 0.8 km/h
1245 02-03-2014 00:00:00 1.825 C 5.19 g/m*3 1.83 C 0.26667 km/h
1246 02-03-2014 01:00:00 1.50833 C 5.12 g/m*3 1.51 C 0.93333 km/h
1247 02-03-2014 02:00:00 1.425 C 5.11 g/m*3 1.43 C 0.53333 km/h
1248 02-03-2014 03:00:00 1.95833 C 5.32 g/m*3 1.96 C 0.26667 km/h
1249 02-03-2014 04:00:00 1.69167 C 5.2 g/m*3 1.69 C 0.93333 km/h
1250 02-03-2014 05:00:00 0.86667 C 4.93 g/m*3 0.87 C 0.13333 km/h
Sensor: Nr:Datum:Temp:Abs-Feuchte:Windchill:Wind:
Aussen-T/F 1251 02-03-2014 06:00:00 0.375 C 4.77 g/m*3 0.38 C 0 km/h
1252 02-03-2014 07:00:00 0.28333 C 4.76 g/m*3 0.28 C 0.93333 km/h
1253 02-03-2014 08:00:00 0.55833 C 4.88 g/m*3 0.56 C 1.6 km/h
1254 02-03-2014 09:00:00 1.23333 C 5.12 g/m*3 1.23 C 0.66667 km/h
1255 02-03-2014 10:00:00 2.81667 C 5.75 g/m*3 2.82 C 2.13333 km/h
1256 02-03-2014 11:00:00 4.40833 C 6.16 g/m*3 3.22 C 5.5 km/h
1257 02-03-2014 12:00:00 6.25833 C 5.79 g/m*3 3.63 C 12.9 km/h
1258 02-03-2014 13:00:00 7.16667 C 5.68 g/m*3 5.36 C 9.41667 km/h
1259 02-03-2014 14:00:00 8.03333 C 5.69 g/m*3 6.56 C 8.61667 km/h
1260 02-03-2014 15:00:00 8.98333 C 5.78 g/m*3 8.15 C 6.56667 km/h
1261 02-03-2014 16:00:00 9.10833 C 5.7 g/m*3 8.63 C 5.35 km/h
1262 02-03-2014 17:00:00 7.90833 C 5.86 g/m*3 7.91 C 2.93333 km/h
1263 02-03-2014 18:00:00 4.98333 C 5.68 g/m*3 4.98 C 4.93333 km/h
1264 02-03-2014 19:00:00 3.58333 C 5.31 g/m*3 2.34 C 5.33333 km/h
1265 02-03-2014 20:00:00 2.98333 C 5.2 g/m*3 2.98 C 4.4 km/h
1266 02-03-2014 21:00:00 2.65833 C 5.16 g/m*3 2.66 C 4.13333 km/h
1267 02-03-2014 22:00:00 2.525 C 5.22 g/m*3 2.53 C 3.33333 km/h
1268 02-03-2014 23:00:00 2.075 C 5.14 g/m*3 2.08 C 3.33333 km/h
1269 03-03-2014 00:00:00 2.16667 C 5.17 g/m*3 2.17 C 3.33333 km/h
1270 03-03-2014 01:00:00 2.80833 C 5.33 g/m*3 2.81 C 3.6 km/h
1271 03-03-2014 02:00:00 3.41667 C 5.43 g/m*3 3.42 C 4.28333 km/h
1272 03-03-2014 03:00:00 3.14167 C 5.37 g/m*3 3.14 C 3.06667 km/h
1273 03-03-2014 04:00:00 3.325 C 5.53 g/m*3 2.1 C 5.20833 km/h
1274 03-03-2014 05:00:00 4.04167 C 5.64 g/m*3 2.47 C 6.44167 km/h
1275 03-03-2014 06:00:00 3.95833 C 5.61 g/m*3 2.81 C 5.21667 km/h
Sensor: Nr:Datum:Temp:Abs-Feuchte:Windchill:Wind:
Aussen-T/F 1276 03-03-2014 07:00:00 4.325 C 5.61 g/m*3 2.06 C 9.125 km/h
1277 03-03-2014 08:00:00 4.80833 C 5.69 g/m*3 4.81 C 3.875 km/h
1278 03-03-2014 09:00:00 5.39167 C 5.86 g/m*3 5.39 C 3.6 km/h
1279 03-03-2014 10:00:00 5.99167 C 6.19 g/m*3 5.03 C 5.48333 km/h
1280 03-03-2014 11:00:00 7.06667 C 6.47 g/m*3 6.17 C 5.75833 km/h
1281 03-03-2014 12:00:00 7.35833 C 6.54 g/m*3 7.36 C 4.54167 km/h
1282 03-03-2014 13:00:00 7.79167 C 6.93 g/m*3 7.79 C 4.80833 km/h
1283 03-03-2014 14:00:00 7.98333 C 7.21 g/m*3 7.98 C 3.2 km/h
1284 03-03-2014 15:00:00 8.86667 C 7.03 g/m*3 8.39 C 5.23333 km/h
1285 03-03-2014 16:00:00 9.29167 C 6.64 g/m*3 9.29 C 3.34167 km/h
1286 03-03-2014 17:00:00 8.425 C 6.88 g/m*3 8.43 C 2.4 km/h
1287 03-03-2014 18:00:00 6.74167 C 6.55 g/m*3 6.74 C 3.86667 km/h
1288 03-03-2014 19:00:00 5.175 C 6.09 g/m*3 5.18 C 4.26667 km/h
1289 03-03-2014 20:00:00 4.325 C 5.85 g/m*3 4.33 C 4.66667 km/h
1290 03-03-2014 21:00:00 4.09167 C 5.73 g/m*3 4.09 C 4 km/h
1291 03-03-2014 22:00:00 3.575 C 5.6 g/m*3 3.58 C 4.66667 km/h
1292 03-03-2014 23:00:00 2.59167 C 5.34 g/m*3 2.59 C 1.33333 km/h
1293 04-03-2014 00:00:00 1.725 C 5.11 g/m*3 1.73 C 0.26667 km/h
1294 04-03-2014 01:00:00 0.95833 C 4.87 g/m*3 0.96 C 0 km/h
1295 04-03-2014 02:00:00 0.41667 C 4.74 g/m*3 0.42 C 0 km/h
1296 04-03-2014 03:00:00 0.21667 C 4.71 g/m*3 0.22 C 0.4 km/h
1297 04-03-2014 04:00:00 -0.175 C 4.6 g/m*3 -0.18 C 0.26667 km/h
1298 04-03-2014 05:00:00 -0.66667 C 4.44 g/m*3 -0.67 C 0 km/h
1299 04-03-2014 06:00:00 -0.80833 C 4.41 g/m*3 -0.81 C 0.53333 km/h
1300 04-03-2014 07:00:00 -0.88333 C 4.41 g/m*3 -0.88 C 0.26667 km/h
Sensor: Nr:Datum:Temp:Abs-Feuchte:Windchill:Wind:
Aussen-T/F 1301 04-03-2014 08:00:00 -0.85833 C 4.43 g/m*3 -0.86 C 0.93333 km/h
1302 04-03-2014 09:00:00 -0.61667 C 4.5 g/m*3 -0.62 C 1.6 km/h
1303 04-03-2014 10:00:00 0.375 C 4.83 g/m*3 0.38 C 0.13333 km/h
1304 04-03-2014 11:00:00 1.85833 C 5.38 g/m*3 1.86 C 0.8 km/h
1305 04-03-2014 12:00:00 5.63333 C 6.64 g/m*3 5.63 C 1.46667 km/h
1306 04-03-2014 13:00:00 9.93333 C 6.99 g/m*3 9.93 C 1.86667 km/h
1307 04-03-2014 14:00:00 11.40833 C 6.43 g/m*3 11.41 C 4.55 km/h
1308 04-03-2014 15:00:00 12.14167 C 5.9 g/m*3 12.14 C 4.81667 km/h
1309 04-03-2014 16:00:00 9.85833 C 6.67 g/m*3 9.86 C 2.8 km/h
1310 04-03-2014 17:00:00 8.95833 C 6.8 g/m*3 8.96 C 2.93333 km/h
1311 04-03-2014 18:00:00 7.35 C 6.39 g/m*3 7.35 C 4.4 km/h
1312 04-03-2014 19:00:00 7.55833 C 6.43 g/m*3 7.56 C 4.66667 km/h
1313 04-03-2014 20:00:00 8.05 C 6.5 g/m*3 8.05 C 3.73333 km/h
1314 04-03-2014 21:00:00 7.09167 C 6.41 g/m*3 7.09 C 2.66667 km/h
1315 04-03-2014 22:00:00 6.20833 C 6.29 g/m*3 6.21 C 2.8 km/h
1316 04-03-2014 23:00:00 5.475 C 6.08 g/m*3 5.48 C 0.66667 km/h
1317 05-03-2014 00:00:00 4.74167 C 5.88 g/m*3 4.74 C 1.33333 km/h
1318 05-03-2014 01:00:00 3.51667 C 5.57 g/m*3 3.52 C 0.26667 km/h
1319 05-03-2014 02:00:00 2.51667 C 5.35 g/m*3 2.52 C 0.53333 km/h
1320 05-03-2014 03:00:00 2.01667 C 5.22 g/m*3 2.02 C 1.33333 km/h
1321 05-03-2014 04:00:00 1.76667 C 5.16 g/m*3 1.77 C 1.86667 km/h
1322 05-03-2014 05:00:00 1.9 C 5.18 g/m*3 1.9 C 2.26667 km/h
1323 05-03-2014 06:00:00 1.5 C 5.08 g/m*3 1.5 C 0.66667 km/h
1324 05-03-2014 07:00:00 2.19167 C 5.28 g/m*3 2.19 C 4.41667 km/h
1325 05-03-2014 08:00:00 2.23333 C 5.22 g/m*3 2.23 C 4.275 km/h
Sensor: Nr:Datum:Temp:Abs-Feuchte:Windchill:Wind:
Aussen-T/F 1326 05-03-2014 09:00:00 2.85833 C 5.48 g/m*3 2.86 C 1.33333 km/h
1327 05-03-2014 10:00:00 4.92 C 6.12 g/m*3 4.92 C 3.06 km/h
1328 05-03-2014 11:00:00 8.6 C 6.79 g/m*3 7.75 C 6.4 km/h
1329 05-03-2014 12:00:00 9.30833 C 6.71 g/m*3 8.4 C 7.10833 km/h
1330 05-03-2014 13:00:00 10.66667 C 7.06 g/m*3 9.48 C 9.7 km/h
1331 05-03-2014 14:00:00 10.1 C 6.34 g/m*3 8.8 C 9.7 km/h
1332 05-03-2014 15:00:00 10.51667 C 6.38 g/m*3 8.83 C 12.76667 km/h
1333 05-03-2014 16:00:00 9.89167 C 6.35 g/m*3 9.2 C 6.575 km/h
1334 05-03-2014 17:00:00 9.56667 C 6.2 g/m*3 8.7 C 7.10833 km/h
1335 05-03-2014 18:00:00 7.45 C 6.06 g/m*3 7.45 C 3.46667 km/h
1336 05-03-2014 19:00:00 5.46667 C 6.02 g/m*3 4.54 C 5.2 km/h
1337 05-03-2014 20:00:00 4.875 C 5.96 g/m*3 4.88 C 4.8 km/h
1338 05-03-2014 21:00:00 3.75833 C 5.71 g/m*3 3.76 C 1.33333 km/h
1339 05-03-2014 22:00:00 2.925 C 5.51 g/m*3 2.93 C 0.4 km/h
1340 05-03-2014 23:00:00 2.175 C 5.3 g/m*3 2.17 C 0 km/h
1341 06-03-2014 00:00:00 1.71667 C 5.17 g/m*3 1.72 C 0.26667 km/h
1342 06-03-2014 01:00:00 1.25833 C 5.02 g/m*3 1.26 C 0 km/h
1343 06-03-2014 02:00:00 0.675 C 4.85 g/m*3 0.68 C 0.13333 km/h
1344 06-03-2014 03:00:00 0.16667 C 4.71 g/m*3 0.17 C 0.13333 km/h
1345 06-03-2014 04:00:00 -0.2 C 4.59 g/m*3 -0.2 C 0 km/h
1346 06-03-2014 05:00:00 -0.61667 C 4.46 g/m*3 -0.62 C 0 km/h
1347 06-03-2014 06:00:00 -0.24167 C 4.62 g/m*3 -0.24 C 1.6 km/h
1348 06-03-2014 07:00:00 -0.10833 C 4.66 g/m*3 -0.11 C 1.06667 km/h
1349 06-03-2014 08:00:00 0.29167 C 4.8 g/m*3 0.29 C 1.06667 km/h
1350 06-03-2014 09:00:00 0.75833 C 4.95 g/m*3 0.76 C 1.46667 km/h
Sensor: Nr:Datum:Temp:Abs-Feuchte:Windchill:Wind:
Aussen-T/F 1351 06-03-2014 10:00:00 1.475 C 5.22 g/m*3 1.48 C 1.86667 km/h
1352 06-03-2014 11:00:00 2.41667 C 5.6 g/m*3 2.42 C 2.4 km/h
1353 06-03-2014 12:00:00 4.25 C 6.34 g/m*3 4.25 C 2.26667 km/h
1354 06-03-2014 13:00:00 7.75 C 7.28 g/m*3 7.75 C 4.26667 km/h
1355 06-03-2014 14:00:00 10.26667 C 7.44 g/m*3 10.27 C 4.54167 km/h
1356 06-03-2014 15:00:00 12.58333 C 7.3 g/m*3 12.58 C 6.41667 km/h
1357 06-03-2014 16:00:00 12.3 C 6.9 g/m*3 12.3 C 5.75833 km/h
1358 06-03-2014 17:00:00 10.175 C 7.01 g/m*3 10.18 C 4.80833 km/h
1359 06-03-2014 18:00:00 7.48333 C 6.47 g/m*3 6.5 C 6.26667 km/h
1360 06-03-2014 19:00:00 6.275 C 6.26 g/m*3 5.32 C 5.6 km/h
1361 06-03-2014 20:00:00 5.275 C 5.97 g/m*3 5.28 C 4.66667 km/h
1362 06-03-2014 21:00:00 4.05833 C 5.65 g/m*3 4.06 C 1.46667 km/h
1363 06-03-2014 22:00:00 3.10833 C 5.35 g/m*3 3.11 C 0.13333 km/h
1364 06-03-2014 23:00:00 1.99167 C 5.07 g/m*3 1.99 C 0 km/h
1365 07-03-2014 00:00:00 1.275 C 4.93 g/m*3 1.27 C 0 km/h
1366 07-03-2014 01:00:00 0.80833 C 4.82 g/m*3 0.81 C 0 km/h
1367 07-03-2014 02:00:00 0.20833 C 4.67 g/m*3 0.21 C 0 km/h
1368 07-03-2014 03:00:00 -0.15 C 4.56 g/m*3 -0.15 C 0 km/h
1369 07-03-2014 04:00:00 -0.36 C 4.52 g/m*3 -0.36 C 0 km/h
1370 07-03-2014 07:00:00 -0.9 C 4.42 g/m*3 -0.9 C 1.6 km/h
1371 07-03-2014 08:00:00 -0.78333 C 4.45 g/m*3 -0.78 C 0.53333 km/h
1372 07-03-2014 09:00:00 -0.15 C 4.65 g/m*3 -0.15 C 0.8 km/h
1373 07-03-2014 10:00:00 0.99 C 5.04 g/m*3 0.99 C 0.8 km/h
1374 07-03-2014 13:00:00 12.16667 C 7.53 g/m*3 12.17 C 3.73333 km/h
1375 07-03-2014 14:00:00 13.80833 C 7.17 g/m*3 13.81 C 4.275 km/h
Sensor: Nr:Datum:Temp:Abs-Feuchte:Windchill:Wind:
Aussen-T/F 1376 07-03-2014 15:00:00 15.15833 C 5.97 g/m*3 15.16 C 7.79167 km/h
1377 07-03-2014 16:00:00 13.975 C 6.67 g/m*3 13.98 C 5.225 km/h
1378 07-03-2014 17:00:00 11.40833 C 7.15 g/m*3 11.41 C 4.26667 km/h
1379 07-03-2014 18:00:00 10.03333 C 6.91 g/m*3 10.03 C 4.93333 km/h
1380 07-03-2014 19:00:00 9.18889 C 6.76 g/m*3 9.19 C 3.91111 km/h
1381 07-03-2014 20:00:00 8.30833 C 6.56 g/m*3 8.31 C 4.14167 km/h
1382 07-03-2014 21:00:00 7.76667 C 6.51 g/m*3 6.86 C 6.15833 km/h
1383 07-03-2014 22:00:00 7.33333 C 6.46 g/m*3 7.33 C 3.6 km/h
1384 07-03-2014 23:00:00 5.49167 C 6.08 g/m*3 5.49 C 0.53333 km/h
1385 08-03-2014 00:00:00 4.8 C 5.9 g/m*3 4.8 C 0.53333 km/h
1386 08-03-2014 01:00:00 4.40833 C 5.86 g/m*3 4.41 C 1.6 km/h
1387 08-03-2014 02:00:00 4.35 C 5.85 g/m*3 4.35 C 0.53333 km/h
1388 08-03-2014 03:00:00 3.625 C 5.62 g/m*3 3.63 C 0 km/h
1389 08-03-2014 04:00:00 3.00833 C 5.49 g/m*3 3.01 C 0.66667 km/h
1390 08-03-2014 05:00:00 2.3 C 5.31 g/m*3 2.3 C 0.26667 km/h
1391 08-03-2014 06:00:00 1.93333 C 5.21 g/m*3 1.93 C 0.26667 km/h
1392 08-03-2014 07:00:00 1.70833 C 5.18 g/m*3 1.71 C 0.4 km/h
1393 08-03-2014 08:00:00 1.89167 C 5.25 g/m*3 1.89 C 0.66667 km/h
1394 08-03-2014 09:00:00 3.09167 C 5.72 g/m*3 3.09 C 0 km/h
1395 08-03-2014 10:00:00 5.45455 C 6.56 g/m*3 5.45 C 0.43636 km/h
1396 08-03-2014 11:00:00 9.66667 C 7.68 g/m*3 9.67 C 2.13333 km/h
1397 08-03-2014 12:00:00 13.74167 C 7.68 g/m*3 13.74 C 7.65833 km/h
1398 08-03-2014 13:00:00 15.45833 C 7.1 g/m*3 15.46 C 8.31667 km/h
1399 08-03-2014 14:00:00 15.8 C 6.92 g/m*3 15.8 C 8.46667 km/h
1400 08-03-2014 15:00:00 16.18333 C 6.88 g/m*3 16.18 C 8.46667 km/h
Sensor: Nr:Datum:Temp:Abs-Feuchte:Windchill:Wind:
Aussen-T/F 1401 08-03-2014 16:00:00 15.40833 C 6.68 g/m*3 15.41 C 6.84167 km/h
1402 08-03-2014 17:00:00 14.025 C 7.02 g/m*3 14.03 C 6.56667 km/h
1403 08-03-2014 18:00:00 10.25833 C 6.89 g/m*3 9.76 C 6.01667 km/h
1404 08-03-2014 19:00:00 8.58333 C 6.67 g/m*3 7.88 C 5.875 km/h
1405 08-03-2014 20:00:00 7.18333 C 6.5 g/m*3 7.18 C 3.46667 km/h
1406 08-03-2014 21:00:00 6.10833 C 6.24 g/m*3 6.11 C 0.66667 km/h
1407 08-03-2014 22:00:00 5.11667 C 5.96 g/m*3 5.12 C 0 km/h
1408 08-03-2014 23:00:00 4.10833 C 5.67 g/m*3 4.11 C 0.13333 km/h
1409 09-03-2014 00:00:00 3.24167 C 5.46 g/m*3 3.24 C 0 km/h
1410 09-03-2014 01:00:00 2.65 C 5.34 g/m*3 2.65 C 0 km/h
1411 09-03-2014 02:00:00 2.03333 C 5.2 g/m*3 2.03 C 0 km/h
1412 09-03-2014 03:00:00 1.66667 C 5.11 g/m*3 1.67 C 0 km/h
1413 09-03-2014 04:00:00 1.23333 C 4.99 g/m*3 1.23 C 0 km/h
1414 09-03-2014 05:00:00 0.90833 C 4.9 g/m*3 0.91 C 0 km/h
1415 09-03-2014 06:00:00 0.29167 C 4.7 g/m*3 0.29 C 0 km/h
1416 09-03-2014 07:00:00 0.1 C 4.68 g/m*3 0.1 C 0 km/h
1417 09-03-2014 08:00:00 0.175 C 4.71 g/m*3 0.18 C 0.13333 km/h
1418 09-03-2014 09:00:00 0.95833 C 5.01 g/m*3 0.96 C 0.13333 km/h
1419 09-03-2014 10:00:00 3.52222 C 5.93 g/m*3 3.52 C 0.71111 km/h
1420 09-03-2014 11:00:00 7.2 C 6.95 g/m*3 7.2 C 1.2 km/h
1421 09-03-2014 12:00:00 11.70833 C 7.68 g/m*3 11.71 C 3.2 km/h
1422 09-03-2014 13:00:00 16.89167 C 6.15 g/m*3 16.89 C 4.95833 km/h
1423 09-03-2014 14:00:00 19.19167 C 4.97 g/m*3 19.19 C 6.01667 km/h
1424 09-03-2014 15:00:00 20.125 C 4.8 g/m*3 20.13 C 5.61667 km/h
1425 09-03-2014 16:00:00 17.30833 C 6.28 g/m*3 17.31 C 4.14167 km/h
Sensor: Nr:Datum:Temp:Abs-Feuchte:Windchill:Wind:
Aussen-T/F 1426 09-03-2014 17:00:00 15.1 C 6.78 g/m*3 15.1 C 5.2 km/h
1427 09-03-2014 18:00:00 12.59167 C 6.53 g/m*3 12.59 C 6.26667 km/h
1428 09-03-2014 19:00:00 10.4 C 6.51 g/m*3 10.15 C 5.2 km/h
1429 09-03-2014 20:00:00 8.61667 C 6.47 g/m*3 8.62 C 2.66667 km/h
1430 09-03-2014 21:00:00 7.29167 C 6.09 g/m*3 7.29 C 0.26667 km/h
1431 09-03-2014 22:00:00 5.89167 C 5.77 g/m*3 5.89 C 0 km/h
1432 09-03-2014 23:00:00 4.50833 C 5.54 g/m*3 4.51 C 0 km/h
1433 10-03-2014 00:00:00 3.70833 C 5.36 g/m*3 3.71 C 0 km/h
1434 10-03-2014 01:00:00 2.775 C 5.21 g/m*3 2.78 C 0 km/h
1435 10-03-2014 02:00:00 2.18333 C 5.09 g/m*3 2.18 C 0 km/h
1436 10-03-2014 03:00:00 1.775 C 5.02 g/m*3 1.78 C 0 km/h
1437 10-03-2014 04:00:00 1.34167 C 4.91 g/m*3 1.34 C 0.13333 km/h
1438 10-03-2014 05:00:00 1.18333 C 4.89 g/m*3 1.18 C 0.13333 km/h
1439 10-03-2014 06:00:00 0.91667 C 4.84 g/m*3 0.92 C 0.26667 km/h
1440 10-03-2014 07:00:00 0.61667 C 4.77 g/m*3 0.62 C 0.13333 km/h
1441 10-03-2014 08:00:00 0.975 C 4.92 g/m*3 0.98 C 0.13333 km/h
1442 10-03-2014 09:00:00 2.44167 C 5.42 g/m*3 2.44 C 0.53333 km/h
1443 10-03-2014 10:00:00 5.16667 C 6.2 g/m*3 5.17 C 0.13333 km/h
1444 10-03-2014 11:00:00 8.03333 C 7 g/m*3 8.03 C 0.8 km/h
1445 10-03-2014 12:00:00 13.2 C 7.55 g/m*3 13.2 C 1.86667 km/h
1446 10-03-2014 13:00:00 16.99167 C 6.86 g/m*3 16.99 C 4.675 km/h
1447 10-03-2014 14:00:00 17.15 C 6.58 g/m*3 17.15 C 2.8 km/h
1448 10-03-2014 15:00:00 17.825 C 6.54 g/m*3 17.83 C 2.93333 km/h
1449 10-03-2014 16:00:00 16.18333 C 6.61 g/m*3 16.18 C 3.33333 km/h
1450 10-03-2014 17:00:00 14.55833 C 6.69 g/m*3 14.56 C 5.46667 km/h
Sensor: Nr:Datum:Temp:Abs-Feuchte:Windchill:Wind:
Aussen-T/F 1451 10-03-2014 18:00:00 12.39167 C 6.22 g/m*3 12.39 C 6.40833 km/h
1452 10-03-2014 19:00:00 10.46667 C 6.2 g/m*3 10.47 C 4.675 km/h
1453 10-03-2014 20:00:00 8.8 C 6.01 g/m*3 8.8 C 1.06667 km/h
1454 10-03-2014 21:00:00 7.61667 C 5.76 g/m*3 7.62 C 0.8 km/h
1455 10-03-2014 22:00:00 6.65 C 5.67 g/m*3 6.65 C 0.66667 km/h
1456 10-03-2014 23:00:00 5.71667 C 5.55 g/m*3 5.72 C 0.53333 km/h
1457 11-03-2014 00:00:00 4.74167 C 5.56 g/m*3 4.74 C 0 km/h
1458 11-03-2014 01:00:00 3.96667 C 5.42 g/m*3 3.97 C 0.26667 km/h
1459 11-03-2014 02:00:00 3.65 C 5.43 g/m*3 3.65 C 0.4 km/h
1460 11-03-2014 03:00:00 3.40833 C 5.43 g/m*3 3.41 C 0.53333 km/h
1461 11-03-2014 04:00:00 3.125 C 5.37 g/m*3 3.13 C 0 km/h
1462 11-03-2014 05:00:00 3.06667 C 5.35 g/m*3 3.07 C 0.8 km/h
1463 11-03-2014 06:00:00 2.34167 C 5.2 g/m*3 2.34 C 0 km/h
1464 11-03-2014 07:00:00 2.30833 C 5.25 g/m*3 2.31 C 0 km/h
1465 11-03-2014 08:00:00 2.8 C 5.47 g/m*3 2.8 C 0.66667 km/h
1466 11-03-2014 09:00:00 5.525 C 6.44 g/m*3 5.53 C 2.66667 km/h
1467 11-03-2014 10:00:00 7.4 C 6.94 g/m*3 7.4 C 2.26667 km/h
1468 11-03-2014 11:00:00 9.625 C 7.32 g/m*3 9.63 C 2.53333 km/h
1469 11-03-2014 12:00:00 12.76667 C 7.92 g/m*3 12.77 C 3.46667 km/h
1470 11-03-2014 13:00:00 15.29167 C 7.97 g/m*3 15.29 C 3.33333 km/h
1471 11-03-2014 14:00:00 16.30833 C 7.78 g/m*3 16.31 C 4.54167 km/h
1472 11-03-2014 15:00:00 17.9 C 7.67 g/m*3 17.9 C 5.35 km/h
1473 11-03-2014 16:00:00 17.075 C 8.02 g/m*3 17.08 C 7.1 km/h
1474 11-03-2014 17:00:00 14.95 C 8.26 g/m*3 14.95 C 3.73333 km/h
1475 11-03-2014 18:00:00 12.04167 C 8.03 g/m*3 12.04 C 5.06667 km/h
Sensor: Nr:Datum:Temp:Abs-Feuchte:Windchill:Wind:
Aussen-T/F 1476 11-03-2014 19:00:00 10.5 C 7.77 g/m*3 10.26 C 5.2 km/h
1477 11-03-2014 20:00:00 9.00833 C 7.07 g/m*3 9.01 C 2.66667 km/h
1478 11-03-2014 21:00:00 8.39167 C 6.71 g/m*3 8.39 C 2.26667 km/h
1479 11-03-2014 22:00:00 7.75 C 6.5 g/m*3 7.75 C 2.66667 km/h
1480 11-03-2014 23:00:00 8.1 C 6.27 g/m*3 8.1 C 4.675 km/h
1481 12-03-2014 00:00:00 7.35833 C 6.18 g/m*3 6.74 C 5.06667 km/h
1482 12-03-2014 01:00:00 6.80833 C 6.22 g/m*3 5.97 C 5.46667 km/h
1483 12-03-2014 02:00:00 6.33333 C 6.26 g/m*3 5.34 C 5.75 km/h
1484 12-03-2014 03:00:00 5.60833 C 6.16 g/m*3 4.75 C 5.06667 km/h
1485 12-03-2014 04:00:00 4.55833 C 5.92 g/m*3 4.56 C 1.46667 km/h
1486 12-03-2014 05:00:00 3.775 C 5.74 g/m*3 3.78 C 0.4 km/h
1487 12-03-2014 06:00:00 2.975 C 5.54 g/m*3 2.98 C 0.13333 km/h
1488 12-03-2014 07:00:00 2.66667 C 5.5 g/m*3 2.67 C 0 km/h
1489 12-03-2014 08:00:00 3 C 5.66 g/m*3 3 C 0.26667 km/h
1490 12-03-2014 09:00:00 4.30833 C 6.25 g/m*3 4.31 C 0 km/h
1491 12-03-2014 10:00:00 7.23333 C 7.3 g/m*3 7.23 C 0.13333 km/h
1492 12-03-2014 11:00:00 10.46667 C 7.41 g/m*3 10.47 C 2.93333 km/h
1493 12-03-2014 12:00:00 14.89167 C 7.54 g/m*3 14.89 C 4.275 km/h
1494 12-03-2014 13:00:00 17.175 C 6.9 g/m*3 17.18 C 5.34167 km/h
1495 12-03-2014 14:00:00 17.64167 C 6.54 g/m*3 17.64 C 6.15 km/h
1496 12-03-2014 15:00:00 18.89167 C 6.09 g/m*3 18.89 C 6.55833 km/h
1497 12-03-2014 16:00:00 17.50833 C 6.22 g/m*3 17.51 C 3.60833 km/h
1498 12-03-2014 17:00:00 15.11667 C 6.8 g/m*3 15.12 C 4.8 km/h
1499 12-03-2014 18:00:00 12.40833 C 6.46 g/m*3 12.41 C 7.10833 km/h
1500 12-03-2014 19:00:00 10.525 C 6.47 g/m*3 10.04 C 6.15833 km/h
Sensor: Nr:Datum:Temp:Abs-Feuchte:Windchill:Wind:
Aussen-T/F 1501 12-03-2014 20:00:00 9.08333 C 6.35 g/m*3 9.08 C 3.73333 km/h
1502 12-03-2014 21:00:00 7.7 C 6.2 g/m*3 7.7 C 0.93333 km/h
1503 12-03-2014 22:00:00 6.33333 C 5.94 g/m*3 6.33 C 0.13333 km/h
1504 12-03-2014 23:00:00 5.50833 C 5.82 g/m*3 5.51 C 0 km/h
1505 13-03-2014 00:00:00 4.44167 C 5.64 g/m*3 4.44 C 0 km/h
1506 13-03-2014 01:00:00 4.11667 C 5.6 g/m*3 4.12 C 0.53333 km/h
1507 13-03-2014 02:00:00 3.56667 C 5.46 g/m*3 3.57 C 0.26667 km/h
1508 13-03-2014 03:00:00 3 C 5.33 g/m*3 3 C 0.4 km/h
1509 13-03-2014 04:00:00 2.325 C 5.16 g/m*3 2.33 C 0.13333 km/h
1510 13-03-2014 05:00:00 1.74167 C 5.04 g/m*3 1.74 C 0.13333 km/h
1511 13-03-2014 06:00:00 1.28333 C 4.93 g/m*3 1.28 C 0.4 km/h
1512 13-03-2014 07:00:00 1.05 C 4.9 g/m*3 1.05 C 0.4 km/h
1513 13-03-2014 08:00:00 1.64167 C 5.13 g/m*3 1.64 C 0 km/h
1514 13-03-2014 09:00:00 3.00833 C 5.56 g/m*3 3.01 C 0 km/h
1515 13-03-2014 10:00:00 5.69167 C 6.33 g/m*3 5.69 C 0 km/h
1516 13-03-2014 11:00:00 8.54167 C 7.02 g/m*3 8.54 C 0.53333 km/h
1517 13-03-2014 12:00:00 13.825 C 7.66 g/m*3 13.83 C 3.46667 km/h
1518 13-03-2014 13:00:00 17.35 C 7.46 g/m*3 17.35 C 2.66667 km/h
1519 13-03-2014 14:00:00 17.55 C 6.62 g/m*3 17.55 C 2.4 km/h
1520 13-03-2014 15:00:00 18.63333 C 6.35 g/m*3 18.63 C 5.50833 km/h
1521 13-03-2014 16:00:00 18.66667 C 5.55 g/m*3 18.67 C 6.83333 km/h
1522 13-03-2014 17:00:00 17.79167 C 5.3 g/m*3 17.79 C 7.39167 km/h
1523 13-03-2014 18:00:00 12.93333 C 6.15 g/m*3 12.93 C 5.225 km/h
1524 13-03-2014 19:00:00 10.64167 C 5.9 g/m*3 10.24 C 5.88333 km/h
1525 13-03-2014 20:00:00 8.79167 C 5.93 g/m*3 8.79 C 1.73333 km/h
Sensor: Nr:Datum:Temp:Abs-Feuchte:Windchill:Wind:
Aussen-T/F 1526 13-03-2014 21:00:00 7.44167 C 5.79 g/m*3 7.44 C 0.53333 km/h
1527 13-03-2014 22:00:00 6.16667 C 5.67 g/m*3 6.17 C 0 km/h
1528 13-03-2014 23:00:00 5.64167 C 5.58 g/m*3 5.64 C 0.26667 km/h
1529 14-03-2014 00:00:00 5.01667 C 5.49 g/m*3 5.02 C 0.66667 km/h
1530 14-03-2014 01:00:00 4.25833 C 5.39 g/m*3 4.26 C 0.4 km/h
1531 14-03-2014 02:00:00 3.49167 C 5.23 g/m*3 3.49 C 0.53333 km/h
1532 14-03-2014 03:00:00 2.64167 C 5.12 g/m*3 2.64 C 0.93333 km/h
1533 14-03-2014 04:00:00 2.00833 C 4.99 g/m*3 2.01 C 0 km/h
1534 14-03-2014 05:00:00 1.65833 C 4.96 g/m*3 1.66 C 0.93333 km/h
1535 14-03-2014 06:00:00 1.25833 C 4.85 g/m*3 1.26 C 1.06667 km/h
1536 14-03-2014 07:00:00 1.05833 C 4.84 g/m*3 1.06 C 0.4 km/h
1537 14-03-2014 08:00:00 1.475 C 5.03 g/m*3 1.48 C 0.26667 km/h
1538 14-03-2014 09:00:00 3.04167 C 5.54 g/m*3 3.04 C 0 km/h
1539 14-03-2014 10:00:00 6.05 C 6.26 g/m*3 6.05 C 0 km/h
1540 14-03-2014 11:00:00 9.03333 C 6.86 g/m*3 9.03 C 2 km/h
1541 14-03-2014 12:00:00 13.40833 C 7.69 g/m*3 13.41 C 2.8 km/h
1542 14-03-2014 13:00:00 15.81667 C 7.42 g/m*3 15.82 C 3.6 km/h
1543 14-03-2014 14:00:00 16.28333 C 6.78 g/m*3 16.28 C 4.26667 km/h
1544 14-03-2014 15:00:00 17.44167 C 6.61 g/m*3 17.44 C 3.2 km/h
1545 14-03-2014 16:00:00 17.06667 C 6.44 g/m*3 17.07 C 4 km/h
1546 14-03-2014 17:00:00 14.5 C 7.55 g/m*3 14.5 C 2.26667 km/h
1547 14-03-2014 18:00:00 12.15833 C 7.32 g/m*3 12.16 C 5.2 km/h
1548 14-03-2014 19:00:00 10.28333 C 7.12 g/m*3 10.28 C 4.13333 km/h
1549 14-03-2014 20:00:00 9.50833 C 7.16 g/m*3 9.51 C 3.60833 km/h
1550 14-03-2014 21:00:00 8.33333 C 6.93 g/m*3 8.33 C 1.86667 km/h
Sensor: Nr:Datum:Temp:Abs-Feuchte:Windchill:Wind:
Aussen-T/F 1551 14-03-2014 22:00:00 7 C 6.65 g/m*3 7 C 1.46667 km/h
1552 14-03-2014 23:00:00 7.275 C 6.56 g/m*3 7.28 C 3.73333 km/h
1553 15-03-2014 00:00:00 6.80833 C 6.38 g/m*3 5.92 C 5.61667 km/h
1554 15-03-2014 01:00:00 7.175 C 6.39 g/m*3 6.06 C 6.56667 km/h
1555 15-03-2014 02:00:00 7.23333 C 6.34 g/m*3 6.2 C 6.3 km/h
1556 15-03-2014 03:00:00 7.175 C 6.22 g/m*3 6.22 C 6.01667 km/h
1557 15-03-2014 04:00:00 7.675 C 6.28 g/m*3 7.04 C 5.21667 km/h
1558 15-03-2014 05:00:00 8.48333 C 6.57 g/m*3 7.88 C 5.5 km/h
1559 15-03-2014 06:00:00 9.2 C 7.03 g/m*3 8.33 C 6.84167 km/h
1560 15-03-2014 07:00:00 9.58333 C 7.16 g/m*3 7.99 C 10.875 km/h
1561 15-03-2014 08:00:00 9.21667 C 7.44 g/m*3 7.05 C 14.225 km/h
1562 15-03-2014 09:00:00 8.375 C 7.68 g/m*3 6.65 C 10.20833 km/h
1563 15-03-2014 10:00:00 8.525 C 7.65 g/m*3 6.53 C 11.95833 km/h
1564 15-03-2014 11:00:00 7.975 C 7.39 g/m*3 6.33 C 9.39167 km/h
1565 15-03-2014 12:00:00 8.51667 C 7.39 g/m*3 6.97 C 9.41667 km/h
1566 15-03-2014 13:00:00 9.88333 C 7.14 g/m*3 8.01 C 13.16667 km/h
1567 15-03-2014 14:00:00 10.36667 C 6.52 g/m*3 8.24 C 16.1 km/h
1568 15-03-2014 15:00:00 10.8 C 6.13 g/m*3 9.04 C 13.83333 km/h
1569 15-03-2014 16:00:00 10.65833 C 5.96 g/m*3 9.23 C 11.16667 km/h
1570 15-03-2014 17:00:00 10.46667 C 6.14 g/m*3 9.29 C 9.41667 km/h
1571 15-03-2014 18:00:00 10.1 C 6.4 g/m*3 9.51 C 6.28333 km/h
1572 15-03-2014 19:00:00 9.54167 C 6.79 g/m*3 8.97 C 5.89167 km/h
1573 15-03-2014 20:00:00 9.51667 C 6.87 g/m*3 8.37 C 8.33333 km/h
1574 15-03-2014 21:00:00 9.44167 C 6.92 g/m*3 7.77 C 11.15833 km/h
1575 15-03-2014 22:00:00 9.30833 C 6.97 g/m*3 7.91 C 9.43333 km/h
Sensor: Nr:Datum:Temp:Abs-Feuchte:Windchill:Wind:
Aussen-T/F 1576 15-03-2014 23:00:00 9.33333 C 6.98 g/m*3 8.02 C 9.00833 km/h
1577 16-03-2014 00:00:00 9.58333 C 7.02 g/m*3 7.7 C 12.76667 km/h
1578 16-03-2014 01:00:00 9.83333 C 7.11 g/m*3 7.82 C 14.1 km/h
1579 16-03-2014 02:00:00 9.70833 C 7.27 g/m*3 7.95 C 12.09167 km/h
1580 16-03-2014 03:00:00 9.875 C 7.36 g/m*3 8.23 C 11.55833 km/h
1581 16-03-2014 04:00:00 10.10833 C 7.51 g/m*3 8.77 C 9.95833 km/h
1582 16-03-2014 05:00:00 10.475 C 7.66 g/m*3 8.71 C 13.3 km/h
1583 16-03-2014 06:00:00 10.33333 C 7.72 g/m*3 8.78 C 11.56667 km/h
1584 16-03-2014 07:00:00 10.68333 C 7.85 g/m*3 9.22 C 11.43333 km/h
1585 16-03-2014 08:00:00 10.66667 C 7.84 g/m*3 9.15 C 11.83333 km/h
1586 16-03-2014 09:00:00 11 C 7.94 g/m*3 9.27 C 13.96667 km/h
1587 16-03-2014 10:00:00 11.38333 C 8.02 g/m*3 11.38 C 16.36667 km/h
1588 16-03-2014 11:00:00 12.95833 C 8.43 g/m*3 12.96 C 15.16667 km/h
1589 16-03-2014 12:00:00 14.74167 C 8.81 g/m*3 14.74 C 12.1 km/h
1590 16-03-2014 13:00:00 15.04167 C 8.92 g/m*3 15.04 C 9.925 km/h
1591 16-03-2014 14:00:00 15.125 C 8.8 g/m*3 15.13 C 13.56667 km/h
1592 16-03-2014 15:00:00 15.5 C 8.8 g/m*3 15.5 C 17.03333 km/h
1593 16-03-2014 16:00:00 14.69167 C 8.59 g/m*3 14.69 C 16.375 km/h
1594 16-03-2014 17:00:00 14.725 C 8.7 g/m*3 14.73 C 12.23333 km/h
1595 16-03-2014 18:00:00 13.125 C 8.37 g/m*3 13.13 C 4.4 km/h
1596 16-03-2014 19:00:00 10.25 C 7.92 g/m*3 10.25 C 3.86667 km/h
1597 16-03-2014 20:00:00 9.55 C 7.83 g/m*3 9.55 C 3.73333 km/h
1598 16-03-2014 21:00:00 9.40833 C 7.76 g/m*3 9.41 C 3.2 km/h
1599 16-03-2014 22:00:00 9.55833 C 7.72 g/m*3 9.56 C 4.68333 km/h
1600 16-03-2014 23:00:00 7.79167 C 7.24 g/m*3 7.79 C 1.73333 km/h
Sensor: Nr:Datum:Temp:Abs-Feuchte:Windchill:Wind:
Aussen-T/F 1601 17-03-2014 00:00:00 7.09167 C 7.09 g/m*3 7.09 C 0.93333 km/h
1602 17-03-2014 01:00:00 7.13333 C 7.13 g/m*3 6.43 C 5.21667 km/h
1603 17-03-2014 02:00:00 7.08333 C 7.13 g/m*3 5.63 C 7.8 km/h
1604 17-03-2014 03:00:00 7.475 C 7.28 g/m*3 6.02 C 8.075 km/h
1605 17-03-2014 04:00:00 7.90833 C 7.39 g/m*3 6.66 C 7.525 km/h
1606 17-03-2014 05:00:00 8.23333 C 7.47 g/m*3 6.8 C 8.61667 km/h
1607 17-03-2014 06:00:00 8.31667 C 7.51 g/m*3 6.9 C 8.59167 km/h
1608 17-03-2014 07:00:00 8.73333 C 7.63 g/m*3 7.45 C 8.34167 km/h
1609 17-03-2014 08:00:00 9.225 C 7.78 g/m*3 8 C 8.48333 km/h
1610 17-03-2014 09:00:00 10 C 7.98 g/m*3 8.99 C 8.06667 km/h
1611 17-03-2014 10:00:00 11.125 C 8.17 g/m*3 11.13 C 9.29167 km/h
1612 17-03-2014 11:00:00 11.9 C 8.26 g/m*3 11.9 C 11.56667 km/h
1613 17-03-2014 12:00:00 12.66667 C 8.37 g/m*3 12.67 C 8.75 km/h
1614 17-03-2014 13:00:00 13.05 C 8.53 g/m*3 13.05 C 7.25 km/h
1615 17-03-2014 14:00:00 13.84167 C 8.46 g/m*3 13.84 C 9.68333 km/h
1616 17-03-2014 15:00:00 13.725 C 8.18 g/m*3 13.73 C 11.7 km/h
1617 17-03-2014 16:00:00 13.13333 C 7.92 g/m*3 13.13 C 8.05833 km/h
1618 17-03-2014 17:00:00 12.875 C 7.83 g/m*3 12.88 C 6.28333 km/h
1619 17-03-2014 18:00:00 12.28333 C 7.77 g/m*3 12.28 C 5.49167 km/h
1620 17-03-2014 19:00:00 11.225 C 7.7 g/m*3 11.23 C 1.06667 km/h
1621 17-03-2014 20:00:00 10.34167 C 7.68 g/m*3 10.34 C 1.73333 km/h
1622 17-03-2014 21:00:00 9.85833 C 7.71 g/m*3 9.86 C 1.33333 km/h
1623 17-03-2014 22:00:00 9.75833 C 7.7 g/m*3 9.76 C 2.4 km/h
1624 17-03-2014 23:00:00 9.70833 C 7.66 g/m*3 9.71 C 2.26667 km/h
1625 18-03-2014 00:00:00 8.375 C 7.31 g/m*3 8.38 C 0.93333 km/h
Sensor: Nr:Datum:Temp:Abs-Feuchte:Windchill:Wind:
Aussen-T/F 1626 18-03-2014 01:00:00 8.3 C 7.44 g/m*3 8.3 C 0.93333 km/h
1627 18-03-2014 02:00:00 8.69167 C 7.51 g/m*3 8.69 C 1.2 km/h
1628 18-03-2014 03:00:00 8.54167 C 7.44 g/m*3 8.54 C 2.26667 km/h
1629 18-03-2014 04:00:00 7.73333 C 7.22 g/m*3 7.73 C 1.2 km/h
1630 18-03-2014 05:00:00 7.53333 C 7.18 g/m*3 7.53 C 1.73333 km/h
1631 18-03-2014 06:00:00 7.65833 C 7.28 g/m*3 7.66 C 3.46667 km/h
1632 18-03-2014 07:00:00 7.98333 C 7.47 g/m*3 7.18 C 5.9 km/h
1633 18-03-2014 08:00:00 8.51667 C 7.62 g/m*3 7.65 C 6.43333 km/h
1634 18-03-2014 09:00:00 8.58333 C 7.69 g/m*3 7.48 C 7.39167 km/h
1635 18-03-2014 10:00:00 8.70833 C 7.62 g/m*3 6.61 C 12.9 km/h
1636 18-03-2014 11:00:00 8.56667 C 7.75 g/m*3 7.47 C 7.375 km/h
1637 18-03-2014 12:00:00 9.04167 C 7.92 g/m*3 7.6 C 9.40833 km/h
1638 18-03-2014 13:00:00 9.45833 C 7.89 g/m*3 8.7 C 6.56667 km/h
1639 18-03-2014 14:00:00 10.425 C 8 g/m*3 9.44 C 8.31667 km/h
1640 18-03-2014 15:00:00 11.24167 C 8.05 g/m*3 11.24 C 10.63333 km/h
1641 18-03-2014 16:00:00 11.38333 C 7.84 g/m*3 11.38 C 12.1 km/h
1642 18-03-2014 17:00:00 11.44167 C 7.79 g/m*3 11.44 C 6.95833 km/h
1643 18-03-2014 18:00:00 11.38333 C 7.73 g/m*3 11.38 C 11.425 km/h
1644 18-03-2014 19:00:00 11.26667 C 7.41 g/m*3 11.27 C 11.56667 km/h
1645 18-03-2014 20:00:00 10.84167 C 7.05 g/m*3 8.76 C 16.76667 km/h
1646 18-03-2014 21:00:00 10.44167 C 6.88 g/m*3 8.15 C 17.83333 km/h
1647 18-03-2014 22:00:00 9.775 C 7.07 g/m*3 8.01 C 12.23333 km/h
1648 18-03-2014 23:00:00 9.86667 C 7.17 g/m*3 7.95 C 13.43333 km/h
1649 19-03-2014 00:00:00 9.80833 C 7.38 g/m*3 7.99 C 12.625 km/h
1650 19-03-2014 01:00:00 9.75833 C 7.56 g/m*3 7.97 C 12.35833 km/h
Sensor: Nr:Datum:Temp:Abs-Feuchte:Windchill:Wind:
Aussen-T/F 1651 19-03-2014 02:00:00 9.63333 C 7.68 g/m*3 8.09 C 10.6 km/h
1652 19-03-2014 03:00:00 9.925 C 7.56 g/m*3 8.15 C 12.5 km/h
1653 19-03-2014 04:00:00 9.9 C 7.52 g/m*3 8.52 C 9.94167 km/h
1654 19-03-2014 05:00:00 9.975 C 7.48 g/m*3 8.29 C 11.96667 km/h
1655 19-03-2014 06:00:00 9.84167 C 7.49 g/m*3 8.57 C 9.26667 km/h
1656 19-03-2014 07:00:00 9.925 C 7.48 g/m*3 9.14 C 6.975 km/h
1657 19-03-2014 08:00:00 10.26667 C 7.57 g/m*3 8.81 C 10.88333 km/h
1658 19-03-2014 09:00:00 10.875 C 7.64 g/m*3 9.68 C 9.95833 km/h
1659 19-03-2014 10:00:00 11.88333 C 7.71 g/m*3 11.88 C 15.16667 km/h
1660 19-03-2014 11:00:00 13.14167 C 7.43 g/m*3 13.14 C 15.03333 km/h
1661 19-03-2014 12:00:00 14.28333 C 7.51 g/m*3 14.28 C 16.76667 km/h
1662 19-03-2014 13:00:00 15.74167 C 7.71 g/m*3 15.74 C 16.76667 km/h
1663 19-03-2014 14:00:00 15.84167 C 7.75 g/m*3 15.84 C 18.23333 km/h
1664 19-03-2014 15:00:00 16.575 C 7.62 g/m*3 16.58 C 16.23333 km/h
1665 19-03-2014 16:00:00 16.54167 C 7.53 g/m*3 16.54 C 13.56667 km/h
1666 19-03-2014 17:00:00 15.88333 C 7.76 g/m*3 15.88 C 13.3 km/h
1667 19-03-2014 18:00:00 14.56667 C 7.85 g/m*3 14.57 C 9.53333 km/h
1668 19-03-2014 19:00:00 13.35833 C 7.69 g/m*3 13.36 C 8.86667 km/h
1669 19-03-2014 20:00:00 12.35833 C 7.54 g/m*3 12.36 C 8.74167 km/h
1670 19-03-2014 21:00:00 12.08333 C 7.45 g/m*3 12.08 C 9.96667 km/h
1671 19-03-2014 22:00:00 11.675 C 7.39 g/m*3 11.68 C 11.425 km/h
1672 19-03-2014 23:00:00 11.05833 C 7.36 g/m*3 11.06 C 8.59167 km/h
1673 20-03-2014 00:00:00 10.21667 C 7.26 g/m*3 9.42 C 7.25 km/h
1674 20-03-2014 01:00:00 9.23333 C 7.14 g/m*3 8.82 C 5.21667 km/h
1675 20-03-2014 02:00:00 8.69167 C 7.04 g/m*3 7.96 C 6.025 km/h
Sensor: Nr:Datum:Temp:Abs-Feuchte:Windchill:Wind:
Aussen-T/F 1676 20-03-2014 03:00:00 7.71667 C 6.81 g/m*3 7.72 C 2.4 km/h
1677 20-03-2014 04:00:00 6.36667 C 6.59 g/m*3 6.37 C 1.46667 km/h
1678 20-03-2014 05:00:00 5.48333 C 6.34 g/m*3 5.48 C 1.2 km/h
1679 20-03-2014 06:00:00 4.775 C 6.18 g/m*3 4.78 C 0.53333 km/h
1680 20-03-2014 07:00:00 4.56667 C 6.19 g/m*3 4.57 C 0 km/h
1681 20-03-2014 08:00:00 5.225 C 6.49 g/m*3 5.23 C 0.53333 km/h
1682 20-03-2014 09:00:00 6.96667 C 7.15 g/m*3 6.97 C 1.86667 km/h
1683 20-03-2014 10:00:00 10.275 C 7.74 g/m*3 10.28 C 3.33333 km/h
1684 20-03-2014 11:00:00 14.79167 C 7.69 g/m*3 14.79 C 5.20833 km/h
1685 20-03-2014 12:00:00 18.85833 C 6.57 g/m*3 18.86 C 10.20833 km/h
1686 20-03-2014 13:00:00 19.83333 C 6.47 g/m*3 19.83 C 7.78333 km/h
1687 20-03-2014 14:00:00 20.29167 C 6.72 g/m*3 20.29 C 9 km/h
1688 20-03-2014 15:00:00 20.98333 C 6.91 g/m*3 20.98 C 5.61667 km/h
1689 20-03-2014 16:00:00 21.96667 C 6.57 g/m*3 21.97 C 8.60833 km/h
1690 20-03-2014 17:00:00 21.78889 C 6.2 g/m*3 21.79 C 7.52222 km/h
1691 20-03-2014 18:00:00 17.44167 C 6.97 g/m*3 17.44 C 4.93333 km/h
1692 20-03-2014 19:00:00 14.35 C 7.18 g/m*3 14.35 C 5.86667 km/h
1693 20-03-2014 20:00:00 13.8 C 7.37 g/m*3 13.8 C 5.06667 km/h
1694 20-03-2014 21:00:00 13.53333 C 7.54 g/m*3 13.53 C 3.86667 km/h
1695 20-03-2014 22:00:00 12.79167 C 7.61 g/m*3 12.79 C 4.26667 km/h
1696 20-03-2014 23:00:00 12.21667 C 7.68 g/m*3 12.22 C 2.8 km/h
1697 21-03-2014 00:00:00 11.66667 C 7.72 g/m*3 11.67 C 2.93333 km/h
1698 21-03-2014 01:00:00 10.79167 C 7.64 g/m*3 10.79 C 1.2 km/h
1699 21-03-2014 02:00:00 9.78333 C 7.45 g/m*3 9.78 C 2.8 km/h
1700 21-03-2014 03:00:00 12.85 C 7.95 g/m*3 12.85 C 10.85833 km/h
Sensor: Nr:Datum:Temp:Abs-Feuchte:Windchill:Wind:
Aussen-T/F 1701 21-03-2014 04:00:00 15.675 C 8.06 g/m*3 15.68 C 15.7 km/h
1702 21-03-2014 05:00:00 15.5 C 8.02 g/m*3 15.5 C 17.43333 km/h
1703 21-03-2014 06:00:00 15.31667 C 7.82 g/m*3 15.32 C 21.73333 km/h
1704 21-03-2014 07:00:00 15.3 C 7.94 g/m*3 15.3 C 23.46667 km/h
1705 21-03-2014 08:00:00 15.45 C 7.78 g/m*3 15.45 C 22.78333 km/h
1706 21-03-2014 09:00:00 15.725 C 7.49 g/m*3 15.73 C 25.075 km/h
1707 21-03-2014 10:00:00 16.00833 C 7.27 g/m*3 16.01 C 20.78333 km/h
1708 21-03-2014 11:00:00 16.88333 C 7.05 g/m*3 16.88 C 21.44167 km/h
1709 21-03-2014 12:00:00 16.70833 C 7.71 g/m*3 16.71 C 21.43333 km/h
1710 21-03-2014 13:00:00 15.81667 C 7.87 g/m*3 15.82 C 19.975 km/h
1711 21-03-2014 14:00:00 14.88333 C 8.24 g/m*3 14.88 C 19.03333 km/h
1712 21-03-2014 15:00:00 14.375 C 8.34 g/m*3 14.38 C 17.43333 km/h
1713 21-03-2014 16:00:00 13.78333 C 7.28 g/m*3 13.78 C 16.10833 km/h
1714 21-03-2014 17:00:00 12.08333 C 7.34 g/m*3 12.08 C 9 km/h
1715 21-03-2014 18:00:00 11.125 C 7.05 g/m*3 11.13 C 6.15833 km/h
1716 21-03-2014 19:00:00 9.93333 C 6.88 g/m*3 9.93 C 0.66667 km/h
1717 21-03-2014 20:00:00 9.19167 C 6.79 g/m*3 9.19 C 1.86667 km/h
1718 21-03-2014 21:00:00 8.91667 C 6.76 g/m*3 8.92 C 2.4 km/h
1719 21-03-2014 22:00:00 8.78333 C 6.95 g/m*3 8.78 C 0.93333 km/h
1720 21-03-2014 23:00:00 8.75 C 7.26 g/m*3 8.75 C 0.53333 km/h
1721 22-03-2014 00:00:00 8.575 C 7.34 g/m*3 8.57 C 1.33333 km/h
1722 22-03-2014 01:00:00 7.83333 C 7.29 g/m*3 7.83 C 1.2 km/h
1723 22-03-2014 02:00:00 7.76667 C 7.26 g/m*3 7.77 C 2.4 km/h
1724 22-03-2014 03:00:00 7.45 C 7.26 g/m*3 7.45 C 1.86667 km/h
1725 22-03-2014 04:00:00 8.21667 C 7.57 g/m*3 8.22 C 0.13333 km/h
Sensor: Nr:Datum:Temp:Abs-Feuchte:Windchill:Wind:
Aussen-T/F 1726 22-03-2014 05:00:00 8.3 C 7.55 g/m*3 8.3 C 0 km/h
1727 22-03-2014 06:00:00 8.45 C 7.78 g/m*3 8.45 C 1.6 km/h
1728 22-03-2014 07:00:00 8.475 C 7.86 g/m*3 8.48 C 1.6 km/h
1729 22-03-2014 08:00:00 9.74167 C 7.6 g/m*3 9.03 C 6.575 km/h
1730 22-03-2014 09:00:00 10.5 C 7.06 g/m*3 8.8 C 12.89167 km/h
1731 22-03-2014 10:00:00 11.01667 C 6.81 g/m*3 11.02 C 13.03333 km/h
1732 22-03-2014 11:00:00 11.06667 C 6.75 g/m*3 11.07 C 9 km/h
1733 22-03-2014 12:00:00 12.41667 C 6.93 g/m*3 12.42 C 11.95 km/h
1734 22-03-2014 13:00:00 12.95833 C 6.64 g/m*3 12.96 C 11.95833 km/h
1735 22-03-2014 14:00:00 12.51667 C 6.77 g/m*3 12.52 C 7.79167 km/h
1736 22-03-2014 15:00:00 10.475 C 7.69 g/m*3 9.02 C 11.14167 km/h
1737 22-03-2014 16:00:00 11.01667 C 7.38 g/m*3 11.02 C 12.49167 km/h
1738 22-03-2014 17:00:00 7.75 C 6.93 g/m*3 5.73 C 11.14167 km/h
1739 22-03-2014 18:00:00 6.24167 C 6.76 g/m*3 6.24 C 2.8 km/h
1740 22-03-2014 19:00:00 5.675 C 6.72 g/m*3 5.68 C 3.06667 km/h
1741 22-03-2014 20:00:00 5.75 C 6.73 g/m*3 5.75 C 2.53333 km/h
1742 22-03-2014 21:00:00 5.51667 C 6.6 g/m*3 5.52 C 2 km/h
1743 22-03-2014 22:00:00 4.89167 C 6.4 g/m*3 4.89 C 3.2 km/h
1744 22-03-2014 23:00:00 5.05 C 6.44 g/m*3 5.05 C 3.86667 km/h
1745 23-03-2014 00:00:00 4.64167 C 6.28 g/m*3 4.64 C 3.46667 km/h
1746 23-03-2014 01:00:00 4.73333 C 6.36 g/m*3 4.73 C 1.6 km/h
1747 23-03-2014 02:00:00 4.66667 C 6.33 g/m*3 4.67 C 1.06667 km/h
1748 23-03-2014 03:00:00 4.26667 C 6.21 g/m*3 4.27 C 0.26667 km/h
1749 23-03-2014 04:00:00 5.00833 C 6.49 g/m*3 5.01 C 3.21667 km/h
1750 23-03-2014 05:00:00 5.10833 C 6.32 g/m*3 5.11 C 2.4 km/h
Sensor: Nr:Datum:Temp:Abs-Feuchte:Windchill:Wind:
Aussen-T/F 1751 23-03-2014 06:00:00 4.06667 C 5.94 g/m*3 4.07 C 1.33333 km/h
1752 23-03-2014 07:00:00 3.99167 C 6 g/m*3 3.99 C 1.86667 km/h
1753 23-03-2014 08:00:00 5.25833 C 6.12 g/m*3 3.49 C 7.8 km/h
1754 23-03-2014 09:00:00 5.925 C 5.87 g/m*3 3.38 C 11.95833 km/h
1755 23-03-2014 10:00:00 6.96667 C 5.83 g/m*3 4.51 C 12.75833 km/h
1756 23-03-2014 11:00:00 7.13333 C 5.64 g/m*3 4.59 C 13.56667 km/h
1757 23-03-2014 12:00:00 8.25 C 5.59 g/m*3 5.68 C 15.56667 km/h
1758 23-03-2014 13:00:00 8.69167 C 5.46 g/m*3 6.26 C 15.3 km/h
1759 23-03-2014 14:00:00 8.89167 C 5.5 g/m*3 6.6 C 14.63333 km/h
1760 23-03-2014 15:00:00 8.84167 C 5.43 g/m*3 6.79 C 12.76667 km/h
1761 23-03-2014 16:00:00 8.73333 C 5.59 g/m*3 6.66 C 12.76667 km/h
1762 23-03-2014 17:00:00 8.41667 C 5.68 g/m*3 6.73 C 10.075 km/h
1763 23-03-2014 18:00:00 8.09167 C 5.93 g/m*3 8.09 C 2.53333 km/h
1764 23-03-2014 19:00:00 6.48333 C 5.91 g/m*3 6.48 C 2.53333 km/h
1765 23-03-2014 20:00:00 5.75 C 5.81 g/m*3 5.75 C 1.2 km/h
1766 23-03-2014 21:00:00 4.71667 C 5.62 g/m*3 4.72 C 2.93333 km/h
1767 23-03-2014 22:00:00 3.44167 C 5.42 g/m*3 3.44 C 2.13333 km/h
1768 23-03-2014 23:00:00 2.76667 C 5.35 g/m*3 2.77 C 0.66667 km/h
1769 24-03-2014 00:00:00 3.24167 C 5.43 g/m*3 3.24 C 1.73333 km/h
1770 24-03-2014 01:00:00 3.38333 C 5.42 g/m*3 3.38 C 4.3 km/h
1771 24-03-2014 02:00:00 3.14167 C 5.38 g/m*3 3.14 C 1.74167 km/h
1772 24-03-2014 03:00:00 3.05 C 5.37 g/m*3 3.05 C 0.4 km/h
1773 24-03-2014 04:00:00 3.35 C 5.38 g/m*3 3.35 C 1.6 km/h
1774 24-03-2014 05:00:00 3.21667 C 5.34 g/m*3 3.22 C 0.53333 km/h
1775 24-03-2014 06:00:00 3.03333 C 5.34 g/m*3 3.03 C 0.8 km/h
Sensor: Nr:Datum:Temp:Abs-Feuchte:Windchill:Wind:
Aussen-T/F 1776 24-03-2014 07:00:00 3.3 C 5.39 g/m*3 3.3 C 3.86667 km/h
1777 24-03-2014 08:00:00 4.14167 C 5.65 g/m*3 2.73 C 6.01667 km/h
1778 24-03-2014 09:00:00 4.78333 C 5.68 g/m*3 3.61 C 5.60833 km/h
1779 24-03-2014 10:00:00 5.48333 C 5.83 g/m*3 5.48 C 3.86667 km/h
1780 24-03-2014 11:00:00 6.875 C 6 g/m*3 6.18 C 5.08333 km/h
1781 24-03-2014 12:00:00 8.4 C 5.89 g/m*3 7.37 C 6.96667 km/h
1782 24-03-2014 13:00:00 9.425 C 5.89 g/m*3 8.23 C 8.475 km/h
1783 24-03-2014 14:00:00 9.925 C 5.62 g/m*3 8.5 C 10.225 km/h
1784 24-03-2014 15:00:00 9.075 C 5.71 g/m*3 7.61 C 9.54167 km/h
1785 24-03-2014 16:00:00 9.35 C 5.75 g/m*3 8.61 C 6.43333 km/h
1786 24-03-2014 17:00:00 9.18333 C 5.78 g/m*3 9.18 C 3.74167 km/h
1787 24-03-2014 18:00:00 6.20833 C 5.79 g/m*3 6.21 C 4 km/h
1788 24-03-2014 19:00:00 6.275 C 5.85 g/m*3 6.28 C 1.6 km/h
1789 24-03-2014 20:00:00 6.18333 C 5.89 g/m*3 6.18 C 2.675 km/h
1790 24-03-2014 21:00:00 4.41667 C 5.47 g/m*3 4.42 C 2.93333 km/h
1791 24-03-2014 22:00:00 3.31667 C 5.31 g/m*3 3.32 C 1.06667 km/h
1792 24-03-2014 23:00:00 2.21667 C 5.09 g/m*3 2.22 C 0 km/h
1793 25-03-2014 00:00:00 1.66667 C 4.99 g/m*3 1.67 C 0.13333 km/h
1794 25-03-2014 01:00:00 1.05833 C 4.84 g/m*3 1.06 C 0.66667 km/h
1795 25-03-2014 02:00:00 0.75833 C 4.79 g/m*3 0.76 C 0.26667 km/h
1796 25-03-2014 03:00:00 0.29167 C 4.67 g/m*3 0.29 C 0.26667 km/h
1797 25-03-2014 04:00:00 0.58333 C 4.82 g/m*3 0.58 C 0.26667 km/h
1798 25-03-2014 05:00:00 0.28333 C 4.73 g/m*3 0.28 C 0.66667 km/h
1799 25-03-2014 06:00:00 0.34167 C 4.76 g/m*3 0.34 C 0.8 km/h
1800 25-03-2014 07:00:00 0.76667 C 4.9 g/m*3 0.77 C 1.33333 km/h
Sensor: Nr:Datum:Temp:Abs-Feuchte:Windchill:Wind:
Aussen-T/F 1801 25-03-2014 08:00:00 1.23333 C 5.06 g/m*3 1.23 C 2.93333 km/h
1802 25-03-2014 09:00:00 2.39167 C 5.45 g/m*3 2.39 C 3.2 km/h
1803 25-03-2014 10:00:00 3.94167 C 5.72 g/m*3 3.94 C 1.6 km/h
1804 25-03-2014 11:00:00 6.825 C 6.19 g/m*3 6.83 C 4.68333 km/h
1805 25-03-2014 12:00:00 8.68333 C 5.9 g/m*3 8.23 C 5.08333 km/h
1806 25-03-2014 13:00:00 8.88333 C 5.74 g/m*3 8.88 C 3.73333 km/h
1807 25-03-2014 14:00:00 8.525 C 5.27 g/m*3 7.23 C 8.2 km/h
1808 25-03-2014 15:00:00 9.2 C 5.34 g/m*3 8.37 C 6.7 km/h
1809 25-03-2014 16:00:00 10.4 C 5.48 g/m*3 9.34 C 8.71667 km/h
1810 25-03-2014 17:00:00 9.88333 C 5.69 g/m*3 8.74 C 8.625 km/h
1811 25-03-2014 18:00:00 7.91667 C 5.54 g/m*3 7.32 C 5.20833 km/h
1812 25-03-2014 19:00:00 5.34167 C 5.18 g/m*3 4.11 C 6.00833 km/h
1813 25-03-2014 20:00:00 3.99167 C 5.18 g/m*3 3.99 C 3.86667 km/h
1814 25-03-2014 21:00:00 3.05833 C 5.09 g/m*3 3.06 C 2 km/h
1815 25-03-2014 22:00:00 2.35833 C 5.01 g/m*3 2.36 C 1.06667 km/h
1816 25-03-2014 23:00:00 1.51667 C 4.81 g/m*3 1.52 C 0.53333 km/h
1817 26-03-2014 00:00:00 0.88333 C 4.68 g/m*3 0.88 C 0 km/h
1818 26-03-2014 01:00:00 0.36667 C 4.58 g/m*3 0.37 C 0 km/h
1819 26-03-2014 02:00:00 0.10833 C 4.56 g/m*3 0.11 C 0 km/h
1820 26-03-2014 03:00:00 0.30833 C 4.64 g/m*3 0.31 C 0.13333 km/h
1821 26-03-2014 04:00:00 -0.24167 C 4.48 g/m*3 -0.24 C 0.13333 km/h
1822 26-03-2014 05:00:00 -0.54167 C 4.4 g/m*3 -0.54 C 0.13333 km/h
1823 26-03-2014 06:00:00 -0.76667 C 4.36 g/m*3 -0.77 C 0 km/h
1824 26-03-2014 07:00:00 -0.725 C 4.38 g/m*3 -0.73 C 0.26667 km/h
1825 26-03-2014 08:00:00 -0.01667 C 4.64 g/m*3 -0.02 C 0 km/h
Sensor: Nr:Datum:Temp:Abs-Feuchte:Windchill:Wind:
Aussen-T/F 1826 26-03-2014 09:00:00 1.76667 C 5.24 g/m*3 1.77 C 0 km/h
1827 26-03-2014 10:00:00 4.50833 C 5.74 g/m*3 4.51 C 0.93333 km/h
1828 26-03-2014 11:00:00 7.60833 C 5.86 g/m*3 7.61 C 4.675 km/h
1829 26-03-2014 12:00:00 10.36667 C 5.83 g/m*3 9.01 C 10.35 km/h
1830 26-03-2014 13:00:00 10.375 C 5.22 g/m*3 9.18 C 9.425 km/h
1831 26-03-2014 14:00:00 11.20833 C 4.91 g/m*3 11.21 C 9.54167 km/h
1832 26-03-2014 15:00:00 11.55833 C 4.81 g/m*3 11.56 C 6.025 km/h
1833 26-03-2014 16:00:00 10.24167 C 5.16 g/m*3 10.24 C 4.66667 km/h
1834 26-03-2014 17:00:00 10.80833 C 4.99 g/m*3 10.81 C 4.675 km/h
1835 26-03-2014 18:00:00 8.30833 C 5.24 g/m*3 8.31 C 3.74167 km/h
1836 26-03-2014 19:00:00 5.85 C 5.38 g/m*3 5.85 C 4.53333 km/h
1837 26-03-2014 20:00:00 4.58333 C 5.31 g/m*3 4.58 C 2.8 km/h
1838 26-03-2014 21:00:00 4.36667 C 5.41 g/m*3 4.37 C 1.2 km/h
1839 26-03-2014 22:00:00 4.38333 C 5.55 g/m*3 4.38 C 0.53333 km/h
1840 26-03-2014 23:00:00 4.15 C 5.87 g/m*3 4.15 C 1.73333 km/h
1841 27-03-2014 00:00:00 4.175 C 6.01 g/m*3 4.18 C 0.13333 km/h
1842 27-03-2014 01:00:00 4.14167 C 5.97 g/m*3 4.14 C 0.53333 km/h
1843 27-03-2014 02:00:00 3.79167 C 5.83 g/m*3 3.79 C 0.4 km/h
1844 27-03-2014 03:00:00 3.375 C 5.61 g/m*3 3.38 C 1.46667 km/h
1845 27-03-2014 04:00:00 2.5 C 5.3 g/m*3 2.5 C 2 km/h
1846 27-03-2014 05:00:00 1.89167 C 5.14 g/m*3 1.89 C 0.4 km/h
1847 27-03-2014 06:00:00 1.46667 C 5.04 g/m*3 1.47 C 0 km/h
1848 27-03-2014 07:00:00 2.06667 C 5.24 g/m*3 2.07 C 1.6 km/h
1849 27-03-2014 08:00:00 3.1 C 5.52 g/m*3 3.1 C 2.4 km/h
1850 27-03-2014 09:00:00 5.325 C 6.05 g/m*3 3.72 C 7.24167 km/h
Sensor: Nr:Datum:Temp:Abs-Feuchte:Windchill:Wind:
Aussen-T/F 1851 27-03-2014 10:00:00 8.2 C 6.24 g/m*3 7.29 C 6.4 km/h
1852 27-03-2014 11:00:00 10.825 C 6.15 g/m*3 9.42 C 11.3 km/h
1853 27-03-2014 12:00:00 13.6 C 6.38 g/m*3 13.6 C 13.03333 km/h
1854 27-03-2014 13:00:00 14.70833 C 6.29 g/m*3 14.71 C 11.96667 km/h
1855 27-03-2014 14:00:00 15.35 C 5.91 g/m*3 15.35 C 11.425 km/h
1856 27-03-2014 15:00:00 15.80833 C 5.8 g/m*3 15.81 C 10.89167 km/h
1857 27-03-2014 16:00:00 15.71667 C 5.79 g/m*3 15.72 C 9.81667 km/h
1858 27-03-2014 17:00:00 15.73333 C 5.7 g/m*3 15.73 C 5.63333 km/h
1859 27-03-2014 18:00:00 12 C 6.05 g/m*3 12 C 5.35 km/h
1860 27-03-2014 19:00:00 9.51667 C 6.07 g/m*3 8.64 C 7.10833 km/h
1861 27-03-2014 20:00:00 8.625 C 6.3 g/m*3 7.85 C 6.13333 km/h
1862 27-03-2014 21:00:00 8.01667 C 6.35 g/m*3 7.35 C 5.46667 km/h
1863 27-03-2014 22:00:00 7.625 C 6.39 g/m*3 7.04 C 5.06667 km/h
1864 27-03-2014 23:00:00 7.99167 C 6.37 g/m*3 7.99 C 4.53333 km/h
1865 28-03-2014 00:00:00 7.24167 C 6.22 g/m*3 7.24 C 4.66667 km/h
1866 28-03-2014 01:00:00 6.525 C 6.07 g/m*3 6.53 C 4.53333 km/h
1867 28-03-2014 02:00:00 5.825 C 5.98 g/m*3 4.9 C 5.33333 km/h
1868 28-03-2014 03:00:00 5.40833 C 5.93 g/m*3 5.41 C 4.53333 km/h
1869 28-03-2014 04:00:00 4.83333 C 5.85 g/m*3 4.83 C 3.46667 km/h
1870 28-03-2014 05:00:00 4.1 C 5.66 g/m*3 4.1 C 1.06667 km/h
1871 28-03-2014 06:00:00 3.5 C 5.51 g/m*3 3.5 C 0.13333 km/h
1872 28-03-2014 07:00:00 3.66667 C 5.71 g/m*3 3.67 C 0.26667 km/h
1873 28-03-2014 08:00:00 5.26667 C 6.16 g/m*3 5.27 C 3.73333 km/h
1874 28-03-2014 09:00:00 8.20833 C 6.61 g/m*3 8.21 C 3.2 km/h
1875 28-03-2014 10:00:00 11.275 C 6.73 g/m*3 11.28 C 6.16667 km/h
Sensor: Nr:Datum:Temp:Abs-Feuchte:Windchill:Wind:
Aussen-T/F 1876 28-03-2014 11:00:00 13.61667 C 6.84 g/m*3 13.62 C 6.03333 km/h
1877 28-03-2014 12:00:00 15.75 C 6.92 g/m*3 15.75 C 6.70833 km/h
1878 28-03-2014 13:00:00 17.85 C 6.63 g/m*3 17.85 C 10.75 km/h
1879 28-03-2014 14:00:00 18.21667 C 6.09 g/m*3 18.22 C 11.025 km/h
1880 28-03-2014 15:00:00 18.79167 C 5.9 g/m*3 18.79 C 9.825 km/h
1881 28-03-2014 16:00:00 19.175 C 5.79 g/m*3 19.18 C 12.76667 km/h
1882 28-03-2014 17:00:00 16.79167 C 6.13 g/m*3 16.79 C 5.35833 km/h
1883 28-03-2014 18:00:00 13.78333 C 6.62 g/m*3 13.78 C 4.93333 km/h
1884 28-03-2014 19:00:00 13.15 C 6.31 g/m*3 13.15 C 4.81667 km/h
1885 28-03-2014 20:00:00 12.1 C 6.04 g/m*3 12.1 C 8.85833 km/h
1886 28-03-2014 21:00:00 10.96667 C 6.05 g/m*3 9.91 C 9.26667 km/h
1887 28-03-2014 22:00:00 10.1 C 6.26 g/m*3 8.81 C 9.675 km/h
1888 28-03-2014 23:00:00 8.49167 C 6.29 g/m*3 8.49 C 3.73333 km/h
1889 29-03-2014 00:00:00 6.69167 C 6.18 g/m*3 6.69 C 3.6 km/h
1890 29-03-2014 01:00:00 5.93333 C 6.14 g/m*3 5.93 C 4.13333 km/h
1891 29-03-2014 02:00:00 5.5 C 6.12 g/m*3 5.5 C 3.46667 km/h
1892 29-03-2014 03:00:00 5.025 C 6.03 g/m*3 5.03 C 3.6 km/h
1893 29-03-2014 04:00:00 4.33333 C 5.89 g/m*3 4.33 C 0.93333 km/h
1894 29-03-2014 05:00:00 3.7 C 5.72 g/m*3 3.7 C 0 km/h
1895 29-03-2014 06:00:00 3.15 C 5.6 g/m*3 3.15 C 0 km/h
1896 29-03-2014 07:00:00 3.18333 C 5.66 g/m*3 3.18 C 0 km/h
1897 29-03-2014 08:00:00 4.1 C 6.06 g/m*3 4.1 C 0 km/h
1898 29-03-2014 09:00:00 6.75 C 6.94 g/m*3 6.75 C 2.8 km/h
1899 29-03-2014 10:00:00 10.55833 C 7.46 g/m*3 9.97 C 6.56667 km/h
1900 29-03-2014 11:00:00 14.25833 C 7.57 g/m*3 14.26 C 8.49167 km/h
Sensor: Nr:Datum:Temp:Abs-Feuchte:Windchill:Wind:
Aussen-T/F 1901 29-03-2014 12:00:00 17.34167 C 7.75 g/m*3 17.34 C 10.63333 km/h
1902 29-03-2014 13:00:00 18.58333 C 7.58 g/m*3 18.58 C 10.35833 km/h
1903 29-03-2014 14:00:00 19.66667 C 6.86 g/m*3 19.67 C 8.2 km/h
1904 29-03-2014 15:00:00 20.26667 C 6.01 g/m*3 20.27 C 10.75833 km/h
1905 29-03-2014 16:00:00 20.79167 C 5.66 g/m*3 20.79 C 8.46667 km/h
1906 29-03-2014 17:00:00 20.8 C 5.46 g/m*3 20.8 C 7.14286 km/h
1907 29-03-2014 18:00:00 14.1 C 6.55 g/m*3 14.1 C 8.1 km/h
1908 29-03-2014 19:00:00 12.84167 C 6.2 g/m*3 12.84 C 5.875 km/h
1909 29-03-2014 20:00:00 11.575 C 6.54 g/m*3 11.58 C 3.33333 km/h
1910 29-03-2014 21:00:00 10.375 C 6.63 g/m*3 10.38 C 0.4 km/h
1911 29-03-2014 22:00:00 8.99167 C 6.37 g/m*3 8.99 C 0 km/h
1912 29-03-2014 23:00:00 7.66667 C 6.17 g/m*3 7.67 C 0.26667 km/h
1913 30-03-2014 00:00:00 6.86667 C 6.11 g/m*3 6.87 C 0.8 km/h
1914 30-03-2014 01:00:00 6.1 C 5.98 g/m*3 6.1 C 0.26667 km/h
1915 30-03-2014 02:00:00 5.00833 C 5.84 g/m*3 5.01 C 0.13333 km/h
1916 30-03-2014 04:00:00 4.35833 C 5.72 g/m*3 4.36 C 0 km/h
1917 30-03-2014 05:00:00 3.75833 C 5.61 g/m*3 3.76 C 0.13333 km/h
1918 30-03-2014 06:00:00 3.28333 C 5.53 g/m*3 3.28 C 0 km/h
1919 30-03-2014 07:00:00 2.91667 C 5.48 g/m*3 2.92 C 0.13333 km/h
1920 30-03-2014 08:00:00 3.375 C 5.66 g/m*3 3.38 C 0.4 km/h
1921 30-03-2014 09:00:00 4.04286 C 5.93 g/m*3 4.04 C 0.22857 km/h
1922 30-03-2014 10:00:00 7.47 C 6.75 g/m*3 7.47 C 0.48 km/h
1923 30-03-2014 11:00:00 10.175 C 7.24 g/m*3 10.18 C 0.66667 km/h
1924 30-03-2014 12:00:00 13.90833 C 7.96 g/m*3 13.91 C 2.4 km/h
1925 30-03-2014 13:00:00 18.48333 C 8.67 g/m*3 18.48 C 3.86667 km/h
Sensor: Nr:Datum:Temp:Abs-Feuchte:Windchill:Wind:
Aussen-T/F 1926 30-03-2014 14:00:00 20.73333 C 7.34 g/m*3 20.73 C 7.23333 km/h
1927 30-03-2014 15:00:00 20.74 C 6.86 g/m*3 20.74 C 3.52 km/h
1928 30-03-2014 20:00:00 13.97 C 7.45 g/m*3 13.97 C 3.04 km/h
1929 30-03-2014 21:00:00 12.46 C 7.48 g/m*3 12.46 C 0.48 km/h
1930 30-03-2014 22:00:00 11.59167 C 7.23 g/m*3 11.59 C 0.13333 km/h
1931 30-03-2014 23:00:00 10.425 C 7.17 g/m*3 10.43 C 0 km/h
1932 31-03-2014 00:00:00 9.775 C 7.07 g/m*3 9.78 C 0.4 km/h
1933 31-03-2014 01:00:00 8.83333 C 7 g/m*3 8.83 C 0.53333 km/h
1934 31-03-2014 02:00:00 8.325 C 6.96 g/m*3 8.32 C 0.4 km/h
1935 31-03-2014 03:00:00 8.06667 C 6.95 g/m*3 8.07 C 0.26667 km/h
1936 31-03-2014 04:00:00 7.525 C 6.87 g/m*3 7.53 C 0 km/h
1937 31-03-2014 05:00:00 7.09167 C 6.84 g/m*3 7.09 C 0.13333 km/h
1938 31-03-2014 06:00:00 6.71667 C 6.71 g/m*3 6.72 C 0 km/h
1939 31-03-2014 07:00:00 6.225 C 6.62 g/m*3 6.23 C 0 km/h
1940 31-03-2014 08:00:00 6.6 C 6.85 g/m*3 6.6 C 0 km/h
1941 31-03-2014 09:00:00 7.74167 C 7.15 g/m*3 7.74 C 0.66667 km/h
1942 31-03-2014 10:00:00 9.29167 C 7.45 g/m*3 9.29 C 0.26667 km/h
1943 31-03-2014 11:00:00 11.4 C 7.89 g/m*3 11.4 C 1.6 km/h
1944 31-03-2014 12:00:00 14.65 C 8.39 g/m*3 14.65 C 3.86667 km/h
1945 31-03-2014 13:00:00 17.93333 C 8.49 g/m*3 17.93 C 3.2 km/h
1946 31-03-2014 14:00:00 20.25833 C 7.22 g/m*3 20.26 C 4.53333 km/h
1947 31-03-2014 15:00:00 22.14167 C 4.83 g/m*3 22.14 C 6.83333 km/h
1948 31-03-2014 16:00:00 22.95 C 5.79 g/m*3 22.95 C 9.68333 km/h
1949 31-03-2014 17:00:00 22.94167 C 5.8 g/m*3 22.94 C 8.475 km/h
1950 31-03-2014 18:00:00 21.44167 C 6.14 g/m*3 21.44 C 3.2 km/h
Sensor: Nr:Datum:Temp:Abs-Feuchte:Windchill:Wind:
Aussen-T/F 1951 31-03-2014 19:00:00 17.40833 C 6.49 g/m*3 17.41 C 5.2 km/h
1952 31-03-2014 20:00:00 15.14167 C 6.14 g/m*3 15.14 C 5.6 km/h
1953 31-03-2014 21:00:00 14.075 C 7.35 g/m*3 14.08 C 3.73333 km/h
1954 31-03-2014 22:00:00 12.625 C 7.7 g/m*3 12.63 C 0.26667 km/h
1955 31-03-2014 23:00:00 12.01667 C 7.45 g/m*3 12.02 C 0.53333 km/h
1956 01-04-2014 00:00:00 10.94167 C 7.4 g/m*3 10.94 C 0.8 km/h
1957 01-04-2014 01:00:00 10.78333 C 7.49 g/m*3 10.78 C 0.8 km/h
1958 01-04-2014 02:00:00 10.525 C 7.55 g/m*3 10.53 C 0.26667 km/h
1959 01-04-2014 03:00:00 9.56667 C 7.34 g/m*3 9.57 C 0.26667 km/h
1960 01-04-2014 04:00:00 9.04167 C 7.22 g/m*3 9.04 C 0.13333 km/h
1961 01-04-2014 05:00:00 8.53333 C 7.14 g/m*3 8.53 C 0 km/h
1962 01-04-2014 06:00:00 8.00833 C 7 g/m*3 8.01 C 0.13333 km/h
1963 01-04-2014 07:00:00 7.65833 C 6.99 g/m*3 7.66 C 0.26667 km/h
1964 01-04-2014 08:00:00 8.38333 C 7.37 g/m*3 8.38 C 0.13333 km/h
1965 01-04-2014 09:00:00 9.8 C 7.69 g/m*3 9.8 C 0.13333 km/h
1966 01-04-2014 10:00:00 11.6 C 8.03 g/m*3 11.6 C 0 km/h
1967 01-04-2014 11:00:00 14.09167 C 8.27 g/m*3 14.09 C 0.26667 km/h
1968 01-04-2014 12:00:00 17.36667 C 8.31 g/m*3 17.37 C 0.93333 km/h
1969 01-04-2014 13:00:00 21.06667 C 8.6 g/m*3 21.07 C 3.2 km/h
1970 01-04-2014 14:00:00 22.1 C 7.78 g/m*3 22.1 C 5.06667 km/h
1971 01-04-2014 15:00:00 21.95833 C 7.44 g/m*3 21.96 C 4.425 km/h
1972 01-04-2014 16:00:00 23.06667 C 7.24 g/m*3 23.07 C 5.35833 km/h
1973 01-04-2014 17:00:00 22.76 C 6.89 g/m*3 22.76 C 7.76 km/h
1974 01-04-2014 19:00:00 17.84286 C 8.65 g/m*3 17.84 C 5.25714 km/h
1975 01-04-2014 20:00:00 17 C 8.69 g/m*3 17 C 4.13333 km/h
Sensor: Nr:Datum:Temp:Abs-Feuchte:Windchill:Wind:
Aussen-T/F 1976 01-04-2014 21:00:00 15.3 C 9.15 g/m*3 15.3 C 3.68 km/h
1977 01-04-2014 22:00:00 13.91667 C 8.02 g/m*3 13.92 C 2.4 km/h
1978 01-04-2014 23:00:00 12.70833 C 7.86 g/m*3 12.71 C 1.33333 km/h
1979 02-04-2014 00:00:00 11.51667 C 7.59 g/m*3 11.52 C 0 km/h
1980 02-04-2014 01:00:00 10.63333 C 7.48 g/m*3 10.63 C 1.06667 km/h
1981 02-04-2014 02:00:00 9.41667 C 7.3 g/m*3 9.42 C 0.13333 km/h
1982 02-04-2014 03:00:00 8.75833 C 7.16 g/m*3 8.76 C 0.26667 km/h
1983 02-04-2014 04:00:00 7.96667 C 7.05 g/m*3 7.97 C 0.26667 km/h
1984 02-04-2014 05:00:00 7.28333 C 6.89 g/m*3 7.28 C 0.26667 km/h
1985 02-04-2014 06:00:00 6.60833 C 6.78 g/m*3 6.61 C 0.26667 km/h
1986 02-04-2014 07:00:00 6.78333 C 6.88 g/m*3 6.78 C 0.13333 km/h
1987 02-04-2014 08:00:00 7.00833 C 7 g/m*3 7.01 C 1.06667 km/h
1988 02-04-2014 09:00:00 8.04167 C 7.36 g/m*3 8.04 C 0.13333 km/h
1989 02-04-2014 10:00:00 10.375 C 7.99 g/m*3 10.38 C 0.26667 km/h
1990 02-04-2014 11:00:00 13.45833 C 8.76 g/m*3 13.46 C 0.93333 km/h
1991 02-04-2014 12:00:00 17.03636 C 8.96 g/m*3 17.04 C 4.52727 km/h
1992 02-04-2014 13:00:00 20.98889 C 8.75 g/m*3 20.99 C 8.41111 km/h
1993 02-04-2014 14:00:00 22.40833 C 7.93 g/m*3 22.41 C 12.49167 km/h
1994 02-04-2014 15:00:00 22.66667 C 7.86 g/m*3 22.67 C 12.1 km/h
1995 02-04-2014 16:00:00 23.2 C 7.78 g/m*3 23.2 C 9.525 km/h
1996 02-04-2014 17:00:00 23.36667 C 7.63 g/m*3 23.37 C 8.86667 km/h
1997 02-04-2014 18:00:00 22.54167 C 8.08 g/m*3 22.54 C 6.96667 km/h
1998 02-04-2014 19:00:00 18.53333 C 9.1 g/m*3 18.53 C 2.8 km/h
1999 02-04-2014 20:00:00 15.90833 C 8.9 g/m*3 15.91 C 3.86667 km/h
2000 02-04-2014 21:00:00 14.90833 C 8.88 g/m*3 14.91 C 2.8 km/h
Sensor: Nr:Datum:Temp:Abs-Feuchte:Windchill:Wind:
Aussen-T/F 2001 02-04-2014 22:00:00 13.64167 C 8.79 g/m*3 13.64 C 0.8 km/h
2002 02-04-2014 23:00:00 12.69167 C 8.54 g/m*3 12.69 C 0.4 km/h
2003 03-04-2014 00:00:00 11.5 C 8.33 g/m*3 11.5 C 0 km/h
2004 03-04-2014 01:00:00 11.39167 C 8.38 g/m*3 11.39 C 1.33333 km/h
2005 03-04-2014 02:00:00 10.91667 C 8.28 g/m*3 10.92 C 0.4 km/h
2006 03-04-2014 03:00:00 10.46667 C 8.23 g/m*3 10.47 C 0 km/h
2007 03-04-2014 04:00:00 9.51667 C 7.87 g/m*3 9.52 C 0 km/h
2008 03-04-2014 05:00:00 8.575 C 7.66 g/m*3 8.57 C 0.26667 km/h
2009 03-04-2014 06:00:00 8.21667 C 7.59 g/m*3 8.22 C 0.4 km/h
2010 03-04-2014 07:00:00 8.09167 C 7.63 g/m*3 8.09 C 0.26667 km/h
2011 03-04-2014 08:00:00 9.03333 C 8.03 g/m*3 9.03 C 0.26667 km/h
2012 03-04-2014 09:00:00 10.18333 C 8.29 g/m*3 10.18 C 0.13333 km/h
2013 03-04-2014 10:00:00 11.55833 C 8.63 g/m*3 11.56 C 1.33333 km/h
2014 03-04-2014 11:00:00 13.675 C 9.07 g/m*3 13.68 C 1.46667 km/h
2015 03-04-2014 12:00:00 17.08333 C 9.89 g/m*3 17.08 C 3.73333 km/h
2016 03-04-2014 13:00:00 20.50833 C 8.44 g/m*3 20.51 C 8.74167 km/h
2017 03-04-2014 14:00:00 21.35 C 8.26 g/m*3 21.35 C 7.5 km/h
2018 03-04-2014 18:00:00 20.4 C 9.02 g/m*3 20.4 C 1.6 km/h
2019 03-04-2014 19:00:00 19.575 C 9.14 g/m*3 19.58 C 3.6 km/h
2020 03-04-2014 20:00:00 16.14286 C 9.25 g/m*3 16.14 C 5.04286 km/h
2021 03-04-2014 21:00:00 15.4 C 8.58 g/m*3 15.4 C 2.66667 km/h
2022 03-04-2014 22:00:00 14.44167 C 8.66 g/m*3 14.44 C 0.93333 km/h
2023 03-04-2014 23:00:00 13.175 C 8.54 g/m*3 13.18 C 0 km/h
2024 04-04-2014 00:00:00 12.34167 C 8.45 g/m*3 12.34 C 0.13333 km/h
2025 04-04-2014 01:00:00 12.79167 C 8.67 g/m*3 12.79 C 1.6 km/h
Sensor: Nr:Datum:Temp:Abs-Feuchte:Windchill:Wind:
Aussen-T/F 2026 04-04-2014 02:00:00 12.76667 C 8.73 g/m*3 12.77 C 0.13333 km/h
2027 04-04-2014 03:00:00 12.31667 C 8.79 g/m*3 12.32 C 0.13333 km/h
2028 04-04-2014 04:00:00 12.1 C 8.83 g/m*3 12.1 C 0.26667 km/h
2029 04-04-2014 05:00:00 11.525 C 8.7 g/m*3 11.53 C 0.66667 km/h
2030 04-04-2014 06:00:00 11.3 C 8.72 g/m*3 11.3 C 0.4 km/h
2031 04-04-2014 07:00:00 11.225 C 8.72 g/m*3 11.23 C 0.66667 km/h
2032 04-04-2014 08:00:00 11.05 C 8.79 g/m*3 11.05 C 0 km/h
2033 04-04-2014 09:00:00 11.88333 C 9.07 g/m*3 11.88 C 0.26667 km/h
2034 04-04-2014 10:00:00 13.21667 C 9.37 g/m*3 13.22 C 0.66667 km/h
2035 04-04-2014 11:00:00 14.99167 C 9.87 g/m*3 14.99 C 2.4 km/h
2036 04-04-2014 12:00:00 16.99167 C 10.15 g/m*3 16.99 C 2.26667 km/h
2037 04-04-2014 13:00:00 18.975 C 10.29 g/m*3 18.98 C 3.20833 km/h
2038 04-04-2014 14:00:00 20.21667 C 9.9 g/m*3 20.22 C 6.425 km/h
2039 04-04-2014 15:00:00 20.58333 C 10.03 g/m*3 20.58 C 8.86667 km/h
2040 04-04-2014 16:00:00 20.39167 C 10.17 g/m*3 20.39 C 8.59167 km/h
2041 04-04-2014 17:00:00 20.22857 C 10.53 g/m*3 20.23 C 7.84286 km/h
2042 04-04-2014 18:00:00 19.27143 C 11.92 g/m*3 19.27 C 7.6 km/h
2043 04-04-2014 19:00:00 17.96667 C 9.66 g/m*3 17.97 C 10.08333 km/h
2044 04-04-2014 20:00:00 16.70833 C 9.83 g/m*3 16.71 C 6.7 km/h
2045 04-04-2014 21:00:00 15.28333 C 10.03 g/m*3 15.28 C 5.475 km/h
2046 04-04-2014 22:00:00 14.9 C 10.09 g/m*3 14.9 C 3.475 km/h
2047 04-04-2014 23:00:00 14 C 10.02 g/m*3 14 C 2 km/h
2048 05-04-2014 00:00:00 13.95833 C 10.22 g/m*3 13.96 C 8.58333 km/h
2049 05-04-2014 01:00:00 13.43333 C 10.13 g/m*3 13.43 C 7.09167 km/h
2050 05-04-2014 02:00:00 13.2 C 9.99 g/m*3 13.2 C 6.44167 km/h
Sensor: Nr:Datum:Temp:Abs-Feuchte:Windchill:Wind:
Aussen-T/F 2051 05-04-2014 03:00:00 12.91667 C 9.88 g/m*3 12.92 C 5.34167 km/h
2052 05-04-2014 04:00:00 12.74167 C 9.71 g/m*3 12.74 C 8.05 km/h
2053 05-04-2014 05:00:00 12.53333 C 9.65 g/m*3 12.53 C 8.325 km/h
2054 05-04-2014 06:00:00 12.125 C 9.68 g/m*3 12.13 C 3.86667 km/h
2055 05-04-2014 07:00:00 12.00833 C 9.6 g/m*3 12.01 C 4.95833 km/h
2056 05-04-2014 08:00:00 12.04167 C 9.62 g/m*3 12.04 C 5.35 km/h
2057 05-04-2014 09:00:00 12.2 C 9.66 g/m*3 12.2 C 6.16667 km/h
2058 05-04-2014 10:00:00 12.13333 C 9.62 g/m*3 12.13 C 8.74167 km/h
2059 05-04-2014 11:00:00 12.36667 C 9.6 g/m*3 12.37 C 5.75833 km/h
2060 05-04-2014 12:00:00 13.075 C 9.89 g/m*3 13.08 C 5.36667 km/h
2061 05-04-2014 13:00:00 13.9 C 10.43 g/m*3 13.9 C 5.86667 km/h
2062 05-04-2014 15:00:00 15.43333 C 10.09 g/m*3 15.43 C 5.86667 km/h
2063 05-04-2014 16:00:00 15.125 C 9.85 g/m*3 15.13 C 7.25 km/h
2064 05-04-2014 17:00:00 14.88889 C 10.06 g/m*3 14.89 C 6.42222 km/h
2065 05-04-2014 18:00:00 14.7 C 9.82 g/m*3 14.7 C 6.4 km/h
2066 05-04-2014 19:00:00 14.29167 C 10.09 g/m*3 14.29 C 0.93333 km/h
2067 05-04-2014 20:00:00 13.38333 C 9.75 g/m*3 13.38 C 3.06667 km/h
2068 05-04-2014 21:00:00 13.06667 C 9.74 g/m*3 13.07 C 2.26667 km/h
2069 05-04-2014 22:00:00 12.70833 C 9.66 g/m*3 12.71 C 0.8 km/h
2070 05-04-2014 23:00:00 11.26667 C 8.99 g/m*3 11.27 C 2.93333 km/h
2071 06-04-2014 00:00:00 10.08333 C 8.63 g/m*3 10.08 C 0.93333 km/h
2072 06-04-2014 01:00:00 9.2 C 8.3 g/m*3 9.2 C 0.13333 km/h
2073 06-04-2014 02:00:00 8.45 C 8.04 g/m*3 8.45 C 0.13333 km/h
2074 06-04-2014 03:00:00 7.9 C 7.8 g/m*3 7.9 C 0.26667 km/h
2075 06-04-2014 04:00:00 7.19167 C 7.49 g/m*3 7.19 C 0 km/h
Sensor: Nr:Datum:Temp:Abs-Feuchte:Windchill:Wind:
Aussen-T/F 2076 06-04-2014 05:00:00 7.00833 C 7.46 g/m*3 7.01 C 0 km/h
2077 06-04-2014 06:00:00 7.2 C 7.59 g/m*3 7.2 C 1.2 km/h
2078 06-04-2014 07:00:00 7.21667 C 7.62 g/m*3 7.22 C 0.66667 km/h
2079 06-04-2014 08:00:00 7.71667 C 7.87 g/m*3 7.72 C 0 km/h
2080 06-04-2014 09:00:00 8.19167 C 8.12 g/m*3 8.19 C 0.66667 km/h
2081 06-04-2014 10:00:00 10.23333 C 8.96 g/m*3 10.23 C 2.93333 km/h
2082 06-04-2014 11:00:00 13.87778 C 9.11 g/m*3 13.88 C 9.85556 km/h
2083 06-04-2014 12:00:00 16.50833 C 8.75 g/m*3 16.51 C 13.96667 km/h
2084 06-04-2014 13:00:00 18.53333 C 9.09 g/m*3 18.53 C 11.28889 km/h
2085 06-04-2014 14:00:00 19.44 C 9 g/m*3 19.44 C 13.06 km/h
2086 06-04-2014 15:00:00 19.08571 C 9.06 g/m*3 19.09 C 11.3 km/h
2087 06-04-2014 16:00:00 18.9 C 9.07 g/m*3 18.9 C 14.5 km/h
2088 06-04-2014 17:00:00 18.3 C 9.07 g/m*3 18.3 C 10.32 km/h
2089 06-04-2014 19:00:00 16.45 C 9.47 g/m*3 16.45 C 3.48333 km/h
2090 06-04-2014 20:00:00 14.9 C 9.28 g/m*3 14.9 C 3.46667 km/h
2091 06-04-2014 21:00:00 13.825 C 9.25 g/m*3 13.83 C 2.26667 km/h
2092 06-04-2014 22:00:00 13.9 C 9.37 g/m*3 13.9 C 2.66667 km/h
2093 06-04-2014 23:00:00 13.99167 C 9.32 g/m*3 13.99 C 2.4 km/h
2094 07-04-2014 00:00:00 13.875 C 9.32 g/m*3 13.88 C 1.86667 km/h
2095 07-04-2014 01:00:00 13.21667 C 9.37 g/m*3 13.22 C 0.26667 km/h
2096 07-04-2014 02:00:00 12.99167 C 9.44 g/m*3 12.99 C 0.53333 km/h
2097 07-04-2014 03:00:00 12.675 C 9.42 g/m*3 12.68 C 0 km/h
2098 07-04-2014 04:00:00 12.5 C 9.43 g/m*3 12.5 C 0.13333 km/h
2099 07-04-2014 05:00:00 12.4 C 9.44 g/m*3 12.4 C 0.8 km/h
2100 07-04-2014 06:00:00 12.38333 C 9.56 g/m*3 12.38 C 0.13333 km/h
Sensor: Nr:Datum:Temp:Abs-Feuchte:Windchill:Wind:
Aussen-T/F 2101 07-04-2014 07:00:00 12.26667 C 9.59 g/m*3 12.27 C 0.53333 km/h
2102 07-04-2014 08:00:00 12.95 C 9.85 g/m*3 12.95 C 1.6 km/h
2103 07-04-2014 09:00:00 14.15833 C 10.32 g/m*3 14.16 C 3.35 km/h
2104 07-04-2014 10:00:00 16.19167 C 10.98 g/m*3 16.19 C 9.40833 km/h
2105 07-04-2014 11:00:00 17.8 C 11.41 g/m*3 17.8 C 9.15 km/h
2106 07-04-2014 12:00:00 19.51667 C 11.45 g/m*3 19.52 C 8.875 km/h
2107 07-04-2014 13:00:00 20.51667 C 11.12 g/m*3 20.52 C 7.125 km/h
2108 07-04-2014 14:00:00 21.20833 C 11.29 g/m*3 21.21 C 7.925 km/h
2109 07-04-2014 15:00:00 21.54167 C 10.71 g/m*3 21.54 C 7.525 km/h
2110 07-04-2014 16:00:00 22.16667 C 9.93 g/m*3 22.17 C 8.06667 km/h
2111 07-04-2014 18:00:00 23.36667 C 17.35 g/m*3 23.37 C 6.71667 km/h
2112 07-04-2014 19:00:00 17.9 C 10.04 g/m*3 17.9 C 4.4 km/h
2113 07-04-2014 20:00:00 16.87 C 9.36 g/m*3 16.87 C 4.48 km/h
2114 07-04-2014 21:00:00 16.20909 C 9.62 g/m*3 16.21 C 4.07273 km/h
2115 07-04-2014 22:00:00 16.03333 C 9.12 g/m*3 16.03 C 3.2 km/h
2116 07-04-2014 23:00:00 16.125 C 9.24 g/m*3 16.13 C 3.475 km/h
2117 08-04-2014 00:00:00 15.48333 C 9.38 g/m*3 15.48 C 3.73333 km/h
2118 08-04-2014 01:00:00 15.59167 C 9.87 g/m*3 15.59 C 1.86667 km/h
2119 08-04-2014 02:00:00 16.025 C 9.85 g/m*3 16.02 C 4.69167 km/h
2120 08-04-2014 03:00:00 15.20833 C 9.75 g/m*3 15.21 C 3.075 km/h
2121 08-04-2014 04:00:00 14.66667 C 9.66 g/m*3 14.67 C 4.69167 km/h
2122 08-04-2014 05:00:00 15.5 C 9.25 g/m*3 15.5 C 10.06667 km/h
2123 08-04-2014 06:00:00 13.175 C 9.53 g/m*3 13.18 C 9.80833 km/h
2124 08-04-2014 07:00:00 11.525 C 7.72 g/m*3 11.53 C 19.16667 km/h
2125 08-04-2014 08:00:00 10.99167 C 6.79 g/m*3 9 C 16.23333 km/h
Sensor: Nr:Datum:Temp:Abs-Feuchte:Windchill:Wind:
Aussen-T/F 2126 08-04-2014 09:00:00 11.075 C 6.48 g/m*3 11.08 C 16.23333 km/h
2127 08-04-2014 10:00:00 11.725 C 6.55 g/m*3 11.73 C 15.83333 km/h
2128 08-04-2014 11:00:00 12.28333 C 6.59 g/m*3 12.28 C 15.3 km/h
2129 08-04-2014 12:00:00 12.64167 C 6.53 g/m*3 12.64 C 19.45 km/h
2130 08-04-2014 13:00:00 12.64167 C 6.27 g/m*3 12.64 C 17.43333 km/h
2131 08-04-2014 14:00:00 12.15833 C 6.07 g/m*3 12.16 C 20.375 km/h
2132 08-04-2014 15:00:00 12.63333 C 5.68 g/m*3 12.63 C 19.83333 km/h
2133 08-04-2014 16:00:00 12.6 C 5.43 g/m*3 12.6 C 19.84167 km/h
2134 08-04-2014 17:00:00 10.68333 C 6.09 g/m*3 8.56 C 16.76667 km/h
2135 08-04-2014 18:00:00 10.65833 C 6.2 g/m*3 9.21 C 11.3 km/h
2136 08-04-2014 19:00:00 10.26667 C 6.16 g/m*3 8.1 C 16.24167 km/h
2137 08-04-2014 20:00:00 9.26667 C 6.28 g/m*3 7.69 C 10.4 km/h
2138 08-04-2014 21:00:00 8.75 C 6.46 g/m*3 8.26 C 5.225 km/h
2139 08-04-2014 22:00:00 8.00833 C 6.4 g/m*3 8.01 C 3.46667 km/h
2140 08-04-2014 23:00:00 7.79091 C 6.27 g/m*3 7.12 C 5.39091 km/h
2141 09-04-2014 00:00:00 6.06667 C 6.63 g/m*3 6.07 C 2.66667 km/h
2142 09-04-2014 01:00:00 5.65833 C 6.57 g/m*3 4.75 C 5.21667 km/h
2143 09-04-2014 02:00:00 5.425 C 6.55 g/m*3 5.43 C 3.6 km/h
2144 09-04-2014 03:00:00 4.9 C 6.33 g/m*3 4.9 C 2 km/h
2145 09-04-2014 04:00:00 4.88333 C 6.32 g/m*3 4.88 C 2.93333 km/h
2146 09-04-2014 05:00:00 5.05833 C 6.29 g/m*3 5.06 C 1.73333 km/h
2147 09-04-2014 06:00:00 4.375 C 6.12 g/m*3 4.38 C 1.2 km/h
2148 09-04-2014 07:00:00 4.18 C 6.05 g/m*3 4.18 C 2.9 km/h
2149 09-04-2014 08:00:00 4.64167 C 6.3 g/m*3 4.64 C 2.13333 km/h
2150 09-04-2014 09:00:00 6.81667 C 6.87 g/m*3 5.12 C 8.61667 km/h
Sensor: Nr:Datum:Temp:Abs-Feuchte:Windchill:Wind:
Aussen-T/F 2151 09-04-2014 10:00:00 8.54167 C 7.23 g/m*3 7.37 C 7.65833 km/h
2152 09-04-2014 11:00:00 10.29167 C 7.34 g/m*3 8.92 C 10.35 km/h
2153 09-04-2014 12:00:00 11.375 C 7.23 g/m*3 11.38 C 9.68333 km/h
2154 09-04-2014 13:00:00 12.96667 C 6.67 g/m*3 12.97 C 8.6 km/h
2155 09-04-2014 14:00:00 13.64167 C 6.49 g/m*3 13.64 C 8.06667 km/h
2156 09-04-2014 15:00:00 14.43333 C 6.06 g/m*3 14.43 C 9.28333 km/h
2157 09-04-2014 16:00:00 14.325 C 6.08 g/m*3 14.33 C 9.95833 km/h
2158 09-04-2014 17:00:00 14.80833 C 6.44 g/m*3 14.81 C 9.01667 km/h
2159 09-04-2014 18:00:00 14.58333 C 6.46 g/m*3 14.58 C 8.46667 km/h
2160 09-04-2014 19:00:00 13.15833 C 6.8 g/m*3 13.16 C 3.2 km/h
2161 09-04-2014 20:00:00 10.35833 C 7.02 g/m*3 10.36 C 3.86667 km/h
2162 09-04-2014 21:00:00 9.15 C 6.95 g/m*3 9.15 C 3.06667 km/h
2163 09-04-2014 22:00:00 9 C 6.92 g/m*3 9 C 2.26667 km/h
2164 09-04-2014 23:00:00 8.56667 C 6.77 g/m*3 8.57 C 2 km/h
2165 10-04-2014 00:00:00 9.05833 C 6.74 g/m*3 8.54 C 5.48333 km/h
2166 10-04-2014 01:00:00 8.23333 C 6.68 g/m*3 8.23 C 4.55833 km/h
2167 10-04-2014 02:00:00 7.93333 C 6.75 g/m*3 7.93 C 2.94167 km/h
2168 10-04-2014 03:00:00 8.29167 C 6.87 g/m*3 8.29 C 1.2 km/h
2169 10-04-2014 04:00:00 7.925 C 6.84 g/m*3 7.93 C 0.53333 km/h
2170 10-04-2014 05:00:00 7.13333 C 6.73 g/m*3 7.13 C 1.2 km/h
2171 10-04-2014 06:00:00 6.48333 C 6.62 g/m*3 6.48 C 0.26667 km/h
2172 10-04-2014 07:00:00 6.50833 C 6.73 g/m*3 6.51 C 0.93333 km/h
2173 10-04-2014 08:00:00 7.35556 C 6.93 g/m*3 6.15 C 6.98889 km/h
2174 10-04-2014 09:00:00 8.65 C 7.67 g/m*3 7.59 C 7.25 km/h
2175 10-04-2014 10:00:00 9.85556 C 7.38 g/m*3 9.86 C 4.11111 km/h
Sensor: Nr:Datum:Temp:Abs-Feuchte:Windchill:Wind:
Aussen-T/F 2176 10-04-2014 13:00:00 16.3 C 8.42 g/m*3 16.3 C 6.43333 km/h
2177 10-04-2014 14:00:00 17.6 C 8.7 g/m*3 17.6 C 9.7 km/h
2178 10-04-2014 15:00:00 17.66 C 8.52 g/m*3 17.66 C 7.42 km/h
2179 10-04-2014 16:00:00 18.52 C 9.95 g/m*3 18.52 C 9.04 km/h
2180 10-04-2014 17:00:00 17.91667 C 8.48 g/m*3 17.92 C 8.08333 km/h
2181 10-04-2014 18:00:00 16.5 C 8.31 g/m*3 16.5 C 8.18333 km/h
2182 10-04-2014 19:00:00 16.2 C 8.27 g/m*3 16.2 C 4.8 km/h
2183 11-04-2014 08:00:00 6.86 C 7.29 g/m*3 6.86 C 1.28 km/h
2184 11-04-2014 09:00:00 8.29167 C 8 g/m*3 8.29 C 0.13333 km/h
2185 11-04-2014 10:00:00 11.43333 C 8.82 g/m*3 11.43 C 0 km/h
2186 11-04-2014 11:00:00 15.75 C 9.06 g/m*3 15.75 C 9.7 km/h
2187 11-04-2014 12:00:00 16.90833 C 9.09 g/m*3 16.91 C 4 km/h
2188 11-04-2014 13:00:00 18.85556 C 9.21 g/m*3 18.86 C 5.7 km/h
2189 11-04-2014 14:00:00 18.53333 C 9.04 g/m*3 18.53 C 7.51667 km/h
2190 11-04-2014 16:00:00 19.54286 C 9.71 g/m*3 19.54 C 7.35714 km/h
2191 11-04-2014 17:00:00 18.01667 C 9.63 g/m*3 18.02 C 9.825 km/h
2192 11-04-2014 18:00:00 16.775 C 9.14 g/m*3 16.77 C 11.7 km/h
2193 11-04-2014 19:00:00 15.29167 C 9.16 g/m*3 15.29 C 8.48333 km/h
2194 11-04-2014 20:00:00 14.31667 C 8.94 g/m*3 14.32 C 6.15833 km/h
2195 11-04-2014 21:00:00 13.6 C 9 g/m*3 13.6 C 6.43333 km/h
2196 11-04-2014 22:00:00 12.85833 C 8.81 g/m*3 12.86 C 6.575 km/h
2197 11-04-2014 23:00:00 12.325 C 8.65 g/m*3 12.33 C 4.825 km/h
2198 12-04-2014 00:00:00 11.46667 C 8.45 g/m*3 11.47 C 3.2 km/h
2199 12-04-2014 01:00:00 10.175 C 8.26 g/m*3 10.18 C 1.86667 km/h
2200 12-04-2014 02:00:00 9.86667 C 8.14 g/m*3 9.87 C 0.66667 km/h
Sensor: Nr:Datum:Temp:Abs-Feuchte:Windchill:Wind:
Aussen-T/F 2201 12-04-2014 03:00:00 9.825 C 7.92 g/m*3 9.82 C 1.20833 km/h
2202 12-04-2014 04:00:00 9.85 C 7.77 g/m*3 9.85 C 1.33333 km/h
2203 12-04-2014 05:00:00 9.26667 C 7.75 g/m*3 9.27 C 0.4 km/h
2204 12-04-2014 06:00:00 9.21667 C 7.72 g/m*3 9.22 C 0.13333 km/h
2205 12-04-2014 07:00:00 9.09167 C 7.71 g/m*3 9.09 C 0.66667 km/h
2206 12-04-2014 08:00:00 9.375 C 7.63 g/m*3 9.38 C 2.13333 km/h
2207 12-04-2014 09:00:00 10.05833 C 7.75 g/m*3 10.06 C 3.06667 km/h
2208 12-04-2014 10:00:00 11.45833 C 8.16 g/m*3 11.46 C 5.20833 km/h
2209 12-04-2014 11:00:00 12.66667 C 8.36 g/m*3 12.67 C 6.825 km/h
2210 12-04-2014 12:00:00 13.96667 C 8.63 g/m*3 13.97 C 5.88333 km/h
2211 12-04-2014 13:00:00 16.03333 C 8.67 g/m*3 16.03 C 6.98333 km/h
2212 12-04-2014 14:00:00 16.95833 C 7.93 g/m*3 16.96 C 9.26667 km/h
2213 12-04-2014 15:00:00 17.55 C 7.8 g/m*3 17.55 C 9.15 km/h
2214 12-04-2014 16:00:00 18.20833 C 6.97 g/m*3 18.21 C 8.05 km/h
2215 12-04-2014 17:00:00 17.225 C 6.95 g/m*3 17.23 C 10.09167 km/h
2216 12-04-2014 18:00:00 15.78333 C 7.02 g/m*3 15.78 C 8.06667 km/h
2217 12-04-2014 19:00:00 15.16667 C 6.91 g/m*3 15.17 C 7.88889 km/h
2218 12-04-2014 20:00:00 14.08333 C 6.75 g/m*3 14.08 C 5.35 km/h
2219 12-04-2014 21:00:00 13.28333 C 7.11 g/m*3 13.28 C 2.93333 km/h
2220 12-04-2014 22:00:00 11.95 C 7.15 g/m*3 11.95 C 0.66667 km/h
2221 12-04-2014 23:00:00 11.79167 C 7.01 g/m*3 11.79 C 1.33333 km/h
2222 13-04-2014 00:00:00 11.44167 C 7.25 g/m*3 11.44 C 0.4 km/h
2223 13-04-2014 01:00:00 11.075 C 7.36 g/m*3 11.08 C 1.86667 km/h
2224 13-04-2014 02:00:00 10.81667 C 7.33 g/m*3 10.82 C 1.33333 km/h
2225 13-04-2014 03:00:00 9.96667 C 7.27 g/m*3 9.97 C 0.93333 km/h
Sensor: Nr:Datum:Temp:Abs-Feuchte:Windchill:Wind:
Aussen-T/F 2226 13-04-2014 04:00:00 9.69167 C 7.25 g/m*3 9.69 C 0.8 km/h
2227 13-04-2014 05:00:00 8.63333 C 7.03 g/m*3 8.63 C 0.8 km/h
2228 13-04-2014 06:00:00 7.41667 C 6.82 g/m*3 7.42 C 0.8 km/h
2229 13-04-2014 07:00:00 6.75833 C 6.71 g/m*3 6.76 C 0.53333 km/h
2230 13-04-2014 08:00:00 7.3 C 6.97 g/m*3 7.3 C 1.06667 km/h
2231 13-04-2014 09:00:00 9.475 C 7.35 g/m*3 9.48 C 2.8 km/h
2232 13-04-2014 10:00:00 11 C 7.42 g/m*3 11 C 2.93333 km/h
2233 13-04-2014 11:00:00 12.75833 C 7.5 g/m*3 12.76 C 5.76667 km/h
2234 13-04-2014 12:00:00 14.14444 C 7.57 g/m*3 14.14 C 6.43333 km/h
2235 13-04-2014 13:00:00 14.65455 C 7.81 g/m*3 14.65 C 8.2 km/h
2236 13-04-2014 14:00:00 14.675 C 7.98 g/m*3 14.68 C 6.16667 km/h
2237 13-04-2014 15:00:00 14.9 C 7.97 g/m*3 14.9 C 11.00833 km/h
2238 13-04-2014 16:00:00 14.93333 C 7.91 g/m*3 14.93 C 9.14167 km/h
2239 13-04-2014 17:00:00 15.01667 C 7.35 g/m*3 15.02 C 10.09167 km/h
2240 13-04-2014 18:00:00 15.1 C 7.03 g/m*3 15.1 C 9.675 km/h
2241 13-04-2014 19:00:00 13.84167 C 6.98 g/m*3 13.84 C 8.6 km/h
2242 13-04-2014 20:00:00 13 C 7.29 g/m*3 13 C 3.60833 km/h
2243 13-04-2014 21:00:00 11.98333 C 7.35 g/m*3 11.98 C 2 km/h
2244 13-04-2014 22:00:00 11.10833 C 7.2 g/m*3 11.11 C 3.6 km/h
2245 13-04-2014 23:00:00 9.75833 C 7.02 g/m*3 9.76 C 3.06667 km/h
2246 14-04-2014 00:00:00 8.85833 C 6.92 g/m*3 8.86 C 3.2 km/h
2247 14-04-2014 01:00:00 9.30833 C 6.96 g/m*3 8.9 C 5.21667 km/h
2248 14-04-2014 02:00:00 8.825 C 6.92 g/m*3 8.82 C 2.66667 km/h
2249 14-04-2014 03:00:00 7.375 C 6.72 g/m*3 7.38 C 4.7 km/h
2250 14-04-2014 04:00:00 7.575 C 6.74 g/m*3 5.82 C 9.55 km/h
Sensor: Nr:Datum:Temp:Abs-Feuchte:Windchill:Wind:
Aussen-T/F 2251 14-04-2014 05:00:00 7.875 C 6.79 g/m*3 6.2 C 9.43333 km/h
2252 14-04-2014 06:00:00 8.43333 C 6.89 g/m*3 7.12 C 8.19167 km/h
2253 14-04-2014 07:00:00 8.60833 C 6.97 g/m*3 7.75 C 6.45 km/h
2254 14-04-2014 08:00:00 8.85 C 7.11 g/m*3 7.47 C 8.88333 km/h
2255 14-04-2014 09:00:00 9.825 C 7.05 g/m*3 8.68 C 8.6 km/h
2256 14-04-2014 10:00:00 10.49167 C 6.66 g/m*3 8.33 C 16.64167 km/h
2257 14-04-2014 11:00:00 9.94167 C 6.9 g/m*3 8.46 C 10.60833 km/h
2258 14-04-2014 12:00:00 11.4 C 6.34 g/m*3 11.4 C 16.36667 km/h
2259 14-04-2014 13:00:00 12.83333 C 6.07 g/m*3 12.83 C 17.03333 km/h
2260 14-04-2014 14:00:00 13.39167 C 5.99 g/m*3 13.39 C 21.58333 km/h
2261 14-04-2014 15:00:00 13.20833 C 5.96 g/m*3 13.21 C 22.8 km/h
2262 14-04-2014 16:00:00 12.89167 C 6.4 g/m*3 12.89 C 19.05 km/h
2263 14-04-2014 17:00:00 13.31667 C 6.05 g/m*3 13.32 C 18.63333 km/h
2264 14-04-2014 18:00:00 12.76667 C 5.76 g/m*3 12.77 C 18.76667 km/h
2265 14-04-2014 19:00:00 11.6 C 5.45 g/m*3 11.6 C 19.70833 km/h
2266 14-04-2014 20:00:00 7.96667 C 6.32 g/m*3 5.95 C 11.4 km/h
2267 14-04-2014 21:00:00 6.58889 C 6.34 g/m*3 5.32 C 6.78889 km/h
2268 14-04-2014 22:00:00 5.9 C 6.07 g/m*3 4.8 C 5.88333 km/h
2269 14-04-2014 23:00:00 5.6 C 6.15 g/m*3 5.6 C 2.26667 km/h
2270 15-04-2014 00:00:00 6.11667 C 6.18 g/m*3 5 C 6.03333 km/h
2271 15-04-2014 01:00:00 5.65833 C 5.95 g/m*3 4.38 C 6.30833 km/h
2272 15-04-2014 02:00:00 5.025 C 5.75 g/m*3 5.03 C 4.95 km/h
2273 15-04-2014 03:00:00 4.64444 C 5.72 g/m*3 4.64 C 1.95556 km/h
2274 15-04-2014 04:00:00 4.04167 C 5.62 g/m*3 4.04 C 2.8 km/h
2275 15-04-2014 05:00:00 3.91667 C 5.62 g/m*3 3.92 C 4.275 km/h
Sensor: Nr:Datum:Temp:Abs-Feuchte:Windchill:Wind:
Aussen-T/F 2276 15-04-2014 06:00:00 4.125 C 5.69 g/m*3 4.13 C 2.54167 km/h
2277 15-04-2014 07:00:00 4.01667 C 5.66 g/m*3 4.02 C 4.95833 km/h
2278 15-04-2014 08:00:00 4.9 C 5.84 g/m*3 2.62 C 9.65 km/h
2279 15-04-2014 09:00:00 6.175 C 6.01 g/m*3 3.76 C 11.56667 km/h
2280 15-04-2014 10:00:00 7.16667 C 5.82 g/m*3 5.03 C 11.16667 km/h
2281 15-04-2014 11:00:00 7.175 C 5.59 g/m*3 5.11 C 10.76667 km/h
2282 15-04-2014 12:00:00 7.99167 C 5.41 g/m*3 6.14 C 10.48333 km/h
2283 15-04-2014 13:00:00 9.2 C 5.31 g/m*3 7.66 C 10.08333 km/h
2284 15-04-2014 14:00:00 9.4 C 5.26 g/m*3 7.72 C 11.15833 km/h
2285 15-04-2014 15:00:00 9.44167 C 5.17 g/m*3 7.75 C 11.3 km/h
2286 15-04-2014 16:00:00 9.55833 C 5.22 g/m*3 8.34 C 8.73333 km/h
2287 15-04-2014 17:00:00 10.09167 C 5.21 g/m*3 8.28 C 13.03333 km/h
2288 15-04-2014 18:00:00 10.56667 C 5.87 g/m*3 9 C 12.01111 km/h
2289 15-04-2014 19:00:00 9.64167 C 7.02 g/m*3 9.32 C 5.09167 km/h
2290 15-04-2014 20:00:00 9.02 C 5.42 g/m*3 9.02 C 3.86 km/h
2291 16-04-2014 11:00:00 9.8 C 5.98 g/m*3 9.13 C 6.45 km/h
2292 16-04-2014 12:00:00 11.3 C 5.57 g/m*3 11.3 C 8.86667 km/h
2293 16-04-2014 13:00:00 13.9 C 5.52 g/m*3 13.9 C 9.54167 km/h
2294 16-04-2014 14:00:00 15.10833 C 5.45 g/m*3 15.11 C 10.21667 km/h
2295 16-04-2014 15:00:00 15.9 C 5.46 g/m*3 15.9 C 9.275 km/h
2296 16-04-2014 16:00:00 16.69167 C 5.29 g/m*3 16.69 C 9.80833 km/h
2297 16-04-2014 17:00:00 16.81667 C 5.26 g/m*3 16.82 C 11.16667 km/h
2298 16-04-2014 18:00:00 16.64167 C 5.16 g/m*3 16.64 C 9.00833 km/h
2299 16-04-2014 19:00:00 15.75 C 5.21 g/m*3 15.75 C 6.70833 km/h
2300 16-04-2014 20:00:00 11.13333 C 5.67 g/m*3 11.13 C 4 km/h
Sensor: Nr:Datum:Temp:Abs-Feuchte:Windchill:Wind:
Aussen-T/F 2301 16-04-2014 21:00:00 8.55 C 5.44 g/m*3 8.09 C 5.06667 km/h
2302 16-04-2014 22:00:00 7.675 C 5.45 g/m*3 7.68 C 4.66667 km/h
2303 16-04-2014 23:00:00 6.725 C 5.44 g/m*3 6.73 C 2.53333 km/h
2304 17-04-2014 00:00:00 5.65 C 5.33 g/m*3 5.65 C 0 km/h
2305 17-04-2014 01:00:00 4.85833 C 5.27 g/m*3 4.86 C 0 km/h
2306 17-04-2014 02:00:00 4.08333 C 5.17 g/m*3 4.08 C 0.4 km/h
2307 17-04-2014 03:00:00 3.4 C 5.24 g/m*3 3.4 C 0.4 km/h
2308 17-04-2014 04:00:00 2.60833 C 5.06 g/m*3 2.61 C 0 km/h
2309 17-04-2014 05:00:00 1.88333 C 4.92 g/m*3 1.88 C 0.13333 km/h
2310 17-04-2014 06:00:00 1.5 C 4.89 g/m*3 1.5 C 0 km/h
2311 17-04-2014 07:00:00 1.39167 C 4.9 g/m*3 1.39 C 0 km/h
2312 17-04-2014 08:00:00 2.10833 C 5.14 g/m*3 2.11 C 0 km/h
2313 17-04-2014 09:00:00 4.18333 C 5.6 g/m*3 4.18 C 0.26667 km/h
2314 17-04-2014 10:00:00 7.04167 C 6.11 g/m*3 7.04 C 0.53333 km/h
2315 17-04-2014 11:00:00 10.525 C 5.93 g/m*3 10.53 C 4.84167 km/h
2316 17-04-2014 12:00:00 13.66667 C 5.5 g/m*3 13.67 C 7.91667 km/h
2317 17-04-2014 13:00:00 15.53333 C 5.23 g/m*3 15.53 C 8.61667 km/h
2318 17-04-2014 14:00:00 16.15833 C 5.26 g/m*3 16.16 C 6.425 km/h
2319 17-04-2014 15:00:00 16.98333 C 5.41 g/m*3 16.98 C 6.15833 km/h
2320 17-04-2014 16:00:00 18.75833 C 5.48 g/m*3 18.76 C 10.2 km/h
2321 17-04-2014 17:00:00 19.475 C 5.21 g/m*3 19.48 C 9.825 km/h
2322 17-04-2014 18:00:00 19.54167 C 5.41 g/m*3 19.54 C 4.95833 km/h
2323 17-04-2014 19:00:00 16.58333 C 6.37 g/m*3 16.58 C 3.46667 km/h
2324 17-04-2014 20:00:00 12.6 C 6.32 g/m*3 12.6 C 3.46667 km/h
2325 17-04-2014 21:00:00 12.46667 C 5.97 g/m*3 12.47 C 2.66667 km/h
Sensor: Nr:Datum:Temp:Abs-Feuchte:Windchill:Wind:
Aussen-T/F 2326 17-04-2014 22:00:00 12.91667 C 5.71 g/m*3 12.92 C 3.2 km/h
2327 17-04-2014 23:00:00 12.55833 C 6.03 g/m*3 12.56 C 2.53333 km/h
2328 18-04-2014 00:00:00 11.76667 C 6.27 g/m*3 11.77 C 3.075 km/h
2329 18-04-2014 01:00:00 11.38333 C 7.25 g/m*3 11.38 C 5.09167 km/h
2330 18-04-2014 02:00:00 10.95 C 7.37 g/m*3 10.43 C 6.56667 km/h
2331 18-04-2014 03:00:00 11.55833 C 7.46 g/m*3 11.56 C 10.75 km/h
2332 18-04-2014 04:00:00 10.13333 C 7.71 g/m*3 8.69 C 10.61667 km/h
2333 18-04-2014 05:00:00 8.80833 C 7.54 g/m*3 7.72 C 7.51667 km/h
2334 18-04-2014 06:00:00 8.4 C 7.43 g/m*3 7.15 C 7.90833 km/h
2335 18-04-2014 07:00:00 8.38333 C 7.19 g/m*3 6.95 C 8.725 km/h
2336 18-04-2014 08:00:00 8.54167 C 6.86 g/m*3 6.53 C 12.09167 km/h
2337 18-04-2014 09:00:00 9.05833 C 6.36 g/m*3 6.8 C 14.63333 km/h
2338 18-04-2014 10:00:00 9.225 C 6.36 g/m*3 7.08 C 14.09167 km/h
2339 18-04-2014 11:00:00 9.49167 C 6.54 g/m*3 7.67 C 12.225 km/h
2340 18-04-2014 12:00:00 10.00833 C 6.63 g/m*3 8.13 C 13.425 km/h
2341 18-04-2014 13:00:00 12.375 C 6.14 g/m*3 12.38 C 15.03333 km/h
2342 18-04-2014 14:00:00 13.325 C 5.62 g/m*3 13.33 C 14.9 km/h
2343 18-04-2014 15:00:00 13.6 C 5.09 g/m*3 13.6 C 17.7 km/h
2344 18-04-2014 16:00:00 14.55 C 4.82 g/m*3 14.55 C 17.3 km/h
2345 18-04-2014 17:00:00 14.13333 C 4.85 g/m*3 14.13 C 17.16667 km/h
2346 18-04-2014 18:00:00 13.90833 C 4.9 g/m*3 13.91 C 14.9 km/h
2347 18-04-2014 19:00:00 13.19167 C 4.8 g/m*3 13.19 C 9.54167 km/h
2348 18-04-2014 20:00:00 10.21667 C 5.22 g/m*3 10.22 C 2.275 km/h
2349 18-04-2014 21:00:00 8.725 C 5.64 g/m*3 8.73 C 1.46667 km/h
2350 18-04-2014 22:00:00 8.20833 C 5.85 g/m*3 8.21 C 1.86667 km/h
Sensor: Nr:Datum:Temp:Abs-Feuchte:Windchill:Wind:
Aussen-T/F 2351 18-04-2014 23:00:00 7.35 C 6.01 g/m*3 7.35 C 1.33333 km/h
2352 19-04-2014 00:00:00 7.725 C 6.19 g/m*3 7.73 C 0 km/h
2353 19-04-2014 01:00:00 6.825 C 6.07 g/m*3 6.83 C 1.06667 km/h
2354 19-04-2014 02:00:00 5.83333 C 5.95 g/m*3 5.83 C 2.13333 km/h
2355 19-04-2014 03:00:00 5.14167 C 5.86 g/m*3 5.14 C 1.46667 km/h
2356 19-04-2014 04:00:00 5.16667 C 5.93 g/m*3 5.17 C 0.4 km/h
2357 19-04-2014 05:00:00 4.15833 C 5.69 g/m*3 4.16 C 0.4 km/h
2358 19-04-2014 06:00:00 4.08333 C 5.79 g/m*3 4.08 C 0 km/h
2359 19-04-2014 07:00:00 4.35833 C 5.93 g/m*3 4.36 C 0 km/h
2360 19-04-2014 08:00:00 4.95833 C 6.1 g/m*3 4.96 C 0.53333 km/h
2361 19-04-2014 09:00:00 6.06667 C 6.45 g/m*3 6.07 C 0.13333 km/h
2362 19-04-2014 10:00:00 8.76667 C 6.74 g/m*3 7.7 C 7.39167 km/h
2363 19-04-2014 11:00:00 10.48333 C 6.6 g/m*3 9.02 C 11.15833 km/h
2364 19-04-2014 12:00:00 11.96667 C 6.51 g/m*3 11.97 C 13.29167 km/h
2365 19-04-2014 13:00:00 14.75 C 6.8 g/m*3 14.75 C 14.23333 km/h
2366 19-04-2014 14:00:00 16.4 C 7.06 g/m*3 16.4 C 13.16667 km/h
2367 19-04-2014 15:00:00 17.75 C 7.15 g/m*3 17.75 C 17.3 km/h
2368 19-04-2014 16:00:00 18.675 C 7.77 g/m*3 18.68 C 15.43333 km/h
2369 19-04-2014 17:00:00 18.325 C 8.01 g/m*3 18.33 C 14.63333 km/h
2370 19-04-2014 18:00:00 17.90833 C 8.26 g/m*3 17.91 C 11.01667 km/h
2371 19-04-2014 19:00:00 17.09167 C 8.38 g/m*3 17.09 C 8.86667 km/h
2372 19-04-2014 20:00:00 14.75 C 8.49 g/m*3 14.75 C 2.53333 km/h
2373 19-04-2014 21:00:00 13.825 C 8.46 g/m*3 13.83 C 5.36667 km/h
2374 19-04-2014 22:00:00 12.74167 C 8.58 g/m*3 12.74 C 3.34167 km/h
2375 19-04-2014 23:00:00 11.94167 C 8.69 g/m*3 11.94 C 2.93333 km/h
Sensor: Nr:Datum:Temp:Abs-Feuchte:Windchill:Wind:
Aussen-T/F 2376 20-04-2014 00:00:00 11.43333 C 8.8 g/m*3 11.43 C 2.66667 km/h
2377 20-04-2014 01:00:00 11.35 C 8.96 g/m*3 11.35 C 2.26667 km/h
2378 20-04-2014 02:00:00 11.375 C 9.03 g/m*3 11.38 C 2.8 km/h
2379 20-04-2014 03:00:00 11.19167 C 9.06 g/m*3 11.19 C 2.93333 km/h
2380 20-04-2014 04:00:00 11.23333 C 9.08 g/m*3 11.23 C 2.4 km/h
2381 20-04-2014 05:00:00 11.025 C 8.98 g/m*3 11.03 C 2.53333 km/h
2382 20-04-2014 06:00:00 10.50833 C 8.9 g/m*3 10.51 C 2 km/h
2383 20-04-2014 07:00:00 10.43333 C 8.96 g/m*3 10.43 C 0.53333 km/h
2384 20-04-2014 08:00:00 11.18889 C 9.35 g/m*3 11.19 C 1.06667 km/h
2385 20-04-2014 09:00:00 12.6 C 9.72 g/m*3 12.6 C 2.80833 km/h
2386 20-04-2014 10:00:00 15.28333 C 9.63 g/m*3 15.28 C 7.91667 km/h
2387 20-04-2014 11:00:00 17.14167 C 9.55 g/m*3 17.14 C 9.13333 km/h
2388 20-04-2014 12:00:00 18.75833 C 9.08 g/m*3 18.76 C 10.09167 km/h
2389 20-04-2014 13:00:00 20.65 C 8.68 g/m*3 20.65 C 12.625 km/h
2390 20-04-2014 14:00:00 20.39167 C 8.31 g/m*3 20.39 C 10.20833 km/h
2391 20-04-2014 15:00:00 20.6 C 8.2 g/m*3 20.6 C 8.325 km/h
2392 20-04-2014 16:00:00 21.6 C 7.9 g/m*3 21.6 C 8.60833 km/h
2393 20-04-2014 17:00:00 21.86667 C 7.8 g/m*3 21.87 C 8.2 km/h
2394 20-04-2014 18:00:00 19.4 C 8.19 g/m*3 19.4 C 3.08333 km/h
2395 20-04-2014 19:00:00 16.3 C 8.51 g/m*3 16.3 C 2.53333 km/h
2396 20-04-2014 20:00:00 14.39167 C 7.97 g/m*3 14.39 C 4.4 km/h
2397 20-04-2014 21:00:00 13.40833 C 7.82 g/m*3 13.41 C 3.6 km/h
2398 20-04-2014 22:00:00 12.96667 C 7.88 g/m*3 12.97 C 2.53333 km/h
2399 20-04-2014 23:00:00 12.00833 C 7.84 g/m*3 12.01 C 2.53333 km/h
2400 21-04-2014 00:00:00 10.99167 C 7.64 g/m*3 10.99 C 1.6 km/h
Sensor: Nr:Datum:Temp:Abs-Feuchte:Windchill:Wind:
Aussen-T/F 2401 21-04-2014 01:00:00 10.09167 C 7.55 g/m*3 10.09 C 1.2 km/h
2402 21-04-2014 02:00:00 9.73333 C 7.43 g/m*3 9.73 C 2.13333 km/h
2403 21-04-2014 03:00:00 8.88333 C 7.31 g/m*3 8.88 C 1.06667 km/h
2404 21-04-2014 04:00:00 8.46667 C 7.25 g/m*3 8.47 C 0.26667 km/h
2405 21-04-2014 05:00:00 7.54167 C 7.07 g/m*3 7.54 C 0 km/h
2406 21-04-2014 06:00:00 6.76667 C 6.96 g/m*3 6.77 C 0.26667 km/h
2407 21-04-2014 07:00:00 6.45 C 6.94 g/m*3 6.45 C 0 km/h
2408 21-04-2014 08:00:00 7.125 C 7.34 g/m*3 7.13 C 0 km/h
2409 21-04-2014 09:00:00 9.025 C 8.12 g/m*3 9.03 C 0 km/h
2410 21-04-2014 10:00:00 11.71667 C 8.83 g/m*3 11.72 C 2.66667 km/h
2411 21-04-2014 11:00:00 15.35 C 8.73 g/m*3 15.35 C 5.075 km/h
2412 21-04-2014 12:00:00 17.86667 C 8.46 g/m*3 17.87 C 8.45833 km/h
2413 21-04-2014 13:00:00 19.8 C 8.45 g/m*3 19.8 C 6.96667 km/h
2414 21-04-2014 14:00:00 18.94167 C 9.34 g/m*3 18.94 C 8.18333 km/h
2415 21-04-2014 15:00:00 18.15833 C 10.47 g/m*3 18.16 C 5.35 km/h
2416 21-04-2014 16:00:00 19.575 C 9.31 g/m*3 19.58 C 8.325 km/h
2417 21-04-2014 17:00:00 20.69167 C 8.7 g/m*3 20.69 C 11.29167 km/h
2418 21-04-2014 18:00:00 17.23333 C 9.18 g/m*3 17.23 C 9.66667 km/h
2419 21-04-2014 19:00:00 13.68333 C 9.67 g/m*3 13.68 C 8.30833 km/h
2420 21-04-2014 20:00:00 11.16667 C 9.42 g/m*3 11.17 C 2.4 km/h
2421 21-04-2014 21:00:00 10.91667 C 9.45 g/m*3 10.92 C 0.26667 km/h
2422 21-04-2014 22:00:00 10.14167 C 9.05 g/m*3 10.14 C 0.8 km/h
2423 21-04-2014 23:00:00 9.55833 C 8.77 g/m*3 9.56 C 0.13333 km/h
2424 22-04-2014 00:00:00 8.925 C 8.43 g/m*3 8.93 C 0.13333 km/h
2425 22-04-2014 01:00:00 8.79167 C 8.42 g/m*3 8.79 C 0.66667 km/h
Sensor: Nr:Datum:Temp:Abs-Feuchte:Windchill:Wind:
Aussen-T/F 2426 22-04-2014 02:00:00 8.81667 C 8.45 g/m*3 8.82 C 0.4 km/h
2427 22-04-2014 03:00:00 8.575 C 8.32 g/m*3 8.57 C 0 km/h
2428 22-04-2014 04:00:00 8.30833 C 8.18 g/m*3 8.31 C 0.26667 km/h
2429 22-04-2014 05:00:00 8.68333 C 8.42 g/m*3 8.68 C 2.14167 km/h
2430 22-04-2014 06:00:00 8.69167 C 8.38 g/m*3 8.69 C 0.26667 km/h
2431 22-04-2014 07:00:00 9.13333 C 8.69 g/m*3 9.13 C 0 km/h
2432 22-04-2014 08:00:00 10.125 C 9.27 g/m*3 10.13 C 3.075 km/h
2433 22-04-2014 09:00:00 11.05833 C 9.5 g/m*3 11.06 C 9.40833 km/h
2434 22-04-2014 10:00:00 12.68333 C 9.69 g/m*3 12.68 C 11.025 km/h
2435 22-04-2014 11:00:00 13.48333 C 9.77 g/m*3 13.48 C 7.375 km/h
2436 22-04-2014 12:00:00 14.11667 C 9.92 g/m*3 14.12 C 6.30833 km/h
2437 22-04-2014 13:00:00 15.80833 C 10.57 g/m*3 15.81 C 4.95 km/h
2438 22-04-2014 14:00:00 17.46667 C 10.54 g/m*3 17.47 C 4.95 km/h
2439 22-04-2014 15:00:00 17.91667 C 10.52 g/m*3 17.92 C 5.625 km/h
2440 22-04-2014 16:00:00 18.51667 C 10.58 g/m*3 18.52 C 4.95833 km/h
2441 22-04-2014 17:00:00 18.85 C 10.61 g/m*3 18.85 C 5.35 km/h
2442 22-04-2014 18:00:00 19.23333 C 10.27 g/m*3 19.23 C 6.44167 km/h
2443 22-04-2014 19:00:00 18.55833 C 10.44 g/m*3 18.56 C 3.73333 km/h
2444 22-04-2014 20:00:00 14.325 C 10.36 g/m*3 14.33 C 4.4 km/h
2445 22-04-2014 21:00:00 12.59167 C 9.78 g/m*3 12.59 C 1.33333 km/h
2446 22-04-2014 22:00:00 12.05833 C 9.63 g/m*3 12.06 C 2.4 km/h
2447 22-04-2014 23:00:00 11.16667 C 9.35 g/m*3 11.17 C 0 km/h
2448 23-04-2014 00:00:00 10.3 C 8.99 g/m*3 10.3 C 0 km/h
2449 23-04-2014 01:00:00 9.64167 C 8.72 g/m*3 9.64 C 0 km/h
2450 23-04-2014 02:00:00 9.01667 C 8.41 g/m*3 9.02 C 0 km/h
Sensor: Nr:Datum:Temp:Abs-Feuchte:Windchill:Wind:
Aussen-T/F 2451 23-04-2014 03:00:00 8.41667 C 8.15 g/m*3 8.42 C 0 km/h
2452 23-04-2014 04:00:00 7.74167 C 7.81 g/m*3 7.74 C 0 km/h
2453 23-04-2014 05:00:00 7.40833 C 7.64 g/m*3 7.41 C 0 km/h
2454 23-04-2014 06:00:00 7.29167 C 7.63 g/m*3 7.29 C 0 km/h
2455 23-04-2014 07:00:00 7.625 C 7.83 g/m*3 7.63 C 0.66667 km/h
2456 23-04-2014 08:00:00 8.11667 C 8.08 g/m*3 8.12 C 0 km/h
2457 23-04-2014 09:00:00 9.75833 C 8.96 g/m*3 9.76 C 0.66667 km/h
2458 23-04-2014 10:00:00 11.53333 C 9.77 g/m*3 11.53 C 0.13333 km/h
2459 23-04-2014 11:00:00 14.34167 C 10.78 g/m*3 14.34 C 0.26667 km/h
2460 23-04-2014 12:00:00 15.90833 C 11.73 g/m*3 15.91 C 0.93333 km/h
2461 23-04-2014 13:00:00 18.74167 C 10.98 g/m*3 18.74 C 3.88333 km/h
2462 23-04-2014 14:00:00 19.14167 C 11.15 g/m*3 19.14 C 1.875 km/h
2463 23-04-2014 15:00:00 19.55 C 10.49 g/m*3 19.55 C 4.13333 km/h
2464 23-04-2014 16:00:00 21.05 C 9.02 g/m*3 21.05 C 6.025 km/h
2465 23-04-2014 17:00:00 22.55 C 8.71 g/m*3 22.55 C 7.64167 km/h
2466 23-04-2014 18:00:00 22.175 C 9.02 g/m*3 22.18 C 5.75 km/h
2467 23-04-2014 19:00:00 19.95833 C 9.78 g/m*3 19.96 C 3.75 km/h
2468 23-04-2014 20:00:00 15.60833 C 10 g/m*3 15.61 C 2.53333 km/h
2469 23-04-2014 21:00:00 13.31667 C 9.23 g/m*3 13.32 C 1.2 km/h
2470 23-04-2014 22:00:00 12.1 C 9.05 g/m*3 12.1 C 0 km/h
2471 23-04-2014 23:00:00 11.25833 C 8.85 g/m*3 11.26 C 0 km/h
2472 24-04-2014 00:00:00 10.83333 C 8.91 g/m*3 10.83 C 0 km/h
2473 24-04-2014 01:00:00 10.96667 C 8.99 g/m*3 10.97 C 0 km/h
2474 24-04-2014 02:00:00 10.58333 C 8.82 g/m*3 10.58 C 0 km/h
2475 24-04-2014 03:00:00 10.04167 C 8.68 g/m*3 10.04 C 0 km/h
Sensor: Nr:Datum:Temp:Abs-Feuchte:Windchill:Wind:
Aussen-T/F 2476 24-04-2014 04:00:00 10.23333 C 8.88 g/m*3 10.23 C 0 km/h
2477 24-04-2014 05:00:00 10.25833 C 8.99 g/m*3 10.26 C 0 km/h
2478 24-04-2014 06:00:00 10.49167 C 9.21 g/m*3 10.49 C 0.13333 km/h
2479 24-04-2014 07:00:00 10.7 C 9.42 g/m*3 10.7 C 0.13333 km/h
2480 24-04-2014 08:00:00 11.20833 C 9.74 g/m*3 11.21 C 0 km/h
2481 24-04-2014 09:00:00 12.48333 C 10.48 g/m*3 12.48 C 0.13333 km/h
2482 24-04-2014 10:00:00 14.45833 C 11.12 g/m*3 14.46 C 0.26667 km/h
2483 24-04-2014 11:00:00 16.79167 C 11.9 g/m*3 16.79 C 2.93333 km/h
2484 24-04-2014 12:00:00 19.06667 C 12.67 g/m*3 19.07 C 3.86667 km/h
2485 24-04-2014 13:00:00 22.275 C 12.73 g/m*3 22.28 C 4.675 km/h
2486 24-04-2014 14:00:00 23.28333 C 10.22 g/m*3 23.28 C 8.06667 km/h
2487 24-04-2014 15:00:00 23.49167 C 9.86 g/m*3 23.49 C 6.575 km/h
2488 24-04-2014 16:00:00 24.73333 C 9.51 g/m*3 24.73 C 10.475 km/h
2489 24-04-2014 17:00:00 23.71667 C 9.62 g/m*3 23.72 C 5.21667 km/h
2490 24-04-2014 18:00:00 20.55833 C 10.36 g/m*3 20.56 C 7.24167 km/h
2491 24-04-2014 19:00:00 17.89167 C 11.08 g/m*3 17.89 C 1.06667 km/h
2492 24-04-2014 20:00:00 15.88333 C 10.63 g/m*3 15.88 C 0.53333 km/h
2493 24-04-2014 21:00:00 14.4 C 10.17 g/m*3 14.4 C 1.6 km/h
2494 24-04-2014 22:00:00 13.4 C 9.96 g/m*3 13.4 C 0.13333 km/h
2495 24-04-2014 23:00:00 12.45833 C 9.81 g/m*3 12.46 C 0 km/h
2496 25-04-2014 00:00:00 11.80833 C 9.67 g/m*3 11.81 C 0 km/h
2497 25-04-2014 01:00:00 11.45833 C 9.56 g/m*3 11.46 C 0 km/h
2498 25-04-2014 02:00:00 11.1 C 9.35 g/m*3 11.1 C 0 km/h
2499 25-04-2014 03:00:00 10.69167 C 9.17 g/m*3 10.69 C 0 km/h
2500 25-04-2014 04:00:00 10.925 C 9.31 g/m*3 10.93 C 0 km/h
Sensor: Nr:Datum:Temp:Abs-Feuchte:Windchill:Wind:
Aussen-T/F 2501 25-04-2014 05:00:00 11.03333 C 9.35 g/m*3 11.03 C 0.13333 km/h
2502 25-04-2014 06:00:00 10.54167 C 9.18 g/m*3 10.54 C 0 km/h
2503 25-04-2014 07:00:00 10.70833 C 9.39 g/m*3 10.71 C 0 km/h
2504 25-04-2014 08:00:00 11.95833 C 10.11 g/m*3 11.96 C 1.6 km/h
2505 25-04-2014 09:00:00 13.86667 C 10.68 g/m*3 13.87 C 3.33333 km/h
2506 25-04-2014 10:00:00 16.21667 C 11.03 g/m*3 16.22 C 9.01667 km/h
2507 25-04-2014 11:00:00 18.75833 C 11.47 g/m*3 18.76 C 7.925 km/h
2508 25-04-2014 12:00:00 21.04167 C 11.43 g/m*3 21.04 C 9.95 km/h
2509 25-04-2014 13:00:00 22.96667 C 11.21 g/m*3 22.97 C 9.7 km/h
2510 25-04-2014 14:00:00 23.475 C 11.12 g/m*3 23.48 C 7.40833 km/h
2511 25-04-2014 15:00:00 23.99167 C 10.62 g/m*3 23.99 C 5.90833 km/h
2512 25-04-2014 16:00:00 26.625 C 9.39 g/m*3 26.63 C 7.25 km/h
2513 25-04-2014 17:00:00 26.08333 C 8.09 g/m*3 26.08 C 6.58333 km/h
2514 25-04-2014 18:00:00 21.55833 C 10.91 g/m*3 21.56 C 1.73333 km/h
2515 25-04-2014 19:00:00 19.58333 C 10.81 g/m*3 19.58 C 2.8 km/h
2516 25-04-2014 20:00:00 18.575 C 10.49 g/m*3 18.58 C 2.53333 km/h
2517 25-04-2014 21:00:00 17.525 C 10.15 g/m*3 17.52 C 2.26667 km/h
2518 25-04-2014 22:00:00 15.98333 C 10.09 g/m*3 15.98 C 0.53333 km/h
2519 25-04-2014 23:00:00 14.7 C 9.75 g/m*3 14.7 C 2 km/h
2520 26-04-2014 00:00:00 14.85833 C 9.94 g/m*3 14.86 C 1.73333 km/h
2521 26-04-2014 01:00:00 14.475 C 9.91 g/m*3 14.48 C 5.1 km/h
2522 26-04-2014 02:00:00 14.45 C 9.95 g/m*3 14.45 C 4.275 km/h
2523 26-04-2014 03:00:00 13.43333 C 9.78 g/m*3 13.43 C 0.53333 km/h
2524 26-04-2014 04:00:00 12.75833 C 9.65 g/m*3 12.76 C 0.26667 km/h
2525 26-04-2014 05:00:00 12.73333 C 9.6 g/m*3 12.73 C 0.4 km/h
Sensor: Nr:Datum:Temp:Abs-Feuchte:Windchill:Wind:
Aussen-T/F 2526 26-04-2014 06:00:00 11.975 C 9.43 g/m*3 11.98 C 0 km/h
2527 26-04-2014 07:00:00 12.23333 C 9.61 g/m*3 12.23 C 0 km/h
2528 26-04-2014 08:00:00 12.96667 C 9.71 g/m*3 12.97 C 2.26667 km/h
2529 26-04-2014 09:00:00 13.95 C 9.91 g/m*3 13.95 C 2.53333 km/h
2530 26-04-2014 10:00:00 15.3 C 9.98 g/m*3 15.3 C 3.33333 km/h
2531 26-04-2014 11:00:00 16.625 C 9.87 g/m*3 16.63 C 4.53333 km/h
2532 26-04-2014 12:00:00 18.125 C 9.23 g/m*3 18.13 C 3.86667 km/h
2533 26-04-2014 13:00:00 19.63333 C 9.67 g/m*3 19.63 C 4.8 km/h
2534 26-04-2014 14:00:00 20.16667 C 9.09 g/m*3 20.17 C 5.9 km/h
2535 26-04-2014 15:00:00 20.61667 C 8.15 g/m*3 20.62 C 8.86667 km/h
2536 26-04-2014 16:00:00 18.64167 C 8.46 g/m*3 18.64 C 3.46667 km/h
2537 26-04-2014 17:00:00 17.625 C 9.68 g/m*3 17.63 C 1.6 km/h
2538 26-04-2014 18:00:00 16.525 C 9.73 g/m*3 16.52 C 1.6 km/h
2539 26-04-2014 19:00:00 16.025 C 8.76 g/m*3 16.02 C 3.75 km/h
2540 26-04-2014 20:00:00 13.83333 C 9.54 g/m*3 13.83 C 1.73333 km/h
2541 26-04-2014 21:00:00 13.075 C 9.58 g/m*3 13.08 C 1.2 km/h
2542 26-04-2014 22:00:00 12.40833 C 9.74 g/m*3 12.41 C 0.4 km/h
2543 26-04-2014 23:00:00 12.36667 C 9.75 g/m*3 12.37 C 0.26667 km/h
2544 27-04-2014 00:00:00 12.78333 C 9.79 g/m*3 12.78 C 2.66667 km/h
2545 27-04-2014 01:00:00 12.79167 C 9.84 g/m*3 12.79 C 2.53333 km/h
2546 27-04-2014 02:00:00 12.51667 C 9.75 g/m*3 12.52 C 2.26667 km/h
2547 27-04-2014 03:00:00 12.3 C 9.84 g/m*3 12.3 C 0.53333 km/h
2548 27-04-2014 04:00:00 11.875 C 9.9 g/m*3 11.88 C 1.73333 km/h
2549 27-04-2014 05:00:00 11.46667 C 9.75 g/m*3 11.47 C 0.53333 km/h
2550 27-04-2014 06:00:00 11.15833 C 9.65 g/m*3 11.16 C 0 km/h
Sensor: Nr:Datum:Temp:Abs-Feuchte:Windchill:Wind:
Aussen-T/F 2551 27-04-2014 07:00:00 11.01667 C 9.62 g/m*3 11.02 C 0.4 km/h
2552 27-04-2014 08:00:00 10.93333 C 9.57 g/m*3 10.93 C 0.66667 km/h
2553 27-04-2014 09:00:00 11.23333 C 9.72 g/m*3 11.23 C 2.13333 km/h
2554 27-04-2014 10:00:00 11.95833 C 9.81 g/m*3 11.96 C 4.15 km/h
2555 27-04-2014 11:00:00 12.88333 C 9.93 g/m*3 12.88 C 4.40833 km/h
2556 27-04-2014 12:00:00 14.19167 C 9.98 g/m*3 14.19 C 8.06667 km/h
2557 27-04-2014 13:00:00 15.43333 C 9.45 g/m*3 15.43 C 10.09167 km/h
2558 27-04-2014 14:00:00 16.23333 C 8.69 g/m*3 16.23 C 9.95 km/h
2559 27-04-2014 15:00:00 15.70833 C 8.4 g/m*3 15.71 C 7.25 km/h
2560 27-04-2014 16:00:00 15.35 C 8.27 g/m*3 15.35 C 3.88333 km/h
2561 27-04-2014 17:00:00 15.75833 C 8.22 g/m*3 15.76 C 5.35 km/h
2562 27-04-2014 18:00:00 17.9 C 7.75 g/m*3 17.9 C 9.00833 km/h
2563 27-04-2014 19:00:00 16.90833 C 8.59 g/m*3 16.91 C 3.49167 km/h
2564 27-04-2014 20:00:00 13 C 9.16 g/m*3 13 C 2.13333 km/h
2565 27-04-2014 21:00:00 10.94167 C 8.54 g/m*3 10.94 C 0.93333 km/h
2566 27-04-2014 22:00:00 9.99167 C 8.17 g/m*3 9.99 C 0 km/h
2567 27-04-2014 23:00:00 9.50833 C 8.14 g/m*3 9.51 C 0 km/h
2568 28-04-2014 00:00:00 9.25 C 8.23 g/m*3 9.25 C 0.26667 km/h
2569 28-04-2014 01:00:00 9.36667 C 8.27 g/m*3 9.37 C 0.13333 km/h
2570 28-04-2014 02:00:00 9.15833 C 8.18 g/m*3 9.16 C 0 km/h
2571 28-04-2014 03:00:00 8.68333 C 8.03 g/m*3 8.68 C 0 km/h
2572 28-04-2014 04:00:00 8.38333 C 7.94 g/m*3 8.38 C 0 km/h
2573 28-04-2014 05:00:00 8.39167 C 7.97 g/m*3 8.39 C 0 km/h
2574 28-04-2014 06:00:00 8.375 C 8.02 g/m*3 8.38 C 0.4 km/h
2575 28-04-2014 07:00:00 9.03333 C 8.25 g/m*3 9.03 C 1.46667 km/h
Sensor: Nr:Datum:Temp:Abs-Feuchte:Windchill:Wind:
Aussen-T/F 2576 28-04-2014 08:00:00 10.01667 C 8.53 g/m*3 10.02 C 2.66667 km/h
2577 28-04-2014 09:00:00 11.275 C 8.86 g/m*3 11.28 C 5.61667 km/h
2578 28-04-2014 10:00:00 12.95 C 9 g/m*3 12.95 C 4.53333 km/h
2579 28-04-2014 11:00:00 14.8 C 9.07 g/m*3 14.8 C 3.46667 km/h
2580 28-04-2014 12:00:00 16.15833 C 9.34 g/m*3 16.16 C 4.94167 km/h
2581 28-04-2014 13:00:00 17.10833 C 8.86 g/m*3 17.11 C 4.80833 km/h
2582 28-04-2014 14:00:00 17.01667 C 8.38 g/m*3 17.02 C 3.075 km/h
2583 28-04-2014 15:00:00 16.89167 C 8.91 g/m*3 16.89 C 4.4 km/h
2584 28-04-2014 16:00:00 16.95 C 8.86 g/m*3 16.95 C 4.95 km/h
2585 28-04-2014 17:00:00 17.05833 C 8.8 g/m*3 17.06 C 4.4 km/h
2586 28-04-2014 18:00:00 16.69167 C 8.93 g/m*3 16.69 C 5.475 km/h
2587 28-04-2014 19:00:00 15.74167 C 9.56 g/m*3 15.74 C 3.06667 km/h
2588 28-04-2014 20:00:00 14.36667 C 9.7 g/m*3 14.37 C 0.4 km/h
2589 28-04-2014 21:00:00 13.48333 C 9.85 g/m*3 13.48 C 0 km/h
2590 28-04-2014 22:00:00 13.2 C 10.03 g/m*3 13.2 C 0 km/h
2591 28-04-2014 23:00:00 12.90833 C 10.02 g/m*3 12.91 C 0.13333 km/h
2592 29-04-2014 00:00:00 12.89167 C 10.13 g/m*3 12.89 C 0 km/h
2593 29-04-2014 01:00:00 12.825 C 10.14 g/m*3 12.83 C 0 km/h
2594 29-04-2014 02:00:00 12.65 C 10.08 g/m*3 12.65 C 0 km/h
2595 29-04-2014 03:00:00 12.46667 C 9.98 g/m*3 12.47 C 0 km/h
2596 29-04-2014 04:00:00 12.34167 C 9.99 g/m*3 12.34 C 0 km/h
2597 29-04-2014 05:00:00 12.275 C 9.89 g/m*3 12.28 C 0 km/h
2598 29-04-2014 06:00:00 12.35833 C 9.85 g/m*3 12.36 C 0.53333 km/h
2599 29-04-2014 07:00:00 12.20833 C 9.97 g/m*3 12.21 C 0 km/h
2600 29-04-2014 08:00:00 12.01667 C 10.13 g/m*3 12.02 C 0 km/h
Sensor: Nr:Datum:Temp:Abs-Feuchte:Windchill:Wind:
Aussen-T/F 2601 29-04-2014 09:00:00 12.225 C 10.38 g/m*3 12.23 C 0 km/h
2602 29-04-2014 10:00:00 12.625 C 10.56 g/m*3 12.63 C 3.6 km/h
2603 29-04-2014 11:00:00 13.15 C 10.69 g/m*3 13.15 C 2.8 km/h
2604 29-04-2014 12:00:00 14.06667 C 10.98 g/m*3 14.07 C 2.66667 km/h
2605 29-04-2014 13:00:00 14.71667 C 11.1 g/m*3 14.72 C 3.6 km/h
2606 29-04-2014 14:00:00 15.38333 C 11.32 g/m*3 15.38 C 3.86667 km/h
2607 29-04-2014 15:00:00 16.35833 C 11.27 g/m*3 16.36 C 5.48333 km/h
2608 29-04-2014 16:00:00 17 C 11.26 g/m*3 17 C 6.3 km/h
2609 29-04-2014 17:00:00 16.18333 C 10.71 g/m*3 16.18 C 4.95 km/h
2610 29-04-2014 18:00:00 14.775 C 10.92 g/m*3 14.78 C 1.88333 km/h
2611 29-04-2014 19:00:00 13.58333 C 10.79 g/m*3 13.58 C 0.53333 km/h
2612 29-04-2014 20:00:00 13.08333 C 10.64 g/m*3 13.08 C 0.4 km/h
2613 29-04-2014 21:00:00 12.58333 C 10.48 g/m*3 12.58 C 0 km/h
2614 29-04-2014 22:00:00 12.45 C 10.51 g/m*3 12.45 C 0 km/h
2615 29-04-2014 23:00:00 12.2 C 10.36 g/m*3 12.2 C 0 km/h
2616 30-04-2014 00:00:00 11.54167 C 9.94 g/m*3 11.54 C 0 km/h
2617 30-04-2014 01:00:00 10.74167 C 9.46 g/m*3 10.74 C 0 km/h
2618 30-04-2014 02:00:00 10.49167 C 9.4 g/m*3 10.49 C 0 km/h
2619 30-04-2014 03:00:00 11.06667 C 9.75 g/m*3 11.07 C 0.26667 km/h
2620 30-04-2014 04:00:00 11.15833 C 9.81 g/m*3 11.16 C 1.46667 km/h
2621 30-04-2014 05:00:00 11.20833 C 9.84 g/m*3 11.21 C 0.13333 km/h
2622 30-04-2014 06:00:00 11.28333 C 9.88 g/m*3 11.28 C 1.06667 km/h
2623 30-04-2014 07:00:00 11.13333 C 9.79 g/m*3 11.13 C 2 km/h
2624 30-04-2014 08:00:00 11.43333 C 9.87 g/m*3 11.43 C 2 km/h
2625 30-04-2014 09:00:00 11.94167 C 9.97 g/m*3 11.94 C 0.66667 km/h
Sensor: Nr:Datum:Temp:Abs-Feuchte:Windchill:Wind:
Aussen-T/F 2626 30-04-2014 10:00:00 13.09167 C 10.3 g/m*3 13.09 C 1.73333 km/h
2627 30-04-2014 11:00:00 14.075 C 10.52 g/m*3 14.08 C 3.06667 km/h
2628 30-04-2014 12:00:00 15.20833 C 10.74 g/m*3 15.21 C 3.06667 km/h
2629 30-04-2014 13:00:00 16.54167 C 11.14 g/m*3 16.54 C 4.00833 km/h
2630 30-04-2014 14:00:00 17.93333 C 11.36 g/m*3 17.93 C 5.625 km/h
2631 30-04-2014 15:00:00 18.93333 C 11.21 g/m*3 18.93 C 7.64167 km/h
2632 30-04-2014 16:00:00 20.19167 C 11.4 g/m*3 20.19 C 6.95833 km/h
2633 30-04-2014 17:00:00 20.925 C 10.73 g/m*3 20.93 C 6.15833 km/h
2634 30-04-2014 18:00:00 20.50833 C 10.55 g/m*3 20.51 C 6.15 km/h
2635 30-04-2014 19:00:00 19.425 C 10.71 g/m*3 19.43 C 4.81667 km/h
2636 30-04-2014 20:00:00 15.84167 C 11.03 g/m*3 15.84 C 1.2 km/h
2637 30-04-2014 21:00:00 15.175 C 10.81 g/m*3 15.18 C 1.46667 km/h
2638 30-04-2014 22:00:00 14.58333 C 10.81 g/m*3 14.58 C 1.33333 km/h
2639 30-04-2014 23:00:00 14.40833 C 10.96 g/m*3 14.41 C 0.4 km/h
2640 01-05-2014 00:00:00 13.65833 C 10.89 g/m*3 13.66 C 0.13333 km/h
2641 01-05-2014 01:00:00 13.13333 C 10.75 g/m*3 13.13 C 0 km/h
2642 01-05-2014 02:00:00 13.26667 C 10.82 g/m*3 13.27 C 0.26667 km/h
2643 01-05-2014 03:00:00 13.23333 C 10.72 g/m*3 13.23 C 0.66667 km/h
2644 01-05-2014 04:00:00 13.225 C 10.74 g/m*3 13.23 C 0.8 km/h
2645 01-05-2014 05:00:00 12.93333 C 10.62 g/m*3 12.93 C 0.13333 km/h
2646 01-05-2014 06:00:00 12.64167 C 10.51 g/m*3 12.64 C 0.53333 km/h
2647 01-05-2014 07:00:00 12.58333 C 10.51 g/m*3 12.58 C 0 km/h
2648 01-05-2014 08:00:00 13.28333 C 10.82 g/m*3 13.28 C 0.4 km/h
2649 01-05-2014 09:00:00 14.24167 C 10.35 g/m*3 14.24 C 1.33333 km/h
2650 01-05-2014 10:00:00 14.89167 C 9.27 g/m*3 14.89 C 5.76667 km/h
Sensor: Nr:Datum:Temp:Abs-Feuchte:Windchill:Wind:
Aussen-T/F 2651 01-05-2014 11:00:00 16.81667 C 9.49 g/m*3 16.82 C 7.10833 km/h
2652 01-05-2014 12:00:00 18.34167 C 9.27 g/m*3 18.34 C 5.75833 km/h
2653 01-05-2014 13:00:00 19.74167 C 9.12 g/m*3 19.74 C 6.3 km/h
2654 01-05-2014 14:00:00 20.06667 C 8.92 g/m*3 20.07 C 5.625 km/h
2655 01-05-2014 15:00:00 19.01667 C 9.18 g/m*3 19.02 C 3.33333 km/h
2656 01-05-2014 16:00:00 15.56667 C 10.33 g/m*3 15.57 C 4.66667 km/h
2657 01-05-2014 17:00:00 15.58333 C 10.22 g/m*3 15.58 C 4.00833 km/h
2658 01-05-2014 18:00:00 16.15833 C 10.21 g/m*3 16.16 C 4.41667 km/h
2659 01-05-2014 19:00:00 15.33333 C 10.38 g/m*3 15.33 C 0.13333 km/h
2660 01-05-2014 20:00:00 13.975 C 10.11 g/m*3 13.98 C 1.2 km/h
2661 01-05-2014 21:00:00 12.45 C 9.75 g/m*3 12.45 C 0.26667 km/h
2662 01-05-2014 22:00:00 11.85 C 9.64 g/m*3 11.85 C 0 km/h
2663 01-05-2014 23:00:00 11.675 C 9.6 g/m*3 11.68 C 0.26667 km/h
2664 02-05-2014 00:00:00 10.96667 C 9.26 g/m*3 10.97 C 0.26667 km/h
2665 02-05-2014 01:00:00 10.20833 C 8.89 g/m*3 10.21 C 0 km/h
2666 02-05-2014 02:00:00 9.625 C 8.71 g/m*3 9.63 C 1.33333 km/h
2667 02-05-2014 03:00:00 9.4 C 8.64 g/m*3 9.4 C 1.86667 km/h
2668 02-05-2014 04:00:00 9.10833 C 8.51 g/m*3 9.11 C 0.13333 km/h
2669 02-05-2014 05:00:00 9.20833 C 8.64 g/m*3 9.21 C 1.2 km/h
2670 02-05-2014 06:00:00 9.7 C 8.94 g/m*3 9.7 C 0 km/h
2671 02-05-2014 07:00:00 10.16667 C 9.21 g/m*3 10.17 C 0 km/h
2672 02-05-2014 08:00:00 11.05 C 9.65 g/m*3 11.05 C 1.6 km/h
2673 02-05-2014 09:00:00 12.26667 C 10.03 g/m*3 12.27 C 0.53333 km/h
2674 02-05-2014 10:00:00 13.075 C 10.18 g/m*3 13.08 C 3.60833 km/h
2675 02-05-2014 11:00:00 13.84167 C 10.26 g/m*3 13.84 C 5.875 km/h
Sensor: Nr:Datum:Temp:Abs-Feuchte:Windchill:Wind:
Aussen-T/F 2676 02-05-2014 12:00:00 14.39167 C 10.29 g/m*3 14.39 C 8.45833 km/h
2677 02-05-2014 13:00:00 13.85833 C 10.02 g/m*3 13.86 C 6.70833 km/h
2678 02-05-2014 14:00:00 14.18333 C 9.82 g/m*3 14.18 C 11.15 km/h
2679 02-05-2014 15:00:00 14.39167 C 9.47 g/m*3 14.39 C 9.29167 km/h
2680 02-05-2014 16:00:00 14.96667 C 9.31 g/m*3 14.97 C 15.29167 km/h
2681 02-05-2014 17:00:00 14.825 C 9.18 g/m*3 14.83 C 15.44167 km/h
2682 02-05-2014 18:00:00 13.20833 C 8.81 g/m*3 13.21 C 12.76667 km/h
2683 02-05-2014 19:00:00 12.075 C 8.49 g/m*3 12.08 C 12.9 km/h
2684 02-05-2014 20:00:00 11.15833 C 8.17 g/m*3 11.16 C 10.48333 km/h
2685 02-05-2014 21:00:00 10.36667 C 7.92 g/m*3 8.84 C 11.43333 km/h
2686 02-05-2014 22:00:00 9.78333 C 7.66 g/m*3 8.53 C 9.15 km/h
2687 02-05-2014 23:00:00 9.29167 C 7.35 g/m*3 8.05 C 8.60833 km/h
2688 03-05-2014 00:00:00 8.875 C 7.46 g/m*3 8.06 C 6.43333 km/h
2689 03-05-2014 01:00:00 8.46667 C 7.5 g/m*3 7.82 C 5.625 km/h
2690 03-05-2014 02:00:00 8.34167 C 7.27 g/m*3 7.07 C 7.93333 km/h
2691 03-05-2014 03:00:00 7.95 C 6.95 g/m*3 6.78 C 7.25833 km/h
2692 03-05-2014 04:00:00 7.825 C 6.51 g/m*3 6.34 C 8.48333 km/h
2693 03-05-2014 05:00:00 7.54167 C 6.41 g/m*3 6.1 C 8.075 km/h
2694 03-05-2014 06:00:00 7.08333 C 6.3 g/m*3 6.15 C 5.89167 km/h
2695 03-05-2014 07:00:00 7.31667 C 6.33 g/m*3 6.46 C 5.75 km/h
2696 03-05-2014 08:00:00 7.95 C 6.41 g/m*3 6.43 C 8.75 km/h
2697 03-05-2014 09:00:00 8.93333 C 6.35 g/m*3 7.63 C 8.59167 km/h
2698 03-05-2014 10:00:00 10.11667 C 6.23 g/m*3 8.6 C 11.03333 km/h
2699 03-05-2014 11:00:00 11.65 C 5.85 g/m*3 11.65 C 11.03333 km/h
2700 03-05-2014 12:00:00 12.94167 C 5.49 g/m*3 12.94 C 10.61667 km/h
Sensor: Nr:Datum:Temp:Abs-Feuchte:Windchill:Wind:
Aussen-T/F 2701 03-05-2014 13:00:00 13.68333 C 5.15 g/m*3 13.68 C 9.81667 km/h
2702 03-05-2014 14:00:00 14.64167 C 5.1 g/m*3 14.64 C 9.69167 km/h
2703 03-05-2014 15:00:00 15.46667 C 5.01 g/m*3 15.47 C 9.80833 km/h
2704 03-05-2014 16:00:00 16.60833 C 4.93 g/m*3 16.61 C 9.69167 km/h
2705 03-05-2014 17:00:00 16.73333 C 4.69 g/m*3 16.73 C 11.29167 km/h
2706 03-05-2014 18:00:00 16.76667 C 4.53 g/m*3 16.77 C 12.09167 km/h
2707 03-05-2014 19:00:00 15.375 C 4.5 g/m*3 15.38 C 11.3 km/h
2708 03-05-2014 20:00:00 13.21667 C 4.31 g/m*3 13.22 C 8.35 km/h
2709 03-05-2014 21:00:00 9.76667 C 5.05 g/m*3 9.77 C 1.33333 km/h
2710 03-05-2014 22:00:00 7.875 C 5.2 g/m*3 7.88 C 0.66667 km/h
2711 03-05-2014 23:00:00 7.125 C 5.31 g/m*3 7.13 C 0.66667 km/h
2712 04-05-2014 00:00:00 6.45 C 5.43 g/m*3 6.45 C 0.13333 km/h
2713 04-05-2014 01:00:00 5.175 C 5.29 g/m*3 5.18 C 0 km/h
2714 04-05-2014 02:00:00 4.20833 C 5.26 g/m*3 4.21 C 0 km/h
2715 04-05-2014 03:00:00 3.55 C 5.27 g/m*3 3.55 C 0 km/h
2716 04-05-2014 04:00:00 2.93333 C 5.21 g/m*3 2.93 C 0 km/h
2717 04-05-2014 05:00:00 2.34167 C 5.13 g/m*3 2.34 C 0.13333 km/h
2718 04-05-2014 06:00:00 1.99167 C 5.1 g/m*3 1.99 C 0.13333 km/h
2719 04-05-2014 07:00:00 2.18333 C 5.21 g/m*3 2.18 C 0.13333 km/h
2720 04-05-2014 08:00:00 3.38333 C 5.59 g/m*3 3.38 C 0.13333 km/h
2721 04-05-2014 09:00:00 5.65 C 6.22 g/m*3 5.65 C 0 km/h
2722 04-05-2014 10:00:00 8.4 C 6.52 g/m*3 8.4 C 1.46667 km/h
2723 04-05-2014 11:00:00 12.33333 C 6.74 g/m*3 12.33 C 3.86667 km/h
2724 04-05-2014 12:00:00 13.99167 C 6.31 g/m*3 13.99 C 7.23333 km/h
2725 04-05-2014 13:00:00 15.15833 C 6.15 g/m*3 15.16 C 6.7 km/h
Sensor: Nr:Datum:Temp:Abs-Feuchte:Windchill:Wind:
Aussen-T/F 2726 04-05-2014 14:00:00 16.475 C 6.32 g/m*3 16.48 C 8.86667 km/h
2727 04-05-2014 15:00:00 17.34167 C 6.31 g/m*3 17.34 C 7.24167 km/h
2728 04-05-2014 16:00:00 17.45 C 6.09 g/m*3 17.45 C 7.53333 km/h
2729 04-05-2014 17:00:00 17.525 C 5.92 g/m*3 17.52 C 9.15833 km/h
2730 04-05-2014 18:00:00 17.45 C 5.96 g/m*3 17.45 C 6.56667 km/h
2731 04-05-2014 19:00:00 16.35 C 6.03 g/m*3 16.35 C 4.4 km/h
2732 04-05-2014 20:00:00 11.9 C 6.95 g/m*3 11.9 C 0.26667 km/h
2733 04-05-2014 21:00:00 10.26667 C 6.64 g/m*3 10.27 C 0.66667 km/h
2734 04-05-2014 22:00:00 9.35 C 6.61 g/m*3 9.35 C 0.13333 km/h
2735 04-05-2014 23:00:00 8.79167 C 6.59 g/m*3 8.79 C 0 km/h
2736 05-05-2014 00:00:00 8.10833 C 6.42 g/m*3 8.11 C 0.26667 km/h
2737 05-05-2014 01:00:00 7.25833 C 6.32 g/m*3 7.26 C 0 km/h
2738 05-05-2014 02:00:00 6.48333 C 6.15 g/m*3 6.48 C 0 km/h
2739 05-05-2014 03:00:00 5.58333 C 6.11 g/m*3 5.58 C 0 km/h
2740 05-05-2014 04:00:00 5.1 C 6.1 g/m*3 5.1 C 0 km/h
2741 05-05-2014 05:00:00 4.60833 C 6.01 g/m*3 4.61 C 0 km/h
2742 05-05-2014 06:00:00 4.25 C 5.98 g/m*3 4.25 C 0 km/h
2743 05-05-2014 07:00:00 4.80833 C 6.25 g/m*3 4.81 C 0 km/h
2744 05-05-2014 08:00:00 6.175 C 6.68 g/m*3 6.18 C 0 km/h
2745 05-05-2014 09:00:00 7.8 C 7.16 g/m*3 7.8 C 0 km/h
2746 05-05-2014 10:00:00 10.05833 C 7.85 g/m*3 10.06 C 1.2 km/h
2747 05-05-2014 11:00:00 14.70833 C 7.78 g/m*3 14.71 C 4.93333 km/h
2748 05-05-2014 12:00:00 17.18333 C 7.77 g/m*3 17.18 C 4.13333 km/h
2749 05-05-2014 13:00:00 18.93333 C 7.86 g/m*3 18.93 C 5.89167 km/h
2750 05-05-2014 14:00:00 20.18333 C 7.73 g/m*3 20.18 C 6.15 km/h
Sensor: Nr:Datum:Temp:Abs-Feuchte:Windchill:Wind:
Aussen-T/F 2751 05-05-2014 15:00:00 20.975 C 7.7 g/m*3 20.98 C 5.60833 km/h
2752 05-05-2014 16:00:00 21.81667 C 7.33 g/m*3 21.82 C 7.525 km/h
2753 05-05-2014 17:00:00 22.21667 C 7.04 g/m*3 22.22 C 6.84167 km/h
2754 05-05-2014 18:00:00 21.79167 C 7.26 g/m*3 21.79 C 8.875 km/h
2755 05-05-2014 19:00:00 20.00833 C 7.48 g/m*3 20.01 C 4.13333 km/h
2756 05-05-2014 20:00:00 15.925 C 8.08 g/m*3 15.93 C 1.33333 km/h
2757 05-05-2014 21:00:00 13.4 C 7.74 g/m*3 13.4 C 1.73333 km/h
2758 05-05-2014 22:00:00 12.74167 C 7.62 g/m*3 12.74 C 1.86667 km/h
2759 05-05-2014 23:00:00 12.3 C 7.42 g/m*3 12.3 C 2 km/h
2760 06-05-2014 00:00:00 11.73333 C 7.22 g/m*3 11.73 C 0.93333 km/h
2761 06-05-2014 01:00:00 10.05833 C 6.96 g/m*3 10.06 C 0 km/h
2762 06-05-2014 02:00:00 8.775 C 6.97 g/m*3 8.78 C 0 km/h
2763 06-05-2014 03:00:00 7.86667 C 6.83 g/m*3 7.87 C 0 km/h
2764 06-05-2014 04:00:00 7.20833 C 6.8 g/m*3 7.21 C 0 km/h
2765 06-05-2014 05:00:00 7 C 6.89 g/m*3 7 C 0.13333 km/h
2766 06-05-2014 06:00:00 6.7 C 6.91 g/m*3 6.7 C 0 km/h
2767 06-05-2014 07:00:00 7.55 C 7.28 g/m*3 7.55 C 0.26667 km/h
2768 06-05-2014 08:00:00 9.56667 C 7.75 g/m*3 9.57 C 1.73333 km/h
2769 06-05-2014 09:00:00 12.09167 C 8.33 g/m*3 12.09 C 1.46667 km/h
2770 06-05-2014 10:00:00 13.95 C 8.77 g/m*3 13.95 C 1.73333 km/h
2771 06-05-2014 11:00:00 15.5 C 9.1 g/m*3 15.5 C 3.46667 km/h
2772 06-05-2014 12:00:00 16.83333 C 9.63 g/m*3 16.83 C 6.83333 km/h
2773 06-05-2014 13:00:00 17.4 C 9.36 g/m*3 17.4 C 14.75833 km/h
2774 06-05-2014 14:00:00 16.93333 C 10.44 g/m*3 16.93 C 4.68333 km/h
2775 06-05-2014 15:00:00 19.71667 C 10.31 g/m*3 19.72 C 13.275 km/h
Sensor: Nr:Datum:Temp:Abs-Feuchte:Windchill:Wind:
Aussen-T/F 2776 06-05-2014 16:00:00 19.45833 C 9.85 g/m*3 19.46 C 16.23333 km/h
2777 06-05-2014 17:00:00 19.60833 C 10.16 g/m*3 19.61 C 15.3 km/h
2778 06-05-2014 18:00:00 19.49167 C 10.05 g/m*3 19.49 C 11.29167 km/h
2779 06-05-2014 19:00:00 18.83333 C 10.27 g/m*3 18.83 C 5.50833 km/h
2780 06-05-2014 20:00:00 17.14167 C 10.39 g/m*3 17.14 C 1.6 km/h
2781 06-05-2014 21:00:00 16.2 C 10.58 g/m*3 16.2 C 4.29167 km/h
2782 06-05-2014 22:00:00 14.45 C 10.38 g/m*3 14.45 C 1.06667 km/h
2783 06-05-2014 23:00:00 15.23333 C 10.06 g/m*3 15.23 C 2.66667 km/h
2784 07-05-2014 00:00:00 14.51667 C 9.89 g/m*3 14.52 C 3.09167 km/h
2785 07-05-2014 01:00:00 13.49167 C 10.01 g/m*3 13.49 C 7.775 km/h
2786 07-05-2014 02:00:00 12.36667 C 9.92 g/m*3 12.37 C 4.54167 km/h
2787 07-05-2014 03:00:00 11.74167 C 9.75 g/m*3 11.74 C 3.06667 km/h
2788 07-05-2014 04:00:00 11.55833 C 9.72 g/m*3 11.56 C 2 km/h
2789 07-05-2014 05:00:00 11.31667 C 9.64 g/m*3 11.32 C 4.675 km/h
2790 07-05-2014 06:00:00 11.45 C 9.81 g/m*3 11.45 C 1.46667 km/h
2791 07-05-2014 07:00:00 11.81667 C 10.03 g/m*3 11.82 C 0.93333 km/h
2792 07-05-2014 08:00:00 12.25 C 9.91 g/m*3 12.25 C 4.81667 km/h
2793 07-05-2014 09:00:00 12.74167 C 9.36 g/m*3 12.74 C 7.79167 km/h
2794 07-05-2014 10:00:00 13.675 C 8.66 g/m*3 13.68 C 14.1 km/h
2795 07-05-2014 11:00:00 14.81667 C 8.53 g/m*3 14.82 C 12.63333 km/h
2796 07-05-2014 12:00:00 15.05833 C 8.58 g/m*3 15.06 C 11.425 km/h
2797 07-05-2014 13:00:00 15.29167 C 9.42 g/m*3 15.29 C 8.74167 km/h
2798 07-05-2014 14:00:00 15.125 C 9.88 g/m*3 15.13 C 7.375 km/h
2799 07-05-2014 15:00:00 14.78333 C 10.5 g/m*3 14.78 C 5.61667 km/h
2800 07-05-2014 16:00:00 14.81667 C 10.36 g/m*3 14.82 C 7.24167 km/h
Sensor: Nr:Datum:Temp:Abs-Feuchte:Windchill:Wind:
Aussen-T/F 2801 07-05-2014 17:00:00 12.525 C 9.78 g/m*3 12.53 C 2 km/h
2802 07-05-2014 18:00:00 14.93333 C 10.72 g/m*3 14.93 C 5.35833 km/h
2803 07-05-2014 19:00:00 14.325 C 10.15 g/m*3 14.33 C 5.23333 km/h
2804 07-05-2014 20:00:00 12.65833 C 9.62 g/m*3 12.66 C 5.89167 km/h
2805 07-05-2014 21:00:00 11.00833 C 9.01 g/m*3 11.01 C 3.33333 km/h
2806 07-05-2014 22:00:00 10.95 C 9.08 g/m*3 10.95 C 1.86667 km/h
2807 07-05-2014 23:00:00 10.16667 C 8.86 g/m*3 10.17 C 1.6 km/h
2808 08-05-2014 00:00:00 10.48333 C 9.1 g/m*3 10.48 C 0.26667 km/h
2809 08-05-2014 01:00:00 9.825 C 8.78 g/m*3 9.82 C 0.53333 km/h
2810 08-05-2014 02:00:00 9.45833 C 8.69 g/m*3 9.46 C 0.53333 km/h
2811 08-05-2014 03:00:00 9.08333 C 8.5 g/m*3 9.08 C 0 km/h
2812 08-05-2014 04:00:00 9.2 C 8.59 g/m*3 9.2 C 1.06667 km/h
2813 08-05-2014 05:00:00 9.94167 C 8.83 g/m*3 9.94 C 2.4 km/h
2814 08-05-2014 06:00:00 10.36667 C 8.66 g/m*3 10.37 C 3.74167 km/h
2815 08-05-2014 07:00:00 11.075 C 8.67 g/m*3 11.08 C 6.04167 km/h
2816 08-05-2014 08:00:00 11.96667 C 8.81 g/m*3 11.97 C 10.625 km/h
2817 08-05-2014 09:00:00 12.35833 C 8.73 g/m*3 12.36 C 8.06667 km/h
2818 08-05-2014 10:00:00 13.03333 C 8.8 g/m*3 13.03 C 10.88333 km/h
2819 08-05-2014 11:00:00 14.51667 C 8.81 g/m*3 14.52 C 15.56667 km/h
2820 08-05-2014 12:00:00 14.55833 C 8.86 g/m*3 14.56 C 10.89167 km/h
2821 08-05-2014 13:00:00 15.50833 C 8.84 g/m*3 15.51 C 13.83333 km/h
2822 08-05-2014 14:00:00 15.83333 C 8.5 g/m*3 15.83 C 16.23333 km/h
2823 08-05-2014 15:00:00 16.025 C 8.62 g/m*3 16.02 C 13.3 km/h
2824 08-05-2014 16:00:00 14.8 C 9.31 g/m*3 14.8 C 5.36667 km/h
2825 08-05-2014 17:00:00 12.75833 C 9.75 g/m*3 12.76 C 3.06667 km/h
Sensor: Nr:Datum:Temp:Abs-Feuchte:Windchill:Wind:
Aussen-T/F 2826 08-05-2014 18:00:00 12.18333 C 10.08 g/m*3 12.18 C 0.13333 km/h
2827 08-05-2014 19:00:00 12.23333 C 10.06 g/m*3 12.23 C 3.48333 km/h
2828 08-05-2014 20:00:00 12.55 C 9.93 g/m*3 12.55 C 10.6 km/h
2829 08-05-2014 21:00:00 12.38333 C 9.93 g/m*3 12.38 C 16.23333 km/h
2830 08-05-2014 22:00:00 12.74167 C 10.08 g/m*3 12.74 C 17.70833 km/h
2831 08-05-2014 23:00:00 13 C 10.22 g/m*3 13 C 13.7 km/h
2832 09-05-2014 00:00:00 13.54167 C 10.32 g/m*3 13.54 C 20.25 km/h
2833 09-05-2014 01:00:00 13.63333 C 10.38 g/m*3 13.63 C 19.19167 km/h
2834 09-05-2014 02:00:00 13.74167 C 10.44 g/m*3 13.74 C 11.275 km/h
2835 09-05-2014 03:00:00 13.84167 C 10.62 g/m*3 13.84 C 8.05833 km/h
2836 09-05-2014 04:00:00 13.38333 C 10.59 g/m*3 13.38 C 4.95833 km/h
2837 09-05-2014 05:00:00 13.14167 C 10.49 g/m*3 13.14 C 4.15 km/h
2838 09-05-2014 06:00:00 13.05 C 10.46 g/m*3 13.05 C 2.675 km/h
2839 09-05-2014 07:00:00 13.84167 C 10.3 g/m*3 13.84 C 6.29167 km/h
2840 09-05-2014 08:00:00 14.85 C 10.61 g/m*3 14.85 C 9.01667 km/h
2841 09-05-2014 09:00:00 15.48333 C 10.2 g/m*3 15.48 C 11.95833 km/h
2842 09-05-2014 10:00:00 16.14167 C 9.52 g/m*3 16.14 C 15.96667 km/h
2843 09-05-2014 11:00:00 17.19167 C 8.73 g/m*3 17.19 C 19.96667 km/h
2844 09-05-2014 12:00:00 17.7 C 8.59 g/m*3 17.7 C 17.83333 km/h
2845 09-05-2014 13:00:00 18.29167 C 8.61 g/m*3 18.29 C 20.36667 km/h
2846 09-05-2014 14:00:00 17.65 C 7.72 g/m*3 17.65 C 22.51667 km/h
2847 09-05-2014 15:00:00 17.2 C 7.74 g/m*3 17.2 C 14.9 km/h
2848 09-05-2014 16:00:00 17.60833 C 8.03 g/m*3 17.61 C 14.76667 km/h
2849 09-05-2014 17:00:00 18.3 C 7.82 g/m*3 18.3 C 17.83333 km/h
2850 09-05-2014 18:00:00 17.76667 C 7.67 g/m*3 17.77 C 14.5 km/h
Sensor: Nr:Datum:Temp:Abs-Feuchte:Windchill:Wind:
Aussen-T/F 2851 09-05-2014 19:00:00 17.3 C 7.27 g/m*3 17.3 C 14.63333 km/h
2852 09-05-2014 20:00:00 15.33333 C 8.11 g/m*3 15.33 C 16.375 km/h
2853 09-05-2014 21:00:00 13.33333 C 8.53 g/m*3 13.33 C 3.75833 km/h
2854 09-05-2014 22:00:00 12.825 C 8.53 g/m*3 12.83 C 5.23333 km/h
2855 09-05-2014 23:00:00 12.86667 C 8 g/m*3 12.87 C 8.45833 km/h
2856 10-05-2014 00:00:00 11.96667 C 7.76 g/m*3 11.97 C 4.95833 km/h
2857 10-05-2014 01:00:00 10.95 C 7.48 g/m*3 10.95 C 3.6 km/h
2858 10-05-2014 02:00:00 10.275 C 7.31 g/m*3 10.28 C 3.46667 km/h
2859 10-05-2014 03:00:00 10.29167 C 7.33 g/m*3 10.29 C 3.60833 km/h
2860 10-05-2014 04:00:00 10.06667 C 7.5 g/m*3 10.07 C 4.54167 km/h
2861 10-05-2014 05:00:00 10.35833 C 7.72 g/m*3 10.06 C 5.35 km/h
2862 10-05-2014 06:00:00 10.30833 C 7.88 g/m*3 10.31 C 1.6 km/h
2863 10-05-2014 07:00:00 10.71667 C 8.1 g/m*3 10.72 C 1.2 km/h
2864 10-05-2014 08:00:00 11.79167 C 8.33 g/m*3 11.79 C 5.5 km/h
2865 10-05-2014 09:00:00 12.5 C 8.46 g/m*3 12.5 C 5.75833 km/h
2866 10-05-2014 10:00:00 12.85 C 9.42 g/m*3 12.85 C 1.2 km/h
2867 10-05-2014 11:00:00 13.24167 C 10.02 g/m*3 13.24 C 3.06667 km/h
2868 10-05-2014 12:00:00 15.15833 C 10.18 g/m*3 15.16 C 4.55 km/h
2869 10-05-2014 13:00:00 15.64167 C 9.31 g/m*3 15.64 C 13.54167 km/h
2870 10-05-2014 14:00:00 14.04167 C 9.41 g/m*3 14.04 C 10.48333 km/h
2871 10-05-2014 15:00:00 13.79167 C 10.08 g/m*3 13.79 C 4.14167 km/h
2872 10-05-2014 16:00:00 14.38333 C 9.96 g/m*3 14.38 C 8.59167 km/h
2873 10-05-2014 17:00:00 14.20833 C 9.93 g/m*3 14.21 C 12.61667 km/h
2874 10-05-2014 18:00:00 13.70833 C 9.7 g/m*3 13.71 C 16.5 km/h
2875 10-05-2014 19:00:00 13.49167 C 10.06 g/m*3 13.49 C 11.68333 km/h
Sensor: Nr:Datum:Temp:Abs-Feuchte:Windchill:Wind:
Aussen-T/F 2876 10-05-2014 20:00:00 13.43333 C 10.49 g/m*3 13.43 C 4.55833 km/h
2877 10-05-2014 21:00:00 13.35833 C 10.47 g/m*3 13.36 C 9.65833 km/h
2878 10-05-2014 22:00:00 10.95833 C 9.13 g/m*3 10.96 C 3.86667 km/h
2879 10-05-2014 23:00:00 10.325 C 9.07 g/m*3 10.33 C 2 km/h
2880 11-05-2014 00:00:00 10.34167 C 9.12 g/m*3 10.34 C 1.475 km/h
2881 11-05-2014 01:00:00 9.76667 C 8.8 g/m*3 9.77 C 0.66667 km/h
2882 11-05-2014 02:00:00 9.38333 C 8.5 g/m*3 9.38 C 2.4 km/h
2883 11-05-2014 03:00:00 8.475 C 7.97 g/m*3 8.48 C 1.73333 km/h
2884 11-05-2014 04:00:00 8.70833 C 7.94 g/m*3 8.05 C 5.78333 km/h
2885 11-05-2014 05:00:00 9.19167 C 7.56 g/m*3 8.04 C 8.075 km/h
2886 11-05-2014 06:00:00 9.16667 C 7.59 g/m*3 7.7 C 9.65833 km/h
2887 11-05-2014 07:00:00 9.88333 C 7.65 g/m*3 7.92 C 13.83333 km/h
2888 11-05-2014 08:00:00 10.55833 C 7.76 g/m*3 8.58 C 15.15833 km/h
2889 11-05-2014 09:00:00 11.375 C 7.85 g/m*3 11.38 C 14.36667 km/h
2890 11-05-2014 10:00:00 12.53333 C 7.68 g/m*3 12.53 C 17.83333 km/h
2891 11-05-2014 11:00:00 12.325 C 8.21 g/m*3 12.33 C 15.95833 km/h
2892 11-05-2014 12:00:00 11.86667 C 9.02 g/m*3 11.87 C 13.00833 km/h
2893 11-05-2014 13:00:00 13.78333 C 8.63 g/m*3 13.78 C 17.30833 km/h
2894 11-05-2014 14:00:00 12.24167 C 8.7 g/m*3 12.24 C 19.3 km/h
2895 11-05-2014 15:00:00 15.05 C 8.82 g/m*3 15.05 C 16.1 km/h
2896 11-05-2014 16:00:00 14.075 C 8.81 g/m*3 14.08 C 13.95833 km/h
2897 11-05-2014 17:00:00 14.25833 C 8.73 g/m*3 14.26 C 15.16667 km/h
2898 11-05-2014 18:00:00 14.29167 C 7.89 g/m*3 14.29 C 15.03333 km/h
2899 11-05-2014 19:00:00 13.44167 C 7.98 g/m*3 13.44 C 9.40833 km/h
2900 11-05-2014 20:00:00 11.43333 C 8.14 g/m*3 11.43 C 7.25 km/h
Sensor: Nr:Datum:Temp:Abs-Feuchte:Windchill:Wind:
Aussen-T/F 2901 11-05-2014 21:00:00 11.01667 C 8.2 g/m*3 11.02 C 2.93333 km/h
2902 11-05-2014 22:00:00 10.85 C 8.3 g/m*3 10.85 C 2.80833 km/h
2903 11-05-2014 23:00:00 10.96667 C 7.3 g/m*3 10.21 C 7.64167 km/h
2904 12-05-2014 00:00:00 10.84167 C 7.11 g/m*3 9.16 C 13.29167 km/h
2905 12-05-2014 01:00:00 9.975 C 7.22 g/m*3 8.12 C 13.15833 km/h
2906 12-05-2014 02:00:00 9.56667 C 7.11 g/m*3 7.88 C 11.40833 km/h
2907 12-05-2014 03:00:00 8.975 C 7.2 g/m*3 7.44 C 9.8 km/h
2908 12-05-2014 04:00:00 8.49167 C 7.2 g/m*3 7.23 C 8.04167 km/h
2909 12-05-2014 05:00:00 8.525 C 7.1 g/m*3 7.26 C 8.05833 km/h
2910 12-05-2014 06:00:00 8.39167 C 7.08 g/m*3 7.05 C 8.325 km/h
2911 12-05-2014 07:00:00 9.10833 C 7.21 g/m*3 7.53 C 10.21667 km/h
2912 12-05-2014 08:00:00 9.95833 C 7.37 g/m*3 8.48 C 10.625 km/h
2913 12-05-2014 09:00:00 10.68333 C 7.47 g/m*3 9 C 13.03333 km/h
2914 12-05-2014 10:00:00 11.24167 C 7.79 g/m*3 11.24 C 11.96667 km/h
2915 12-05-2014 11:00:00 12.11667 C 7.7 g/m*3 12.12 C 14.5 km/h
2916 12-05-2014 12:00:00 13.475 C 7.73 g/m*3 13.48 C 13.55833 km/h
2917 12-05-2014 13:00:00 13.43333 C 8.05 g/m*3 13.43 C 15.83333 km/h
2918 12-05-2014 14:00:00 13.48333 C 8.02 g/m*3 13.48 C 15.7 km/h
2919 12-05-2014 15:00:00 14.31667 C 7.85 g/m*3 14.32 C 17.03333 km/h
2920 12-05-2014 16:00:00 15.29167 C 7.84 g/m*3 15.29 C 15.55833 km/h
2921 12-05-2014 17:00:00 13.66667 C 7.51 g/m*3 13.67 C 15.025 km/h
2922 12-05-2014 18:00:00 11.925 C 7.56 g/m*3 11.93 C 7.51667 km/h
2923 12-05-2014 19:00:00 12.43333 C 7.93 g/m*3 12.43 C 3.34167 km/h
2924 12-05-2014 20:00:00 11.3 C 8.36 g/m*3 11.3 C 0.4 km/h
2925 12-05-2014 21:00:00 11.11667 C 7.81 g/m*3 11.12 C 2.80833 km/h
Sensor: Nr:Datum:Temp:Abs-Feuchte:Windchill:Wind:
Aussen-T/F 2926 12-05-2014 22:00:00 10.675 C 7.58 g/m*3 10.68 C 3.34167 km/h
2927 12-05-2014 23:00:00 9.66667 C 7.59 g/m*3 9.67 C 0.4 km/h
2928 13-05-2014 00:00:00 9.35833 C 7.56 g/m*3 9.36 C 2.40833 km/h
2929 13-05-2014 01:00:00 9.76667 C 7.52 g/m*3 9.77 C 4.53333 km/h
2930 13-05-2014 02:00:00 9.425 C 7.68 g/m*3 8.5 C 7.24167 km/h
2931 13-05-2014 03:00:00 8.9 C 7.77 g/m*3 8.9 C 4.94167 km/h
2932 13-05-2014 04:00:00 8.66667 C 7.63 g/m*3 8.67 C 3.475 km/h
2933 13-05-2014 05:00:00 8.69167 C 7.55 g/m*3 8.69 C 3.6 km/h
2934 13-05-2014 06:00:00 8.675 C 7.41 g/m*3 8.68 C 4.95 km/h
2935 13-05-2014 07:00:00 8.4 C 7.4 g/m*3 8.4 C 4.29167 km/h
2936 13-05-2014 08:00:00 9.74167 C 7.79 g/m*3 8.67 C 8.18333 km/h
2937 13-05-2014 09:00:00 10.96667 C 7.91 g/m*3 9.51 C 11.825 km/h
2938 13-05-2014 10:00:00 11.35833 C 7.92 g/m*3 11.36 C 8.88333 km/h
2939 13-05-2014 11:00:00 12.55833 C 8.17 g/m*3 12.56 C 10.49167 km/h
2940 13-05-2014 12:00:00 12.9 C 8.27 g/m*3 12.9 C 8.86667 km/h
2941 13-05-2014 13:00:00 11.40833 C 8.99 g/m*3 11.41 C 2.675 km/h
2942 13-05-2014 14:00:00 11.53333 C 8.31 g/m*3 11.53 C 8.16667 km/h
2943 13-05-2014 15:00:00 10.825 C 8.75 g/m*3 10.83 C 0.53333 km/h
2944 13-05-2014 16:00:00 12.275 C 8.73 g/m*3 12.28 C 6.99167 km/h
2945 13-05-2014 17:00:00 10.575 C 8.84 g/m*3 10.58 C 1.73333 km/h
2946 13-05-2014 18:00:00 11.65 C 8.95 g/m*3 11.65 C 4.28333 km/h
2947 13-05-2014 19:00:00 11.64167 C 9.05 g/m*3 11.64 C 1.73333 km/h
2948 13-05-2014 20:00:00 10.575 C 8.66 g/m*3 10.58 C 3.075 km/h
2949 13-05-2014 21:00:00 9.525 C 8.52 g/m*3 9.53 C 1.2 km/h
2950 13-05-2014 22:00:00 9.09167 C 8.42 g/m*3 9.09 C 0.4 km/h
Sensor: Nr:Datum:Temp:Abs-Feuchte:Windchill:Wind:
Aussen-T/F 2951 13-05-2014 23:00:00 8.86667 C 8.3 g/m*3 8.87 C 0.13333 km/h
2952 14-05-2014 00:00:00 8.5 C 8.08 g/m*3 8.5 C 2 km/h
2953 14-05-2014 01:00:00 7.91667 C 7.73 g/m*3 7.92 C 0.8 km/h
2954 14-05-2014 02:00:00 7.25 C 7.32 g/m*3 7.25 C 1.33333 km/h
2955 14-05-2014 03:00:00 6.30833 C 6.95 g/m*3 6.31 C 0 km/h
2956 14-05-2014 04:00:00 5.30833 C 6.58 g/m*3 5.31 C 0.26667 km/h
2957 14-05-2014 05:00:00 4.775 C 6.42 g/m*3 4.78 C 0.13333 km/h
2958 14-05-2014 06:00:00 5.01667 C 6.54 g/m*3 5.02 C 0.13333 km/h
2959 14-05-2014 07:00:00 5.275 C 6.67 g/m*3 5.28 C 4.54167 km/h
2960 14-05-2014 08:00:00 6.84167 C 7.26 g/m*3 6.01 C 5.475 km/h
2961 14-05-2014 09:00:00 8.90833 C 7.59 g/m*3 8.03 C 6.71667 km/h
2962 14-05-2014 10:00:00 10.875 C 7.61 g/m*3 9.56 C 10.75 km/h
2963 14-05-2014 11:00:00 12.11667 C 7.34 g/m*3 12.12 C 9.68333 km/h
2964 14-05-2014 12:00:00 14.19167 C 7.26 g/m*3 14.19 C 9.96667 km/h
2965 14-05-2014 13:00:00 15.11667 C 7.29 g/m*3 15.12 C 8.74167 km/h
2966 14-05-2014 14:00:00 15.94167 C 6.97 g/m*3 15.94 C 9.125 km/h
2967 14-05-2014 15:00:00 16.69167 C 6.9 g/m*3 16.69 C 10.49167 km/h
2968 14-05-2014 16:00:00 16.75 C 6.65 g/m*3 16.75 C 9.68333 km/h
2969 14-05-2014 17:00:00 17.25 C 6.72 g/m*3 17.25 C 11.95833 km/h
2970 14-05-2014 18:00:00 14.26667 C 7.82 g/m*3 14.27 C 16.775 km/h
2971 14-05-2014 19:00:00 13.35833 C 7.82 g/m*3 13.36 C 9.11667 km/h
2972 14-05-2014 20:00:00 12.4 C 7.73 g/m*3 12.4 C 11.025 km/h
2973 14-05-2014 21:00:00 10.85 C 7.92 g/m*3 10.85 C 4.56667 km/h
2974 14-05-2014 22:00:00 9.7 C 7.92 g/m*3 9.7 C 1.46667 km/h
2975 14-05-2014 23:00:00 9.64167 C 7.9 g/m*3 9.64 C 2.00833 km/h
Sensor: Nr:Datum:Temp:Abs-Feuchte:Windchill:Wind:
Aussen-T/F 2976 15-05-2014 00:00:00 9.175 C 7.81 g/m*3 9.18 C 0.66667 km/h
2977 15-05-2014 01:00:00 8.45 C 7.65 g/m*3 8.45 C 0.8 km/h
2978 15-05-2014 02:00:00 8.23333 C 7.6 g/m*3 8.23 C 1.33333 km/h
2979 15-05-2014 03:00:00 7.65 C 7.38 g/m*3 7.65 C 2.13333 km/h
2980 15-05-2014 04:00:00 7.40833 C 7.1 g/m*3 7.41 C 2.80833 km/h
2981 15-05-2014 05:00:00 6.05833 C 6.71 g/m*3 6.06 C 0.13333 km/h
2982 15-05-2014 06:00:00 6.08333 C 6.86 g/m*3 6.08 C 0.8 km/h
2983 15-05-2014 07:00:00 7.01667 C 7.11 g/m*3 7.02 C 2.13333 km/h
2984 15-05-2014 08:00:00 7.80833 C 7.1 g/m*3 7.81 C 4 km/h
2985 15-05-2014 09:00:00 8.29167 C 7.02 g/m*3 8.29 C 4.80833 km/h
2986 15-05-2014 10:00:00 9.625 C 7.2 g/m*3 8.29 C 9.425 km/h
2987 15-05-2014 11:00:00 10.525 C 7.11 g/m*3 9.29 C 9.83333 km/h
2988 15-05-2014 12:00:00 10.65 C 7.35 g/m*3 9.22 C 11.16667 km/h
2989 15-05-2014 13:00:00 11.49167 C 7.48 g/m*3 11.49 C 10.9 km/h
2990 15-05-2014 14:00:00 12.6 C 7.66 g/m*3 12.6 C 11.3 km/h
2991 15-05-2014 15:00:00 12.95833 C 7.69 g/m*3 12.96 C 9.95833 km/h
2992 15-05-2014 16:00:00 13.16667 C 7.85 g/m*3 13.17 C 8.73333 km/h
2993 15-05-2014 17:00:00 13.25833 C 7.7 g/m*3 13.26 C 10.625 km/h
2994 15-05-2014 18:00:00 12.76667 C 7.89 g/m*3 12.77 C 11.16667 km/h
2995 15-05-2014 19:00:00 12.44167 C 7.87 g/m*3 12.44 C 9.13333 km/h
2996 15-05-2014 20:00:00 12.05 C 7.9 g/m*3 12.05 C 6.71667 km/h
2997 15-05-2014 21:00:00 11.325 C 8.07 g/m*3 11.33 C 2 km/h
2998 15-05-2014 22:00:00 10.8 C 8.14 g/m*3 10.8 C 0.8 km/h
2999 15-05-2014 23:00:00 10.25833 C 8.15 g/m*3 10.26 C 0.4 km/h
3000 16-05-2014 00:00:00 9.525 C 8.05 g/m*3 9.53 C 0 km/h
Sensor: Nr:Datum:Temp:Abs-Feuchte:Windchill:Wind:
Aussen-T/F 3001 16-05-2014 01:00:00 9.2 C 7.96 g/m*3 9.2 C 0.93333 km/h
3002 16-05-2014 02:00:00 8.50833 C 7.67 g/m*3 8.51 C 1.74167 km/h
3003 16-05-2014 03:00:00 7.85833 C 7.55 g/m*3 7.86 C 1.2 km/h
3004 16-05-2014 04:00:00 7.85 C 7.53 g/m*3 7.85 C 0.8 km/h
3005 16-05-2014 05:00:00 7.65833 C 7.46 g/m*3 7.66 C 2.26667 km/h
3006 16-05-2014 06:00:00 7.63333 C 7.43 g/m*3 7.63 C 1.2 km/h
3007 16-05-2014 07:00:00 7.875 C 7.55 g/m*3 7.88 C 1.2 km/h
3008 16-05-2014 08:00:00 9.15 C 7.98 g/m*3 9.15 C 0.66667 km/h
3009 16-05-2014 09:00:00 10.39167 C 8.2 g/m*3 10.39 C 2.26667 km/h
3010 16-05-2014 10:00:00 12.65 C 8.57 g/m*3 12.65 C 3.33333 km/h
3011 16-05-2014 11:00:00 15.675 C 8.95 g/m*3 15.68 C 6.025 km/h
3012 16-05-2014 12:00:00 17.59167 C 8.44 g/m*3 17.59 C 8.35 km/h
3013 16-05-2014 13:00:00 18.90833 C 8.17 g/m*3 18.91 C 8.875 km/h
3014 16-05-2014 14:00:00 19.21667 C 7.96 g/m*3 19.22 C 10.35 km/h
3015 16-05-2014 15:00:00 19.35 C 7.78 g/m*3 19.35 C 9.94167 km/h
3016 16-05-2014 16:00:00 19.8 C 7.54 g/m*3 19.8 C 10.9 km/h
3017 16-05-2014 17:00:00 20.91667 C 7.76 g/m*3 20.92 C 12.76667 km/h
3018 16-05-2014 18:00:00 20.55833 C 7.77 g/m*3 20.56 C 13.7 km/h
3019 16-05-2014 19:00:00 17.39167 C 9.11 g/m*3 17.39 C 13.56667 km/h
3020 16-05-2014 20:00:00 14.4 C 9.72 g/m*3 14.4 C 10.63333 km/h
3021 16-05-2014 21:00:00 13.4 C 8.86 g/m*3 13.4 C 2.80833 km/h
3022 16-05-2014 22:00:00 11.60833 C 8.22 g/m*3 11.61 C 0.53333 km/h
3023 16-05-2014 23:00:00 10.96667 C 8.08 g/m*3 10.97 C 0.66667 km/h
3024 17-05-2014 00:00:00 10.16667 C 7.91 g/m*3 10.17 C 0.13333 km/h
3025 17-05-2014 01:00:00 9.25 C 7.75 g/m*3 9.25 C 0 km/h
Sensor: Nr:Datum:Temp:Abs-Feuchte:Windchill:Wind:
Aussen-T/F 3026 17-05-2014 02:00:00 8.325 C 7.54 g/m*3 8.32 C 0 km/h
3027 17-05-2014 03:00:00 7.64167 C 7.38 g/m*3 7.64 C 0.13333 km/h
3028 17-05-2014 04:00:00 7.1 C 7.21 g/m*3 7.1 C 0 km/h
3029 17-05-2014 05:00:00 6.64167 C 7.08 g/m*3 6.64 C 0.26667 km/h
3030 17-05-2014 06:00:00 6.5 C 7.05 g/m*3 6.5 C 0.4 km/h
3031 17-05-2014 07:00:00 6.89167 C 7.28 g/m*3 6.89 C 0 km/h
3032 17-05-2014 08:00:00 9.15 C 8.06 g/m*3 9.15 C 0 km/h
3033 17-05-2014 09:00:00 10.75 C 8.5 g/m*3 10.75 C 1.6 km/h
3034 17-05-2014 10:00:00 13.925 C 8.87 g/m*3 13.93 C 2.4 km/h
3035 17-05-2014 11:00:00 17 C 8.84 g/m*3 17 C 5.90833 km/h
3036 17-05-2014 12:00:00 18.43333 C 8.63 g/m*3 18.43 C 7.78333 km/h
3037 17-05-2014 13:00:00 19.74167 C 8.89 g/m*3 19.74 C 7.65 km/h
3038 17-05-2014 14:00:00 19.61667 C 8.65 g/m*3 19.62 C 6.96667 km/h
3039 17-05-2014 15:00:00 20.39167 C 8.78 g/m*3 20.39 C 7.66667 km/h
3040 17-05-2014 16:00:00 22.03333 C 9.14 g/m*3 22.03 C 10.35833 km/h
3041 17-05-2014 17:00:00 21.19167 C 9.15 g/m*3 21.19 C 9.55 km/h
3042 17-05-2014 18:00:00 20.46667 C 9.37 g/m*3 20.47 C 8.475 km/h
3043 17-05-2014 19:00:00 20.01667 C 9.62 g/m*3 20.02 C 8.06667 km/h
3044 17-05-2014 20:00:00 19.31667 C 9.55 g/m*3 19.32 C 7.925 km/h
3045 17-05-2014 21:00:00 17.65833 C 9.59 g/m*3 17.66 C 5.64167 km/h
3046 17-05-2014 22:00:00 15.58333 C 9.68 g/m*3 15.58 C 2.00833 km/h
3047 17-05-2014 23:00:00 13.55833 C 9.2 g/m*3 13.56 C 0.26667 km/h
3048 18-05-2014 00:00:00 12.31667 C 8.88 g/m*3 12.32 C 0 km/h
3049 18-05-2014 01:00:00 11.25833 C 8.63 g/m*3 11.26 C 0 km/h
3050 18-05-2014 02:00:00 10.56667 C 8.65 g/m*3 10.57 C 0 km/h
Sensor: Nr:Datum:Temp:Abs-Feuchte:Windchill:Wind:
Aussen-T/F 3051 18-05-2014 03:00:00 10.4 C 8.67 g/m*3 10.4 C 0 km/h
3052 18-05-2014 04:00:00 9.5 C 8.36 g/m*3 9.5 C 0 km/h
3053 18-05-2014 05:00:00 8.73333 C 8.12 g/m*3 8.73 C 0 km/h
3054 18-05-2014 06:00:00 8.51667 C 8.09 g/m*3 8.52 C 0 km/h
3055 18-05-2014 07:00:00 8.99167 C 8.37 g/m*3 8.99 C 0 km/h
3056 18-05-2014 08:00:00 11.325 C 9.23 g/m*3 11.33 C 1.06667 km/h
3057 18-05-2014 09:00:00 12.55 C 9.7 g/m*3 12.55 C 0.13333 km/h
3058 18-05-2014 10:00:00 16.025 C 10.47 g/m*3 16.02 C 2.8 km/h
3059 18-05-2014 11:00:00 18.725 C 10.42 g/m*3 18.73 C 3.34167 km/h
3060 18-05-2014 12:00:00 19.975 C 9.98 g/m*3 19.98 C 5.35833 km/h
3061 18-05-2014 13:00:00 21.475 C 10.15 g/m*3 21.48 C 6.03333 km/h
3062 18-05-2014 14:00:00 22.1 C 9.71 g/m*3 22.1 C 6.85 km/h
3063 18-05-2014 15:00:00 22.5 C 9.4 g/m*3 22.5 C 7.11667 km/h
3064 18-05-2014 16:00:00 22.06667 C 9.53 g/m*3 22.07 C 6.43333 km/h
3065 18-05-2014 17:00:00 21.51667 C 9.94 g/m*3 21.52 C 3.475 km/h
3066 18-05-2014 18:00:00 20.65833 C 10.76 g/m*3 20.66 C 2 km/h
3067 18-05-2014 19:00:00 20.34167 C 11.03 g/m*3 20.34 C 1.06667 km/h
3068 18-05-2014 20:00:00 18 C 11.19 g/m*3 18 C 0.13333 km/h
3069 18-05-2014 21:00:00 15.90833 C 10.46 g/m*3 15.91 C 0.13333 km/h
3070 18-05-2014 22:00:00 14.475 C 9.74 g/m*3 14.48 C 0.26667 km/h
3071 18-05-2014 23:00:00 13.61667 C 9.62 g/m*3 13.62 C 0 km/h
3072 19-05-2014 00:00:00 12.725 C 9.46 g/m*3 12.73 C 0.66667 km/h
3073 19-05-2014 01:00:00 12.51667 C 9.53 g/m*3 12.52 C 0.13333 km/h
3074 19-05-2014 02:00:00 11.70833 C 9.32 g/m*3 11.71 C 0.13333 km/h
3075 19-05-2014 03:00:00 11.08333 C 9.16 g/m*3 11.08 C 0 km/h
Sensor: Nr:Datum:Temp:Abs-Feuchte:Windchill:Wind:
Aussen-T/F 3076 19-05-2014 04:00:00 10.46667 C 8.93 g/m*3 10.47 C 0 km/h
3077 19-05-2014 05:00:00 9.85833 C 8.71 g/m*3 9.86 C 0 km/h
3078 19-05-2014 06:00:00 9.525 C 8.63 g/m*3 9.53 C 0.13333 km/h
3079 19-05-2014 07:00:00 9.875 C 8.86 g/m*3 9.88 C 0 km/h
3080 19-05-2014 08:00:00 12.1 C 9.78 g/m*3 12.1 C 0 km/h
3081 19-05-2014 09:00:00 13.45833 C 10.4 g/m*3 13.46 C 0 km/h
3082 19-05-2014 10:00:00 16.75833 C 11.55 g/m*3 16.76 C 2 km/h
3083 19-05-2014 11:00:00 21.55 C 11.41 g/m*3 21.55 C 5.89167 km/h
3084 19-05-2014 12:00:00 23.2 C 11.17 g/m*3 23.2 C 7.125 km/h
3085 19-05-2014 13:00:00 22.89167 C 11.44 g/m*3 22.89 C 4.68333 km/h
3086 19-05-2014 14:00:00 23.06667 C 11.54 g/m*3 23.07 C 4.15 km/h
3087 19-05-2014 15:00:00 23.99167 C 11.07 g/m*3 23.99 C 3.6 km/h
3088 19-05-2014 16:00:00 26.175 C 9.85 g/m*3 26.18 C 8.33333 km/h
3089 19-05-2014 17:00:00 27.46667 C 8.58 g/m*3 27.47 C 10.625 km/h
3090 19-05-2014 18:00:00 27.44167 C 8.83 g/m*3 27.44 C 8.45833 km/h
3091 19-05-2014 19:00:00 25.81667 C 9.2 g/m*3 25.82 C 8.45833 km/h
3092 19-05-2014 20:00:00 21.14167 C 10.96 g/m*3 21.14 C 2.8 km/h
3093 19-05-2014 21:00:00 17.7 C 10.91 g/m*3 17.7 C 1.2 km/h
3094 19-05-2014 22:00:00 16.20833 C 10.28 g/m*3 16.21 C 0.4 km/h
3095 19-05-2014 23:00:00 15 C 10.39 g/m*3 15 C 0.66667 km/h
3096 20-05-2014 00:00:00 13.925 C 10.28 g/m*3 13.93 C 0.13333 km/h
3097 20-05-2014 01:00:00 12.89167 C 9.99 g/m*3 12.89 C 0 km/h
3098 20-05-2014 02:00:00 12.88333 C 10.19 g/m*3 12.88 C 0 km/h
3099 20-05-2014 03:00:00 12.55833 C 10.04 g/m*3 12.56 C 0 km/h
3100 20-05-2014 04:00:00 11.875 C 9.75 g/m*3 11.88 C 0 km/h
Sensor: Nr:Datum:Temp:Abs-Feuchte:Windchill:Wind:
Aussen-T/F 3101 20-05-2014 05:00:00 11.69167 C 9.77 g/m*3 11.69 C 0 km/h
3102 20-05-2014 06:00:00 12.15 C 10.08 g/m*3 12.15 C 0.93333 km/h
3103 20-05-2014 07:00:00 13.25833 C 10.43 g/m*3 13.26 C 0.93333 km/h
3104 20-05-2014 08:00:00 14.85833 C 10.88 g/m*3 14.86 C 5.09167 km/h
3105 20-05-2014 09:00:00 16.98333 C 11.3 g/m*3 16.98 C 3.33333 km/h
3106 20-05-2014 10:00:00 20.11667 C 12.08 g/m*3 20.12 C 3.33333 km/h
3107 20-05-2014 11:00:00 22.71667 C 11.43 g/m*3 22.72 C 9.025 km/h
3108 20-05-2014 12:00:00 24.49167 C 10.89 g/m*3 24.49 C 9.68333 km/h
3109 20-05-2014 13:00:00 26 C 10.51 g/m*3 26 C 9.425 km/h
3110 20-05-2014 14:00:00 27.75 C 10.64 g/m*3 27.75 C 7.125 km/h
3111 20-05-2014 15:00:00 28.93333 C 9.09 g/m*3 28.93 C 7.925 km/h
3112 20-05-2014 16:00:00 29.26667 C 9.62 g/m*3 29.27 C 7.5 km/h
3113 20-05-2014 17:00:00 28.43333 C 10.26 g/m*3 28.43 C 6.56667 km/h
3114 20-05-2014 18:00:00 27.13333 C 11.56 g/m*3 27.13 C 3.06667 km/h
3115 20-05-2014 19:00:00 23.18333 C 12.48 g/m*3 23.18 C 0.4 km/h
3116 20-05-2014 20:00:00 20.575 C 11.13 g/m*3 20.58 C 1.6 km/h
3117 20-05-2014 21:00:00 19.03333 C 10.68 g/m*3 19.03 C 1.46667 km/h
3118 20-05-2014 22:00:00 18.375 C 10.56 g/m*3 18.38 C 1.73333 km/h
3119 20-05-2014 23:00:00 18.09167 C 10.63 g/m*3 18.09 C 1.2 km/h
3120 21-05-2014 00:00:00 17.25833 C 10.56 g/m*3 17.26 C 0.8 km/h
3121 21-05-2014 01:00:00 16.9 C 10.72 g/m*3 16.9 C 0.4 km/h
3122 21-05-2014 02:00:00 15.375 C 10.51 g/m*3 15.38 C 0 km/h
3123 21-05-2014 03:00:00 14.775 C 10.66 g/m*3 14.78 C 0 km/h
3124 21-05-2014 04:00:00 14 C 10.49 g/m*3 14 C 0 km/h
3125 21-05-2014 05:00:00 13.71667 C 10.41 g/m*3 13.72 C 0 km/h
Sensor: Nr:Datum:Temp:Abs-Feuchte:Windchill:Wind:
Aussen-T/F 3126 21-05-2014 06:00:00 14.31667 C 10.77 g/m*3 14.32 C 0.4 km/h
3127 21-05-2014 07:00:00 15.25833 C 11.25 g/m*3 15.26 C 0.8 km/h
3128 21-05-2014 08:00:00 16.8 C 11.63 g/m*3 16.8 C 0.53333 km/h
3129 21-05-2014 09:00:00 18.10833 C 12.32 g/m*3 18.11 C 0 km/h
3130 21-05-2014 10:00:00 20.74167 C 13.02 g/m*3 20.74 C 1.86667 km/h
3131 21-05-2014 11:00:00 21.95 C 12.34 g/m*3 21.95 C 2.53333 km/h
3132 21-05-2014 12:00:00 24.23333 C 11.56 g/m*3 24.23 C 5.08333 km/h
3133 21-05-2014 13:00:00 25.46667 C 11.15 g/m*3 25.47 C 8.075 km/h
3134 21-05-2014 14:00:00 26.53333 C 11.14 g/m*3 26.53 C 7.925 km/h
3135 21-05-2014 15:00:00 27.74167 C 11.89 g/m*3 27.74 C 8.33333 km/h
3136 21-05-2014 16:00:00 27.31667 C 11.79 g/m*3 27.32 C 4 km/h
3137 21-05-2014 17:00:00 24.29167 C 14.05 g/m*3 24.29 C 0.4 km/h
3138 21-05-2014 18:00:00 23.30833 C 14.28 g/m*3 23.31 C 0.8 km/h
3139 21-05-2014 19:00:00 25.425 C 12.57 g/m*3 25.43 C 4.00833 km/h
3140 21-05-2014 20:00:00 23.79167 C 12.63 g/m*3 23.79 C 1.33333 km/h
3141 21-05-2014 21:00:00 20.45 C 11.69 g/m*3 20.45 C 1.33333 km/h
3142 21-05-2014 22:00:00 19.8 C 11.71 g/m*3 19.8 C 1.86667 km/h
3143 21-05-2014 23:00:00 19.59167 C 11.28 g/m*3 19.59 C 2 km/h
3144 22-05-2014 00:00:00 19.39167 C 11.13 g/m*3 19.39 C 1.46667 km/h
3145 22-05-2014 01:00:00 19.01667 C 10.86 g/m*3 19.02 C 2.94167 km/h
3146 22-05-2014 02:00:00 21.13333 C 11.08 g/m*3 21.13 C 3.89167 km/h
3147 22-05-2014 03:00:00 20.43333 C 11.61 g/m*3 20.43 C 6.30833 km/h
3148 22-05-2014 04:00:00 19.21667 C 12.17 g/m*3 19.22 C 2.66667 km/h
3149 22-05-2014 05:00:00 17.43333 C 11.85 g/m*3 17.43 C 0.53333 km/h
3150 22-05-2014 06:00:00 16.69167 C 11.65 g/m*3 16.69 C 0.8 km/h
Sensor: Nr:Datum:Temp:Abs-Feuchte:Windchill:Wind: